<?xml version="1.0" encoding="UTF-8" standalone="no" ?>
<gpx xmlns="http://www.topografix.com/GPX/1/1" xmlns:xsi="http://www.w3.org/2001/XMLSchema-instance" xsi:schemaLocation="http://www.topografix.com/GPX/1/1 http://www.topografix.com/GPX/1/1/gpx.xsd" version="1.1" creator="VisuGPX - https://www.visugpx.com">
  <metadata>
    <name>Le mont Baudille</name>
    <desc><![CDATA[Pas d\\\'engagement mais il faut être en forme pour arriver au sommet de Saint Baudille. La récompense elle vous attend après le col du vent en direction d\\\'Arboras. Descente parfois technique mais paradoxalement on peut lâcher les freins. De très beau panoramas tout au long du parcours avec des sentiers en sous bois très joueurs.]]></desc>
  </metadata>
  <trk>
    <name><![CDATA[Le Mont Baudille]]></name>
    <trkseg>
      <trkpt lat="43.71094" lon="3.48609">
        <ele>250</ele>
      </trkpt>
      <trkpt lat="43.71077" lon="3.48669">
        <ele>240</ele>
      </trkpt>
      <trkpt lat="43.71069" lon="3.48744">
        <ele>231</ele>
      </trkpt>
      <trkpt lat="43.71069" lon="3.48774">
        <ele>226</ele>
      </trkpt>
      <trkpt lat="43.71075" lon="3.488">
        <ele>225</ele>
      </trkpt>
      <trkpt lat="43.71104" lon="3.48785">
        <ele>235</ele>
      </trkpt>
      <trkpt lat="43.71134" lon="3.48777">
        <ele>237</ele>
      </trkpt>
      <trkpt lat="43.71145" lon="3.48811">
        <ele>239</ele>
      </trkpt>
      <trkpt lat="43.71118" lon="3.48871">
        <ele>239</ele>
      </trkpt>
      <trkpt lat="43.71053" lon="3.48912">
        <ele>219</ele>
      </trkpt>
      <trkpt lat="43.71034" lon="3.48946">
        <ele>212</ele>
      </trkpt>
      <trkpt lat="43.71077" lon="3.48998">
        <ele>218</ele>
      </trkpt>
      <trkpt lat="43.71013" lon="3.49062">
        <ele>207</ele>
      </trkpt>
      <trkpt lat="43.70851" lon="3.49152">
        <ele>208</ele>
      </trkpt>
      <trkpt lat="43.70802" lon="3.49167">
        <ele>209</ele>
      </trkpt>
      <trkpt lat="43.70625" lon="3.49111">
        <ele>196</ele>
      </trkpt>
      <trkpt lat="43.70576" lon="3.49111">
        <ele>196</ele>
      </trkpt>
      <trkpt lat="43.70352" lon="3.4931">
        <ele>186</ele>
      </trkpt>
      <trkpt lat="43.70299" lon="3.49396">
        <ele>182</ele>
      </trkpt>
      <trkpt lat="43.70234" lon="3.49474">
        <ele>178</ele>
      </trkpt>
      <trkpt lat="43.70202" lon="3.49531">
        <ele>176</ele>
      </trkpt>
      <trkpt lat="43.7014" lon="3.49756">
        <ele>170</ele>
      </trkpt>
      <trkpt lat="43.69937" lon="3.49943">
        <ele>167</ele>
      </trkpt>
      <trkpt lat="43.69813" lon="3.5016">
        <ele>161</ele>
      </trkpt>
      <trkpt lat="43.69722" lon="3.50344">
        <ele>157</ele>
      </trkpt>
      <trkpt lat="43.69595" lon="3.5049">
        <ele>153</ele>
      </trkpt>
      <trkpt lat="43.69563" lon="3.50535">
        <ele>152</ele>
      </trkpt>
      <trkpt lat="43.69539" lon="3.50479">
        <ele>151</ele>
      </trkpt>
      <trkpt lat="43.69517" lon="3.50456">
        <ele>150</ele>
      </trkpt>
      <trkpt lat="43.69549" lon="3.50434">
        <ele>150</ele>
      </trkpt>
      <trkpt lat="43.69529" lon="3.50438">
        <ele>150</ele>
        <time>2015-04-30T06:27:06Z</time>
      </trkpt>
      <trkpt lat="43.69533" lon="3.50446">
        <ele>150</ele>
        <time>2015-04-30T06:27:14Z</time>
      </trkpt>
      <trkpt lat="43.69534" lon="3.50445">
        <ele>150</ele>
        <time>2015-04-30T06:27:16Z</time>
      </trkpt>
      <trkpt lat="43.69534" lon="3.50445">
        <ele>150</ele>
        <time>2015-04-30T06:27:18Z</time>
      </trkpt>
      <trkpt lat="43.69534" lon="3.50445">
        <ele>150</ele>
        <time>2015-04-30T06:27:20Z</time>
      </trkpt>
      <trkpt lat="43.69534" lon="3.50445">
        <ele>150</ele>
        <time>2015-04-30T06:27:22Z</time>
      </trkpt>
      <trkpt lat="43.69535" lon="3.50445">
        <ele>150</ele>
        <time>2015-04-30T06:27:24Z</time>
      </trkpt>
      <trkpt lat="43.69535" lon="3.50445">
        <ele>150</ele>
        <time>2015-04-30T06:27:26Z</time>
      </trkpt>
      <trkpt lat="43.69535" lon="3.50445">
        <ele>150</ele>
        <time>2015-04-30T06:27:28Z</time>
      </trkpt>
      <trkpt lat="43.69536" lon="3.50444">
        <ele>150</ele>
        <time>2015-04-30T06:27:30Z</time>
      </trkpt>
      <trkpt lat="43.69536" lon="3.50444">
        <ele>150</ele>
        <time>2015-04-30T06:27:31Z</time>
      </trkpt>
      <trkpt lat="43.69537" lon="3.50443">
        <ele>150</ele>
        <time>2015-04-30T06:27:34Z</time>
      </trkpt>
      <trkpt lat="43.69537" lon="3.50444">
        <ele>150</ele>
        <time>2015-04-30T06:27:36Z</time>
      </trkpt>
      <trkpt lat="43.69537" lon="3.50444">
        <ele>150</ele>
        <time>2015-04-30T06:27:40Z</time>
      </trkpt>
      <trkpt lat="43.69536" lon="3.50445">
        <ele>150</ele>
        <time>2015-04-30T06:27:42Z</time>
      </trkpt>
      <trkpt lat="43.69536" lon="3.50445">
        <ele>150</ele>
        <time>2015-04-30T06:27:43Z</time>
      </trkpt>
      <trkpt lat="43.69536" lon="3.50446">
        <ele>150</ele>
        <time>2015-04-30T06:27:46Z</time>
      </trkpt>
      <trkpt lat="43.69535" lon="3.50447">
        <ele>150</ele>
        <time>2015-04-30T06:27:49Z</time>
      </trkpt>
      <trkpt lat="43.69535" lon="3.50447">
        <ele>150</ele>
        <time>2015-04-30T06:27:50Z</time>
      </trkpt>
      <trkpt lat="43.69535" lon="3.50448">
        <ele>150</ele>
        <time>2015-04-30T06:27:51Z</time>
      </trkpt>
      <trkpt lat="43.69535" lon="3.50448">
        <ele>150</ele>
        <time>2015-04-30T06:27:52Z</time>
      </trkpt>
      <trkpt lat="43.69535" lon="3.50448">
        <ele>150</ele>
        <time>2015-04-30T06:27:55Z</time>
      </trkpt>
      <trkpt lat="43.69535" lon="3.50448">
        <ele>150</ele>
        <time>2015-04-30T06:27:56Z</time>
      </trkpt>
      <trkpt lat="43.69534" lon="3.50448">
        <ele>150</ele>
        <time>2015-04-30T06:28:02Z</time>
      </trkpt>
      <trkpt lat="43.69535" lon="3.50447">
        <ele>150</ele>
        <time>2015-04-30T06:28:11Z</time>
      </trkpt>
      <trkpt lat="43.69535" lon="3.50448">
        <ele>150</ele>
        <time>2015-04-30T06:28:13Z</time>
      </trkpt>
      <trkpt lat="43.69536" lon="3.50448">
        <ele>150</ele>
        <time>2015-04-30T06:28:19Z</time>
      </trkpt>
      <trkpt lat="43.69536" lon="3.50449">
        <ele>150</ele>
        <time>2015-04-30T06:28:23Z</time>
      </trkpt>
      <trkpt lat="43.69537" lon="3.50451">
        <ele>150</ele>
        <time>2015-04-30T06:28:34Z</time>
      </trkpt>
      <trkpt lat="43.69537" lon="3.50454">
        <ele>150</ele>
        <time>2015-04-30T06:28:45Z</time>
      </trkpt>
      <trkpt lat="43.69538" lon="3.50458">
        <ele>150</ele>
        <time>2015-04-30T06:29:02Z</time>
      </trkpt>
      <trkpt lat="43.69537" lon="3.50455">
        <ele>150</ele>
        <time>2015-04-30T06:29:32Z</time>
      </trkpt>
      <trkpt lat="43.69536" lon="3.50448">
        <ele>150</ele>
        <time>2015-04-30T06:30:04Z</time>
      </trkpt>
      <trkpt lat="43.69537" lon="3.50446">
        <ele>150</ele>
        <time>2015-04-30T06:30:36Z</time>
      </trkpt>
      <trkpt lat="43.69537" lon="3.50449">
        <ele>150</ele>
        <time>2015-04-30T06:31:11Z</time>
      </trkpt>
      <trkpt lat="43.69538" lon="3.50445">
        <ele>150</ele>
        <time>2015-04-30T06:31:47Z</time>
      </trkpt>
      <trkpt lat="43.69541" lon="3.50446">
        <ele>150</ele>
        <time>2015-04-30T06:32:27Z</time>
      </trkpt>
      <trkpt lat="43.6954" lon="3.5045">
        <ele>150</ele>
        <time>2015-04-30T06:33:16Z</time>
      </trkpt>
      <trkpt lat="43.69538" lon="3.50445">
        <ele>150</ele>
        <time>2015-04-30T06:33:48Z</time>
      </trkpt>
      <trkpt lat="43.69542" lon="3.50438">
        <ele>150</ele>
        <time>2015-04-30T06:34:28Z</time>
      </trkpt>
      <trkpt lat="43.69544" lon="3.50435">
        <ele>150</ele>
        <time>2015-04-30T06:35:03Z</time>
      </trkpt>
      <trkpt lat="43.69543" lon="3.50436">
        <ele>150</ele>
        <time>2015-04-30T06:35:27Z</time>
      </trkpt>
      <trkpt lat="43.69543" lon="3.50436">
        <ele>150</ele>
        <time>2015-04-30T06:35:55Z</time>
      </trkpt>
      <trkpt lat="43.69544" lon="3.5044">
        <ele>150</ele>
        <time>2015-04-30T06:36:24Z</time>
      </trkpt>
      <trkpt lat="43.69543" lon="3.50445">
        <ele>150</ele>
        <time>2015-04-30T06:36:55Z</time>
      </trkpt>
      <trkpt lat="43.69545" lon="3.5044">
        <ele>150</ele>
        <time>2015-04-30T06:37:31Z</time>
      </trkpt>
      <trkpt lat="43.69546" lon="3.50442">
        <ele>150</ele>
        <time>2015-04-30T06:38:01Z</time>
      </trkpt>
      <trkpt lat="43.69544" lon="3.50446">
        <ele>150</ele>
        <time>2015-04-30T06:38:29Z</time>
      </trkpt>
      <trkpt lat="43.69543" lon="3.50444">
        <ele>150</ele>
        <time>2015-04-30T06:39:03Z</time>
      </trkpt>
      <trkpt lat="43.69542" lon="3.50444">
        <ele>150</ele>
        <time>2015-04-30T06:39:19Z</time>
      </trkpt>
      <trkpt lat="43.69542" lon="3.50444">
        <ele>150</ele>
        <time>2015-04-30T06:39:20Z</time>
      </trkpt>
      <trkpt lat="43.69541" lon="3.50444">
        <ele>150</ele>
        <time>2015-04-30T06:39:21Z</time>
      </trkpt>
      <trkpt lat="43.69541" lon="3.50444">
        <ele>150</ele>
        <time>2015-04-30T06:39:22Z</time>
      </trkpt>
      <trkpt lat="43.69541" lon="3.50445">
        <ele>150</ele>
        <time>2015-04-30T06:39:31Z</time>
      </trkpt>
      <trkpt lat="43.69541" lon="3.50445">
        <ele>150</ele>
        <time>2015-04-30T06:39:32Z</time>
      </trkpt>
      <trkpt lat="43.69541" lon="3.50445">
        <ele>150</ele>
        <time>2015-04-30T06:39:33Z</time>
      </trkpt>
      <trkpt lat="43.69545" lon="3.50441">
        <ele>150</ele>
        <time>2015-04-30T06:40:01Z</time>
      </trkpt>
      <trkpt lat="43.69544" lon="3.50445">
        <ele>150</ele>
        <time>2015-04-30T06:40:30Z</time>
      </trkpt>
      <trkpt lat="43.69543" lon="3.50445">
        <ele>150</ele>
        <time>2015-04-30T06:40:32Z</time>
      </trkpt>
      <trkpt lat="43.69537" lon="3.50449">
        <ele>150</ele>
        <time>2015-04-30T06:40:37Z</time>
      </trkpt>
      <trkpt lat="43.69533" lon="3.50461">
        <ele>150</ele>
        <time>2015-04-30T06:40:43Z</time>
      </trkpt>
      <trkpt lat="43.69532" lon="3.50472">
        <ele>151</ele>
        <time>2015-04-30T06:40:49Z</time>
      </trkpt>
      <trkpt lat="43.69549" lon="3.50508">
        <ele>152</ele>
        <time>2015-04-30T06:41:04Z</time>
      </trkpt>
      <trkpt lat="43.6957" lon="3.50542">
        <ele>152</ele>
        <time>2015-04-30T06:41:19Z</time>
      </trkpt>
      <trkpt lat="43.69586" lon="3.50595">
        <ele>151</ele>
        <time>2015-04-30T06:41:33Z</time>
      </trkpt>
      <trkpt lat="43.69591" lon="3.50627">
        <ele>151</ele>
        <time>2015-04-30T06:41:40Z</time>
      </trkpt>
      <trkpt lat="43.69582" lon="3.50645">
        <ele>150</ele>
        <time>2015-04-30T06:41:44Z</time>
      </trkpt>
      <trkpt lat="43.69569" lon="3.50661">
        <ele>150</ele>
        <time>2015-04-30T06:41:48Z</time>
      </trkpt>
      <trkpt lat="43.69514" lon="3.50724">
        <ele>148</ele>
        <time>2015-04-30T06:42:02Z</time>
      </trkpt>
      <trkpt lat="43.69449" lon="3.50802">
        <ele>145</ele>
        <time>2015-04-30T06:42:18Z</time>
      </trkpt>
      <trkpt lat="43.69392" lon="3.50888">
        <ele>143</ele>
        <time>2015-04-30T06:42:35Z</time>
      </trkpt>
      <trkpt lat="43.69362" lon="3.50946">
        <ele>139</ele>
        <time>2015-04-30T06:42:43Z</time>
      </trkpt>
      <trkpt lat="43.6935" lon="3.51037">
        <ele>135</ele>
        <time>2015-04-30T06:42:52Z</time>
      </trkpt>
      <trkpt lat="43.69345" lon="3.51082">
        <ele>134</ele>
        <time>2015-04-30T06:42:56Z</time>
      </trkpt>
      <trkpt lat="43.69314" lon="3.51189">
        <ele>131</ele>
        <time>2015-04-30T06:43:06Z</time>
      </trkpt>
      <trkpt lat="43.6925" lon="3.51351">
        <ele>128</ele>
        <time>2015-04-30T06:43:24Z</time>
      </trkpt>
      <trkpt lat="43.69237" lon="3.51477">
        <ele>128</ele>
        <time>2015-04-30T06:43:37Z</time>
      </trkpt>
      <trkpt lat="43.69243" lon="3.51572">
        <ele>124</ele>
        <time>2015-04-30T06:43:46Z</time>
      </trkpt>
      <trkpt lat="43.69251" lon="3.5164">
        <ele>126</ele>
        <time>2015-04-30T06:43:52Z</time>
      </trkpt>
      <trkpt lat="43.69256" lon="3.51688">
        <ele>124</ele>
        <time>2015-04-30T06:43:56Z</time>
      </trkpt>
      <trkpt lat="43.69271" lon="3.51787">
        <ele>121</ele>
        <time>2015-04-30T06:44:04Z</time>
      </trkpt>
      <trkpt lat="43.69295" lon="3.51909">
        <ele>118</ele>
        <time>2015-04-30T06:44:14Z</time>
      </trkpt>
      <trkpt lat="43.69314" lon="3.51992">
        <ele>115</ele>
        <time>2015-04-30T06:44:21Z</time>
      </trkpt>
      <trkpt lat="43.69338" lon="3.52072">
        <ele>114</ele>
        <time>2015-04-30T06:44:28Z</time>
      </trkpt>
      <trkpt lat="43.69384" lon="3.52226">
        <ele>109</ele>
        <time>2015-04-30T06:44:42Z</time>
      </trkpt>
      <trkpt lat="43.69402" lon="3.52282">
        <ele>105</ele>
        <time>2015-04-30T06:44:47Z</time>
      </trkpt>
      <trkpt lat="43.69437" lon="3.52404">
        <ele>105</ele>
        <time>2015-04-30T06:45:00Z</time>
      </trkpt>
      <trkpt lat="43.69439" lon="3.52451">
        <ele>109</ele>
        <time>2015-04-30T06:45:06Z</time>
      </trkpt>
      <trkpt lat="43.69428" lon="3.525">
        <ele>110</ele>
        <time>2015-04-30T06:45:14Z</time>
      </trkpt>
      <trkpt lat="43.69438" lon="3.52596">
        <ele>113</ele>
        <time>2015-04-30T06:45:32Z</time>
      </trkpt>
      <trkpt lat="43.69453" lon="3.52687">
        <ele>113</ele>
        <time>2015-04-30T06:45:50Z</time>
      </trkpt>
      <trkpt lat="43.69465" lon="3.52776">
        <ele>114</ele>
        <time>2015-04-30T06:46:07Z</time>
      </trkpt>
      <trkpt lat="43.69475" lon="3.52867">
        <ele>119</ele>
        <time>2015-04-30T06:46:25Z</time>
      </trkpt>
      <trkpt lat="43.69482" lon="3.52936">
        <ele>122</ele>
        <time>2015-04-30T06:46:39Z</time>
      </trkpt>
      <trkpt lat="43.69485" lon="3.53024">
        <ele>123</ele>
        <time>2015-04-30T06:46:58Z</time>
      </trkpt>
      <trkpt lat="43.69487" lon="3.53132">
        <ele>123</ele>
        <time>2015-04-30T06:47:20Z</time>
      </trkpt>
      <trkpt lat="43.69496" lon="3.53238">
        <ele>123</ele>
        <time>2015-04-30T06:47:36Z</time>
      </trkpt>
      <trkpt lat="43.69518" lon="3.53328">
        <ele>122</ele>
        <time>2015-04-30T06:47:46Z</time>
      </trkpt>
      <trkpt lat="43.69554" lon="3.53438">
        <ele>116</ele>
        <time>2015-04-30T06:47:58Z</time>
      </trkpt>
      <trkpt lat="43.69593" lon="3.53551">
        <ele>116</ele>
        <time>2015-04-30T06:48:13Z</time>
      </trkpt>
      <trkpt lat="43.69608" lon="3.53674">
        <ele>119</ele>
        <time>2015-04-30T06:48:32Z</time>
      </trkpt>
      <trkpt lat="43.6962" lon="3.53745">
        <ele>120</ele>
        <time>2015-04-30T06:48:44Z</time>
      </trkpt>
      <trkpt lat="43.69626" lon="3.53768">
        <ele>120</ele>
        <time>2015-04-30T06:48:48Z</time>
      </trkpt>
      <trkpt lat="43.69656" lon="3.53868">
        <ele>120</ele>
        <time>2015-04-30T06:49:05Z</time>
      </trkpt>
      <trkpt lat="43.69692" lon="3.53975">
        <ele>120</ele>
        <time>2015-04-30T06:49:22Z</time>
      </trkpt>
      <trkpt lat="43.69734" lon="3.54072">
        <ele>118</ele>
        <time>2015-04-30T06:49:36Z</time>
      </trkpt>
      <trkpt lat="43.6978" lon="3.54161">
        <ele>116</ele>
        <time>2015-04-30T06:49:48Z</time>
      </trkpt>
      <trkpt lat="43.69844" lon="3.54298">
        <ele>114</ele>
        <time>2015-04-30T06:50:05Z</time>
      </trkpt>
      <trkpt lat="43.69868" lon="3.54363">
        <ele>115</ele>
        <time>2015-04-30T06:50:18Z</time>
      </trkpt>
      <trkpt lat="43.69871" lon="3.54367">
        <ele>115</ele>
        <time>2015-04-30T06:51:10Z</time>
      </trkpt>
      <trkpt lat="43.69877" lon="3.54352">
        <ele>115</ele>
        <time>2015-04-30T06:51:14Z</time>
      </trkpt>
      <trkpt lat="43.69906" lon="3.54288">
        <ele>117</ele>
        <time>2015-04-30T06:51:31Z</time>
      </trkpt>
      <trkpt lat="43.69927" lon="3.54211">
        <ele>120</ele>
        <time>2015-04-30T06:51:48Z</time>
      </trkpt>
      <trkpt lat="43.69965" lon="3.54158">
        <ele>120</ele>
        <time>2015-04-30T06:52:04Z</time>
      </trkpt>
      <trkpt lat="43.70013" lon="3.54141">
        <ele>124</ele>
        <time>2015-04-30T06:52:22Z</time>
      </trkpt>
      <trkpt lat="43.70061" lon="3.54134">
        <ele>125</ele>
        <time>2015-04-30T06:52:40Z</time>
      </trkpt>
      <trkpt lat="43.70108" lon="3.54151">
        <ele>130</ele>
        <time>2015-04-30T06:52:59Z</time>
      </trkpt>
      <trkpt lat="43.70151" lon="3.54164">
        <ele>133</ele>
        <time>2015-04-30T06:53:17Z</time>
      </trkpt>
      <trkpt lat="43.70176" lon="3.54168">
        <ele>136</ele>
        <time>2015-04-30T06:53:30Z</time>
      </trkpt>
      <trkpt lat="43.70208" lon="3.54164">
        <ele>137</ele>
        <time>2015-04-30T06:53:46Z</time>
      </trkpt>
      <trkpt lat="43.70239" lon="3.54135">
        <ele>138</ele>
        <time>2015-04-30T06:54:02Z</time>
      </trkpt>
      <trkpt lat="43.70268" lon="3.54087">
        <ele>142</ele>
        <time>2015-04-30T06:54:21Z</time>
      </trkpt>
      <trkpt lat="43.70286" lon="3.54038">
        <ele>145</ele>
        <time>2015-04-30T06:54:37Z</time>
      </trkpt>
      <trkpt lat="43.70303" lon="3.53991">
        <ele>148</ele>
        <time>2015-04-30T06:54:54Z</time>
      </trkpt>
      <trkpt lat="43.70305" lon="3.53948">
        <ele>148</ele>
        <time>2015-04-30T06:55:08Z</time>
      </trkpt>
      <trkpt lat="43.70309" lon="3.5389">
        <ele>151</ele>
        <time>2015-04-30T06:55:25Z</time>
      </trkpt>
      <trkpt lat="43.70325" lon="3.53841">
        <ele>154</ele>
        <time>2015-04-30T06:55:41Z</time>
      </trkpt>
      <trkpt lat="43.70329" lon="3.53793">
        <ele>157</ele>
        <time>2015-04-30T06:55:58Z</time>
      </trkpt>
      <trkpt lat="43.70302" lon="3.5376">
        <ele>157</ele>
        <time>2015-04-30T06:56:14Z</time>
      </trkpt>
      <trkpt lat="43.70285" lon="3.5371">
        <ele>162</ele>
        <time>2015-04-30T06:56:31Z</time>
      </trkpt>
      <trkpt lat="43.70277" lon="3.53663">
        <ele>167</ele>
        <time>2015-04-30T06:56:47Z</time>
      </trkpt>
      <trkpt lat="43.70272" lon="3.53604">
        <ele>170</ele>
        <time>2015-04-30T06:57:06Z</time>
      </trkpt>
      <trkpt lat="43.70261" lon="3.53546">
        <ele>175</ele>
        <time>2015-04-30T06:57:25Z</time>
      </trkpt>
      <trkpt lat="43.70249" lon="3.53496">
        <ele>168</ele>
        <time>2015-04-30T06:57:41Z</time>
      </trkpt>
      <trkpt lat="43.70249" lon="3.53436">
        <ele>164</ele>
        <time>2015-04-30T06:58:00Z</time>
      </trkpt>
      <trkpt lat="43.70251" lon="3.53431">
        <ele>173</ele>
        <time>2015-04-30T06:58:02Z</time>
      </trkpt>
      <trkpt lat="43.7026" lon="3.53445">
        <ele>176</ele>
        <time>2015-04-30T06:58:10Z</time>
      </trkpt>
      <trkpt lat="43.70266" lon="3.53489">
        <ele>176</ele>
        <time>2015-04-30T06:58:24Z</time>
      </trkpt>
      <trkpt lat="43.70291" lon="3.53536">
        <ele>179</ele>
        <time>2015-04-30T06:58:43Z</time>
      </trkpt>
      <trkpt lat="43.70309" lon="3.53596">
        <ele>178</ele>
        <time>2015-04-30T06:59:04Z</time>
      </trkpt>
      <trkpt lat="43.70322" lon="3.53644">
        <ele>176</ele>
        <time>2015-04-30T06:59:21Z</time>
      </trkpt>
      <trkpt lat="43.70344" lon="3.5368">
        <ele>181</ele>
        <time>2015-04-30T06:59:37Z</time>
      </trkpt>
      <trkpt lat="43.70384" lon="3.537">
        <ele>184</ele>
        <time>2015-04-30T06:59:57Z</time>
      </trkpt>
      <trkpt lat="43.70408" lon="3.53726">
        <ele>184</ele>
        <time>2015-04-30T07:00:11Z</time>
      </trkpt>
      <trkpt lat="43.70441" lon="3.53752">
        <ele>190</ele>
        <time>2015-04-30T07:00:27Z</time>
      </trkpt>
      <trkpt lat="43.70475" lon="3.53753">
        <ele>198</ele>
        <time>2015-04-30T07:00:42Z</time>
      </trkpt>
      <trkpt lat="43.70478" lon="3.53755">
        <ele>198</ele>
        <time>2015-04-30T07:00:43Z</time>
      </trkpt>
      <trkpt lat="43.70478" lon="3.53785">
        <ele>196</ele>
        <time>2015-04-30T07:00:52Z</time>
      </trkpt>
      <trkpt lat="43.70474" lon="3.53836">
        <ele>195</ele>
        <time>2015-04-30T07:01:09Z</time>
      </trkpt>
      <trkpt lat="43.70475" lon="3.5388">
        <ele>193</ele>
        <time>2015-04-30T07:01:25Z</time>
      </trkpt>
      <trkpt lat="43.70487" lon="3.53925">
        <ele>197</ele>
        <time>2015-04-30T07:01:43Z</time>
      </trkpt>
      <trkpt lat="43.70501" lon="3.53964">
        <ele>210</ele>
        <time>2015-04-30T07:01:59Z</time>
      </trkpt>
      <trkpt lat="43.70517" lon="3.54002">
        <ele>205</ele>
        <time>2015-04-30T07:02:16Z</time>
      </trkpt>
      <trkpt lat="43.70537" lon="3.54037">
        <ele>209</ele>
        <time>2015-04-30T07:02:33Z</time>
      </trkpt>
      <trkpt lat="43.70553" lon="3.54082">
        <ele>212</ele>
        <time>2015-04-30T07:02:52Z</time>
      </trkpt>
      <trkpt lat="43.70566" lon="3.54124">
        <ele>208</ele>
        <time>2015-04-30T07:03:10Z</time>
      </trkpt>
      <trkpt lat="43.70584" lon="3.54154">
        <ele>216</ele>
        <time>2015-04-30T07:03:25Z</time>
      </trkpt>
      <trkpt lat="43.70617" lon="3.54175">
        <ele>210</ele>
        <time>2015-04-30T07:03:44Z</time>
      </trkpt>
      <trkpt lat="43.7065" lon="3.5418">
        <ele>214</ele>
        <time>2015-04-30T07:04:02Z</time>
      </trkpt>
      <trkpt lat="43.70676" lon="3.54176">
        <ele>218</ele>
        <time>2015-04-30T07:04:16Z</time>
      </trkpt>
      <trkpt lat="43.70703" lon="3.5417">
        <ele>217</ele>
        <time>2015-04-30T07:04:31Z</time>
      </trkpt>
      <trkpt lat="43.70734" lon="3.54158">
        <ele>228</ele>
        <time>2015-04-30T07:04:48Z</time>
      </trkpt>
      <trkpt lat="43.70766" lon="3.54147">
        <ele>229</ele>
        <time>2015-04-30T07:05:05Z</time>
      </trkpt>
      <trkpt lat="43.70768" lon="3.54146">
        <ele>229</ele>
        <time>2015-04-30T07:05:06Z</time>
      </trkpt>
      <trkpt lat="43.70763" lon="3.54138">
        <ele>230</ele>
        <time>2015-04-30T07:05:11Z</time>
      </trkpt>
      <trkpt lat="43.70736" lon="3.54145">
        <ele>230</ele>
        <time>2015-04-30T07:05:25Z</time>
      </trkpt>
      <trkpt lat="43.70712" lon="3.54132">
        <ele>232</ele>
        <time>2015-04-30T07:05:40Z</time>
      </trkpt>
      <trkpt lat="43.70691" lon="3.5412">
        <ele>233</ele>
        <time>2015-04-30T07:05:54Z</time>
      </trkpt>
      <trkpt lat="43.70674" lon="3.54105">
        <ele>235</ele>
        <time>2015-04-30T07:06:07Z</time>
      </trkpt>
      <trkpt lat="43.70662" lon="3.54075">
        <ele>238</ele>
        <time>2015-04-30T07:06:22Z</time>
      </trkpt>
      <trkpt lat="43.70656" lon="3.54048">
        <ele>237</ele>
        <time>2015-04-30T07:06:35Z</time>
      </trkpt>
      <trkpt lat="43.70649" lon="3.54015">
        <ele>240</ele>
        <time>2015-04-30T07:06:50Z</time>
      </trkpt>
      <trkpt lat="43.70642" lon="3.53979">
        <ele>243</ele>
        <time>2015-04-30T07:07:07Z</time>
      </trkpt>
      <trkpt lat="43.70636" lon="3.53948">
        <ele>244</ele>
        <time>2015-04-30T07:07:21Z</time>
      </trkpt>
      <trkpt lat="43.70633" lon="3.53913">
        <ele>249</ele>
        <time>2015-04-30T07:07:36Z</time>
      </trkpt>
      <trkpt lat="43.70631" lon="3.53876">
        <ele>248</ele>
        <time>2015-04-30T07:07:52Z</time>
      </trkpt>
      <trkpt lat="43.70635" lon="3.53837">
        <ele>251</ele>
        <time>2015-04-30T07:08:10Z</time>
      </trkpt>
      <trkpt lat="43.70644" lon="3.53804">
        <ele>252</ele>
        <time>2015-04-30T07:08:25Z</time>
      </trkpt>
      <trkpt lat="43.70653" lon="3.53773">
        <ele>254</ele>
        <time>2015-04-30T07:08:41Z</time>
      </trkpt>
      <trkpt lat="43.7066" lon="3.53755">
        <ele>258</ele>
        <time>2015-04-30T07:08:50Z</time>
      </trkpt>
      <trkpt lat="43.70672" lon="3.53721">
        <ele>267</ele>
        <time>2015-04-30T07:09:10Z</time>
      </trkpt>
      <trkpt lat="43.70688" lon="3.53691">
        <ele>267</ele>
        <time>2015-04-30T07:09:28Z</time>
      </trkpt>
      <trkpt lat="43.70701" lon="3.53665">
        <ele>262</ele>
        <time>2015-04-30T07:09:44Z</time>
      </trkpt>
      <trkpt lat="43.7072" lon="3.53644">
        <ele>263</ele>
        <time>2015-04-30T07:10:01Z</time>
      </trkpt>
      <trkpt lat="43.7074" lon="3.53637">
        <ele>264</ele>
        <time>2015-04-30T07:10:15Z</time>
      </trkpt>
      <trkpt lat="43.70758" lon="3.53646">
        <ele>269</ele>
        <time>2015-04-30T07:10:27Z</time>
      </trkpt>
      <trkpt lat="43.7077" lon="3.53653">
        <ele>270</ele>
        <time>2015-04-30T07:10:36Z</time>
      </trkpt>
      <trkpt lat="43.70774" lon="3.53652">
        <ele>269</ele>
        <time>2015-04-30T07:10:39Z</time>
      </trkpt>
      <trkpt lat="43.70792" lon="3.5366">
        <ele>270</ele>
        <time>2015-04-30T07:10:54Z</time>
      </trkpt>
      <trkpt lat="43.70792" lon="3.53662">
        <ele>270</ele>
        <time>2015-04-30T07:10:55Z</time>
      </trkpt>
      <trkpt lat="43.70782" lon="3.5367">
        <ele>279</ele>
        <time>2015-04-30T07:11:02Z</time>
      </trkpt>
      <trkpt lat="43.70759" lon="3.53684">
        <ele>278</ele>
        <time>2015-04-30T07:11:18Z</time>
      </trkpt>
      <trkpt lat="43.70752" lon="3.53718">
        <ele>281</ele>
        <time>2015-04-30T07:11:35Z</time>
      </trkpt>
      <trkpt lat="43.70756" lon="3.53749">
        <ele>283</ele>
        <time>2015-04-30T07:11:51Z</time>
      </trkpt>
      <trkpt lat="43.70764" lon="3.53774">
        <ele>286</ele>
        <time>2015-04-30T07:12:05Z</time>
      </trkpt>
      <trkpt lat="43.70773" lon="3.53805">
        <ele>287</ele>
        <time>2015-04-30T07:12:22Z</time>
      </trkpt>
      <trkpt lat="43.70787" lon="3.53829">
        <ele>287</ele>
        <time>2015-04-30T07:12:38Z</time>
      </trkpt>
      <trkpt lat="43.70793" lon="3.53831">
        <ele>288</ele>
        <time>2015-04-30T07:12:42Z</time>
      </trkpt>
      <trkpt lat="43.70822" lon="3.53824">
        <ele>290</ele>
        <time>2015-04-30T07:13:00Z</time>
      </trkpt>
      <trkpt lat="43.70853" lon="3.53822">
        <ele>293</ele>
        <time>2015-04-30T07:13:15Z</time>
      </trkpt>
      <trkpt lat="43.70887" lon="3.53817">
        <ele>294</ele>
        <time>2015-04-30T07:13:32Z</time>
      </trkpt>
      <trkpt lat="43.70919" lon="3.53812">
        <ele>298</ele>
        <time>2015-04-30T07:13:47Z</time>
      </trkpt>
      <trkpt lat="43.70945" lon="3.53809">
        <ele>299</ele>
        <time>2015-04-30T07:14:02Z</time>
      </trkpt>
      <trkpt lat="43.70971" lon="3.53804">
        <ele>300</ele>
        <time>2015-04-30T07:14:19Z</time>
      </trkpt>
      <trkpt lat="43.70997" lon="3.538">
        <ele>301</ele>
        <time>2015-04-30T07:14:36Z</time>
      </trkpt>
      <trkpt lat="43.7102" lon="3.53798">
        <ele>306</ele>
        <time>2015-04-30T07:14:52Z</time>
      </trkpt>
      <trkpt lat="43.7105" lon="3.53794">
        <ele>307</ele>
        <time>2015-04-30T07:15:11Z</time>
      </trkpt>
      <trkpt lat="43.71079" lon="3.53792">
        <ele>307</ele>
        <time>2015-04-30T07:15:29Z</time>
      </trkpt>
      <trkpt lat="43.71106" lon="3.53785">
        <ele>312</ele>
        <time>2015-04-30T07:15:46Z</time>
      </trkpt>
      <trkpt lat="43.71123" lon="3.53786">
        <ele>312</ele>
        <time>2015-04-30T07:15:57Z</time>
      </trkpt>
      <trkpt lat="43.71147" lon="3.53783">
        <ele>313</ele>
        <time>2015-04-30T07:16:14Z</time>
      </trkpt>
      <trkpt lat="43.71169" lon="3.53778">
        <ele>317</ele>
        <time>2015-04-30T07:16:29Z</time>
      </trkpt>
      <trkpt lat="43.71195" lon="3.53774">
        <ele>318</ele>
        <time>2015-04-30T07:16:46Z</time>
      </trkpt>
      <trkpt lat="43.71218" lon="3.5377">
        <ele>319</ele>
        <time>2015-04-30T07:17:02Z</time>
      </trkpt>
      <trkpt lat="43.71242" lon="3.53769">
        <ele>320</ele>
        <time>2015-04-30T07:17:18Z</time>
      </trkpt>
      <trkpt lat="43.71272" lon="3.53765">
        <ele>324</ele>
        <time>2015-04-30T07:17:38Z</time>
      </trkpt>
      <trkpt lat="43.71306" lon="3.53762">
        <ele>326</ele>
        <time>2015-04-30T07:17:55Z</time>
      </trkpt>
      <trkpt lat="43.71342" lon="3.53757">
        <ele>331</ele>
        <time>2015-04-30T07:18:15Z</time>
      </trkpt>
      <trkpt lat="43.71366" lon="3.53755">
        <ele>333</ele>
        <time>2015-04-30T07:18:31Z</time>
      </trkpt>
      <trkpt lat="43.71369" lon="3.53754">
        <ele>334</ele>
        <time>2015-04-30T07:18:33Z</time>
      </trkpt>
      <trkpt lat="43.71374" lon="3.53754">
        <ele>334</ele>
        <time>2015-04-30T07:18:37Z</time>
      </trkpt>
      <trkpt lat="43.71399" lon="3.5375">
        <ele>335</ele>
        <time>2015-04-30T07:18:57Z</time>
      </trkpt>
      <trkpt lat="43.714" lon="3.53749">
        <ele>335</ele>
        <time>2015-04-30T07:18:58Z</time>
      </trkpt>
      <trkpt lat="43.71422" lon="3.53745">
        <ele>339</ele>
        <time>2015-04-30T07:19:15Z</time>
      </trkpt>
      <trkpt lat="43.71442" lon="3.5374">
        <ele>340</ele>
        <time>2015-04-30T07:19:31Z</time>
      </trkpt>
      <trkpt lat="43.71464" lon="3.53736">
        <ele>342</ele>
        <time>2015-04-30T07:19:48Z</time>
      </trkpt>
      <trkpt lat="43.71475" lon="3.53736">
        <ele>342</ele>
        <time>2015-04-30T07:20:02Z</time>
      </trkpt>
      <trkpt lat="43.71478" lon="3.53737">
        <ele>343</ele>
        <time>2015-04-30T07:20:17Z</time>
      </trkpt>
      <trkpt lat="43.71475" lon="3.53738">
        <ele>342</ele>
        <time>2015-04-30T07:20:53Z</time>
      </trkpt>
      <trkpt lat="43.71477" lon="3.53736">
        <ele>342</ele>
        <time>2015-04-30T07:21:09Z</time>
      </trkpt>
      <trkpt lat="43.71477" lon="3.53735">
        <ele>342</ele>
        <time>2015-04-30T07:21:35Z</time>
      </trkpt>
      <trkpt lat="43.71478" lon="3.53738">
        <ele>343</ele>
        <time>2015-04-30T07:22:14Z</time>
      </trkpt>
      <trkpt lat="43.71477" lon="3.53735">
        <ele>342</ele>
        <time>2015-04-30T07:22:46Z</time>
      </trkpt>
      <trkpt lat="43.7148" lon="3.53731">
        <ele>342</ele>
        <time>2015-04-30T07:23:02Z</time>
      </trkpt>
      <trkpt lat="43.7149" lon="3.5373">
        <ele>343</ele>
        <time>2015-04-30T07:23:25Z</time>
      </trkpt>
      <trkpt lat="43.7151" lon="3.53726">
        <ele>346</ele>
        <time>2015-04-30T07:23:38Z</time>
      </trkpt>
      <trkpt lat="43.71541" lon="3.53728">
        <ele>347</ele>
        <time>2015-04-30T07:23:53Z</time>
      </trkpt>
      <trkpt lat="43.71576" lon="3.53735">
        <ele>348</ele>
        <time>2015-04-30T07:24:08Z</time>
      </trkpt>
      <trkpt lat="43.71609" lon="3.5374">
        <ele>349</ele>
        <time>2015-04-30T07:24:22Z</time>
      </trkpt>
      <trkpt lat="43.71621" lon="3.53742">
        <ele>349</ele>
        <time>2015-04-30T07:24:29Z</time>
      </trkpt>
      <trkpt lat="43.71657" lon="3.5375">
        <ele>350</ele>
        <time>2015-04-30T07:24:43Z</time>
      </trkpt>
      <trkpt lat="43.71701" lon="3.53755">
        <ele>351</ele>
        <time>2015-04-30T07:24:57Z</time>
      </trkpt>
      <trkpt lat="43.7175" lon="3.53747">
        <ele>351</ele>
        <time>2015-04-30T07:25:10Z</time>
      </trkpt>
      <trkpt lat="43.71821" lon="3.5373">
        <ele>349</ele>
        <time>2015-04-30T07:25:27Z</time>
      </trkpt>
      <trkpt lat="43.71872" lon="3.53719">
        <ele>349</ele>
        <time>2015-04-30T07:25:41Z</time>
      </trkpt>
      <trkpt lat="43.71928" lon="3.53705">
        <ele>349</ele>
        <time>2015-04-30T07:25:56Z</time>
      </trkpt>
      <trkpt lat="43.72029" lon="3.5368">
        <ele>350</ele>
        <time>2015-04-30T07:26:24Z</time>
      </trkpt>
      <trkpt lat="43.72066" lon="3.53669">
        <ele>351</ele>
        <time>2015-04-30T07:26:36Z</time>
      </trkpt>
      <trkpt lat="43.72107" lon="3.53657">
        <ele>351</ele>
        <time>2015-04-30T07:26:52Z</time>
      </trkpt>
      <trkpt lat="43.72125" lon="3.5365">
        <ele>351</ele>
        <time>2015-04-30T07:27:05Z</time>
      </trkpt>
      <trkpt lat="43.72136" lon="3.53646">
        <ele>351</ele>
        <time>2015-04-30T07:27:14Z</time>
      </trkpt>
      <trkpt lat="43.72144" lon="3.53645">
        <ele>351</ele>
        <time>2015-04-30T07:27:18Z</time>
      </trkpt>
      <trkpt lat="43.72174" lon="3.53634">
        <ele>349</ele>
        <time>2015-04-30T07:27:33Z</time>
      </trkpt>
      <trkpt lat="43.72179" lon="3.53625">
        <ele>349</ele>
        <time>2015-04-30T07:27:46Z</time>
      </trkpt>
      <trkpt lat="43.72177" lon="3.53625">
        <ele>349</ele>
        <time>2015-04-30T07:28:05Z</time>
      </trkpt>
      <trkpt lat="43.72173" lon="3.53627">
        <ele>349</ele>
        <time>2015-04-30T07:28:17Z</time>
      </trkpt>
      <trkpt lat="43.72167" lon="3.53634">
        <ele>349</ele>
        <time>2015-04-30T07:28:22Z</time>
      </trkpt>
      <trkpt lat="43.72136" lon="3.53645">
        <ele>351</ele>
        <time>2015-04-30T07:28:37Z</time>
      </trkpt>
      <trkpt lat="43.721" lon="3.53659">
        <ele>351</ele>
        <time>2015-04-30T07:28:49Z</time>
      </trkpt>
      <trkpt lat="43.72065" lon="3.53671">
        <ele>351</ele>
        <time>2015-04-30T07:29:03Z</time>
      </trkpt>
      <trkpt lat="43.72032" lon="3.5368">
        <ele>351</ele>
        <time>2015-04-30T07:29:15Z</time>
      </trkpt>
      <trkpt lat="43.71961" lon="3.537">
        <ele>350</ele>
        <time>2015-04-30T07:29:42Z</time>
      </trkpt>
      <trkpt lat="43.71937" lon="3.53704">
        <ele>349</ele>
        <time>2015-04-30T07:29:57Z</time>
      </trkpt>
      <trkpt lat="43.71925" lon="3.53708">
        <ele>349</ele>
        <time>2015-04-30T07:30:05Z</time>
      </trkpt>
      <trkpt lat="43.71916" lon="3.53708">
        <ele>349</ele>
        <time>2015-04-30T07:30:12Z</time>
      </trkpt>
      <trkpt lat="43.71886" lon="3.53715">
        <ele>349</ele>
        <time>2015-04-30T07:30:31Z</time>
      </trkpt>
      <trkpt lat="43.71995" lon="3.53689">
        <ele>350</ele>
        <time>2015-04-30T07:32:28Z</time>
      </trkpt>
      <trkpt lat="43.72188" lon="3.53625">
        <ele>348</ele>
      </trkpt>
      <trkpt lat="43.72207" lon="3.53663">
        <ele>346</ele>
      </trkpt>
      <trkpt lat="43.72158" lon="3.53738">
        <ele>348</ele>
      </trkpt>
      <trkpt lat="43.72142" lon="3.53794">
        <ele>350</ele>
      </trkpt>
      <trkpt lat="43.72155" lon="3.53865">
        <ele>352</ele>
      </trkpt>
      <trkpt lat="43.72164" lon="3.53921">
        <ele>351</ele>
      </trkpt>
      <trkpt lat="43.72153" lon="3.53944">
        <ele>350</ele>
      </trkpt>
      <trkpt lat="43.72185" lon="3.5397">
        <ele>327</ele>
      </trkpt>
      <trkpt lat="43.72179" lon="3.53959">
        <ele>328</ele>
        <time>2015-04-30T07:53:20Z</time>
      </trkpt>
      <trkpt lat="43.72176" lon="3.53959">
        <ele>329</ele>
        <time>2015-04-30T07:53:23Z</time>
      </trkpt>
      <trkpt lat="43.72164" lon="3.53959">
        <ele>349</ele>
        <time>2015-04-30T07:53:38Z</time>
      </trkpt>
      <trkpt lat="43.72161" lon="3.53956">
        <ele>349</ele>
        <time>2015-04-30T07:53:41Z</time>
      </trkpt>
      <trkpt lat="43.72156" lon="3.53947">
        <ele>350</ele>
        <time>2015-04-30T07:53:54Z</time>
      </trkpt>
      <trkpt lat="43.72155" lon="3.53944">
        <ele>350</ele>
        <time>2015-04-30T07:53:56Z</time>
      </trkpt>
      <trkpt lat="43.72154" lon="3.53938">
        <ele>350</ele>
        <time>2015-04-30T07:54:01Z</time>
      </trkpt>
      <trkpt lat="43.72155" lon="3.53932">
        <ele>350</ele>
        <time>2015-04-30T07:54:07Z</time>
      </trkpt>
      <trkpt lat="43.72163" lon="3.53922">
        <ele>351</ele>
        <time>2015-04-30T07:54:13Z</time>
      </trkpt>
      <trkpt lat="43.72162" lon="3.53912">
        <ele>351</ele>
        <time>2015-04-30T07:54:17Z</time>
      </trkpt>
      <trkpt lat="43.72158" lon="3.53871">
        <ele>352</ele>
        <time>2015-04-30T07:54:31Z</time>
      </trkpt>
      <trkpt lat="43.72145" lon="3.53821">
        <ele>350</ele>
        <time>2015-04-30T07:54:44Z</time>
      </trkpt>
      <trkpt lat="43.72147" lon="3.53796">
        <ele>350</ele>
        <time>2015-04-30T07:54:51Z</time>
      </trkpt>
      <trkpt lat="43.72146" lon="3.53773">
        <ele>350</ele>
        <time>2015-04-30T07:54:57Z</time>
      </trkpt>
      <trkpt lat="43.72153" lon="3.5375">
        <ele>348</ele>
        <time>2015-04-30T07:55:05Z</time>
      </trkpt>
      <trkpt lat="43.72154" lon="3.53747">
        <ele>348</ele>
        <time>2015-04-30T07:55:06Z</time>
      </trkpt>
      <trkpt lat="43.7217" lon="3.53722">
        <ele>341</ele>
        <time>2015-04-30T07:55:16Z</time>
      </trkpt>
      <trkpt lat="43.72188" lon="3.53696">
        <ele>340</ele>
        <time>2015-04-30T07:55:25Z</time>
      </trkpt>
      <trkpt lat="43.72189" lon="3.53699">
        <ele>340</ele>
        <time>2015-04-30T07:55:48Z</time>
      </trkpt>
      <trkpt lat="43.72188" lon="3.53696">
        <ele>340</ele>
        <time>2015-04-30T07:56:08Z</time>
      </trkpt>
      <trkpt lat="43.72184" lon="3.53701">
        <ele>340</ele>
        <time>2015-04-30T07:56:28Z</time>
      </trkpt>
      <trkpt lat="43.72184" lon="3.537">
        <ele>340</ele>
        <time>2015-04-30T07:56:50Z</time>
      </trkpt>
      <trkpt lat="43.72188" lon="3.53691">
        <ele>341</ele>
        <time>2015-04-30T07:57:06Z</time>
      </trkpt>
      <trkpt lat="43.72192" lon="3.53685">
        <ele>341</ele>
        <time>2015-04-30T07:57:16Z</time>
      </trkpt>
      <trkpt lat="43.72193" lon="3.53673">
        <ele>342</ele>
        <time>2015-04-30T07:57:23Z</time>
      </trkpt>
      <trkpt lat="43.72196" lon="3.53667">
        <ele>341</ele>
        <time>2015-04-30T07:57:27Z</time>
      </trkpt>
      <trkpt lat="43.72198" lon="3.53662">
        <ele>347</ele>
        <time>2015-04-30T07:57:31Z</time>
      </trkpt>
      <trkpt lat="43.72202" lon="3.5364">
        <ele>347</ele>
        <time>2015-04-30T07:57:46Z</time>
      </trkpt>
      <trkpt lat="43.72185" lon="3.53632">
        <ele>348</ele>
        <time>2015-04-30T07:57:55Z</time>
      </trkpt>
      <trkpt lat="43.72153" lon="3.53641">
        <ele>351</ele>
        <time>2015-04-30T07:58:10Z</time>
      </trkpt>
      <trkpt lat="43.72123" lon="3.53654">
        <ele>351</ele>
        <time>2015-04-30T07:58:23Z</time>
      </trkpt>
      <trkpt lat="43.72106" lon="3.5366">
        <ele>351</ele>
        <time>2015-04-30T07:58:36Z</time>
      </trkpt>
      <trkpt lat="43.72105" lon="3.5366">
        <ele>351</ele>
        <time>2015-04-30T07:59:06Z</time>
      </trkpt>
      <trkpt lat="43.72105" lon="3.5366">
        <ele>351</ele>
        <time>2015-04-30T07:59:34Z</time>
      </trkpt>
      <trkpt lat="43.72107" lon="3.53662">
        <ele>351</ele>
        <time>2015-04-30T08:00:03Z</time>
      </trkpt>
      <trkpt lat="43.72104" lon="3.53658">
        <ele>351</ele>
        <time>2015-04-30T08:00:29Z</time>
      </trkpt>
      <trkpt lat="43.72105" lon="3.53659">
        <ele>351</ele>
        <time>2015-04-30T08:00:51Z</time>
      </trkpt>
      <trkpt lat="43.72105" lon="3.53661">
        <ele>351</ele>
        <time>2015-04-30T08:01:09Z</time>
      </trkpt>
      <trkpt lat="43.72105" lon="3.53659">
        <ele>351</ele>
        <time>2015-04-30T08:01:26Z</time>
      </trkpt>
      <trkpt lat="43.72109" lon="3.53659">
        <ele>351</ele>
        <time>2015-04-30T08:01:50Z</time>
      </trkpt>
      <trkpt lat="43.72107" lon="3.5366">
        <ele>351</ele>
        <time>2015-04-30T08:02:15Z</time>
      </trkpt>
      <trkpt lat="43.72105" lon="3.5366">
        <ele>351</ele>
        <time>2015-04-30T08:02:38Z</time>
      </trkpt>
      <trkpt lat="43.72104" lon="3.53659">
        <ele>351</ele>
        <time>2015-04-30T08:02:46Z</time>
      </trkpt>
      <trkpt lat="43.72085" lon="3.53649">
        <ele>351</ele>
        <time>2015-04-30T08:02:58Z</time>
      </trkpt>
      <trkpt lat="43.72092" lon="3.53612">
        <ele>350</ele>
        <time>2015-04-30T08:03:12Z</time>
      </trkpt>
      <trkpt lat="43.7211" lon="3.53588">
        <ele>350</ele>
        <time>2015-04-30T08:03:24Z</time>
      </trkpt>
      <trkpt lat="43.72137" lon="3.53558">
        <ele>351</ele>
        <time>2015-04-30T08:03:39Z</time>
      </trkpt>
      <trkpt lat="43.72153" lon="3.53541">
        <ele>352</ele>
        <time>2015-04-30T08:03:50Z</time>
      </trkpt>
      <trkpt lat="43.72166" lon="3.53535">
        <ele>352</ele>
        <time>2015-04-30T08:04:00Z</time>
      </trkpt>
      <trkpt lat="43.7217" lon="3.53543">
        <ele>353</ele>
        <time>2015-04-30T08:04:13Z</time>
      </trkpt>
      <trkpt lat="43.7217" lon="3.53544">
        <ele>353</ele>
        <time>2015-04-30T08:04:31Z</time>
      </trkpt>
      <trkpt lat="43.72164" lon="3.53544">
        <ele>352</ele>
        <time>2015-04-30T08:05:09Z</time>
      </trkpt>
      <trkpt lat="43.72167" lon="3.53542">
        <ele>353</ele>
        <time>2015-04-30T08:05:47Z</time>
      </trkpt>
      <trkpt lat="43.72161" lon="3.53539">
        <ele>352</ele>
        <time>2015-04-30T08:06:20Z</time>
      </trkpt>
      <trkpt lat="43.72164" lon="3.53536">
        <ele>352</ele>
        <time>2015-04-30T08:06:59Z</time>
      </trkpt>
      <trkpt lat="43.72167" lon="3.53543">
        <ele>353</ele>
        <time>2015-04-30T08:07:17Z</time>
      </trkpt>
      <trkpt lat="43.72168" lon="3.53544">
        <ele>353</ele>
        <time>2015-04-30T08:07:39Z</time>
      </trkpt>
      <trkpt lat="43.72167" lon="3.53541">
        <ele>354</ele>
        <time>2015-04-30T08:07:59Z</time>
      </trkpt>
      <trkpt lat="43.72168" lon="3.53537">
        <ele>354</ele>
        <time>2015-04-30T08:08:17Z</time>
      </trkpt>
      <trkpt lat="43.72174" lon="3.53529">
        <ele>354</ele>
        <time>2015-04-30T08:08:31Z</time>
      </trkpt>
      <trkpt lat="43.72179" lon="3.53522">
        <ele>354</ele>
        <time>2015-04-30T08:08:44Z</time>
      </trkpt>
      <trkpt lat="43.72197" lon="3.53503">
        <ele>354</ele>
        <time>2015-04-30T08:09:03Z</time>
      </trkpt>
      <trkpt lat="43.72213" lon="3.53481">
        <ele>358</ele>
        <time>2015-04-30T08:09:18Z</time>
      </trkpt>
      <trkpt lat="43.72231" lon="3.53458">
        <ele>359</ele>
        <time>2015-04-30T08:09:35Z</time>
      </trkpt>
      <trkpt lat="43.72241" lon="3.53431">
        <ele>361</ele>
        <time>2015-04-30T08:09:48Z</time>
      </trkpt>
      <trkpt lat="43.7224" lon="3.53421">
        <ele>362</ele>
        <time>2015-04-30T08:09:54Z</time>
      </trkpt>
      <trkpt lat="43.72233" lon="3.53384">
        <ele>363</ele>
        <time>2015-04-30T08:10:08Z</time>
      </trkpt>
      <trkpt lat="43.72229" lon="3.53348">
        <ele>365</ele>
        <time>2015-04-30T08:10:21Z</time>
      </trkpt>
      <trkpt lat="43.72228" lon="3.53307">
        <ele>367</ele>
        <time>2015-04-30T08:10:37Z</time>
      </trkpt>
      <trkpt lat="43.7223" lon="3.53299">
        <ele>367</ele>
        <time>2015-04-30T08:10:50Z</time>
      </trkpt>
      <trkpt lat="43.7223" lon="3.53273">
        <ele>368</ele>
        <time>2015-04-30T08:11:02Z</time>
      </trkpt>
      <trkpt lat="43.72219" lon="3.53235">
        <ele>366</ele>
        <time>2015-04-30T08:11:17Z</time>
      </trkpt>
      <trkpt lat="43.72224" lon="3.53227">
        <ele>366</ele>
        <time>2015-04-30T08:11:21Z</time>
      </trkpt>
      <trkpt lat="43.72232" lon="3.53234">
        <ele>368</ele>
        <time>2015-04-30T08:11:27Z</time>
      </trkpt>
      <trkpt lat="43.72256" lon="3.53254">
        <ele>376</ele>
        <time>2015-04-30T08:11:43Z</time>
      </trkpt>
      <trkpt lat="43.72274" lon="3.53281">
        <ele>377</ele>
        <time>2015-04-30T08:11:57Z</time>
      </trkpt>
      <trkpt lat="43.72292" lon="3.53312">
        <ele>377</ele>
        <time>2015-04-30T08:12:12Z</time>
      </trkpt>
      <trkpt lat="43.72316" lon="3.53325">
        <ele>378</ele>
        <time>2015-04-30T08:12:26Z</time>
      </trkpt>
      <trkpt lat="43.72333" lon="3.53321">
        <ele>379</ele>
        <time>2015-04-30T08:12:36Z</time>
      </trkpt>
      <trkpt lat="43.72362" lon="3.53312">
        <ele>380</ele>
        <time>2015-04-30T08:12:52Z</time>
      </trkpt>
      <trkpt lat="43.72386" lon="3.5331">
        <ele>378</ele>
        <time>2015-04-30T08:13:06Z</time>
      </trkpt>
      <trkpt lat="43.72391" lon="3.53306">
        <ele>378</ele>
        <time>2015-04-30T08:13:09Z</time>
      </trkpt>
      <trkpt lat="43.72388" lon="3.53299">
        <ele>380</ele>
        <time>2015-04-30T08:13:14Z</time>
      </trkpt>
      <trkpt lat="43.72358" lon="3.53285">
        <ele>382</ele>
        <time>2015-04-30T08:13:30Z</time>
      </trkpt>
      <trkpt lat="43.72339" lon="3.5325">
        <ele>388</ele>
        <time>2015-04-30T08:13:45Z</time>
      </trkpt>
      <trkpt lat="43.72331" lon="3.53209">
        <ele>386</ele>
        <time>2015-04-30T08:14:00Z</time>
      </trkpt>
      <trkpt lat="43.72327" lon="3.53165">
        <ele>392</ele>
        <time>2015-04-30T08:14:16Z</time>
      </trkpt>
      <trkpt lat="43.72326" lon="3.53115">
        <ele>388</ele>
        <time>2015-04-30T08:14:33Z</time>
      </trkpt>
      <trkpt lat="43.72336" lon="3.53068">
        <ele>403</ele>
        <time>2015-04-30T08:14:47Z</time>
      </trkpt>
      <trkpt lat="43.72338" lon="3.53052">
        <ele>405</ele>
        <time>2015-04-30T08:14:52Z</time>
      </trkpt>
      <trkpt lat="43.72352" lon="3.53017">
        <ele>405</ele>
        <time>2015-04-30T08:15:06Z</time>
      </trkpt>
      <trkpt lat="43.72372" lon="3.52978">
        <ele>408</ele>
        <time>2015-04-30T08:15:25Z</time>
      </trkpt>
      <trkpt lat="43.72388" lon="3.52945">
        <ele>410</ele>
        <time>2015-04-30T08:15:40Z</time>
      </trkpt>
      <trkpt lat="43.724" lon="3.52923">
        <ele>413</ele>
        <time>2015-04-30T08:15:51Z</time>
      </trkpt>
      <trkpt lat="43.72406" lon="3.52948">
        <ele>412</ele>
        <time>2015-04-30T08:16:01Z</time>
      </trkpt>
      <trkpt lat="43.72387" lon="3.52994">
        <ele>411</ele>
        <time>2015-04-30T08:16:16Z</time>
      </trkpt>
      <trkpt lat="43.72388" lon="3.5304">
        <ele>410</ele>
        <time>2015-04-30T08:16:32Z</time>
      </trkpt>
      <trkpt lat="43.72394" lon="3.53061">
        <ele>410</ele>
        <time>2015-04-30T08:16:45Z</time>
      </trkpt>
      <trkpt lat="43.72391" lon="3.53061">
        <ele>410</ele>
        <time>2015-04-30T08:17:18Z</time>
      </trkpt>
      <trkpt lat="43.72408" lon="3.53074">
        <ele>413</ele>
        <time>2015-04-30T08:17:30Z</time>
      </trkpt>
      <trkpt lat="43.72437" lon="3.53089">
        <ele>412</ele>
        <time>2015-04-30T08:17:47Z</time>
      </trkpt>
      <trkpt lat="43.72447" lon="3.53087">
        <ele>411</ele>
        <time>2015-04-30T08:17:53Z</time>
      </trkpt>
      <trkpt lat="43.72448" lon="3.53077">
        <ele>420</ele>
        <time>2015-04-30T08:17:58Z</time>
      </trkpt>
      <trkpt lat="43.72431" lon="3.53038">
        <ele>421</ele>
        <time>2015-04-30T08:18:13Z</time>
      </trkpt>
      <trkpt lat="43.72443" lon="3.5301">
        <ele>422</ele>
        <time>2015-04-30T08:18:26Z</time>
      </trkpt>
      <trkpt lat="43.72461" lon="3.52982">
        <ele>429</ele>
        <time>2015-04-30T08:18:43Z</time>
      </trkpt>
      <trkpt lat="43.7247" lon="3.5295">
        <ele>431</ele>
        <time>2015-04-30T08:19:00Z</time>
      </trkpt>
      <trkpt lat="43.72473" lon="3.52944">
        <ele>432</ele>
        <time>2015-04-30T08:19:04Z</time>
      </trkpt>
      <trkpt lat="43.7248" lon="3.52957">
        <ele>432</ele>
        <time>2015-04-30T08:19:15Z</time>
      </trkpt>
      <trkpt lat="43.72487" lon="3.52994">
        <ele>434</ele>
        <time>2015-04-30T08:19:32Z</time>
      </trkpt>
      <trkpt lat="43.72493" lon="3.52998">
        <ele>435</ele>
        <time>2015-04-30T08:19:37Z</time>
      </trkpt>
      <trkpt lat="43.72498" lon="3.52982">
        <ele>434</ele>
        <time>2015-04-30T08:19:47Z</time>
      </trkpt>
      <trkpt lat="43.72497" lon="3.52978">
        <ele>433</ele>
        <time>2015-04-30T08:19:49Z</time>
      </trkpt>
      <trkpt lat="43.725" lon="3.52943">
        <ele>435</ele>
        <time>2015-04-30T08:20:05Z</time>
      </trkpt>
      <trkpt lat="43.72507" lon="3.52904">
        <ele>447</ele>
        <time>2015-04-30T08:20:22Z</time>
      </trkpt>
      <trkpt lat="43.72511" lon="3.52866">
        <ele>450</ele>
        <time>2015-04-30T08:20:40Z</time>
      </trkpt>
      <trkpt lat="43.72511" lon="3.52864">
        <ele>450</ele>
        <time>2015-04-30T08:20:41Z</time>
      </trkpt>
      <trkpt lat="43.72512" lon="3.52854">
        <ele>449</ele>
        <time>2015-04-30T08:20:46Z</time>
      </trkpt>
      <trkpt lat="43.72515" lon="3.52822">
        <ele>450</ele>
        <time>2015-04-30T08:21:01Z</time>
      </trkpt>
      <trkpt lat="43.72525" lon="3.5279">
        <ele>454</ele>
        <time>2015-04-30T08:21:15Z</time>
      </trkpt>
      <trkpt lat="43.7253" lon="3.52754">
        <ele>454</ele>
        <time>2015-04-30T08:21:30Z</time>
      </trkpt>
      <trkpt lat="43.72522" lon="3.52716">
        <ele>454</ele>
        <time>2015-04-30T08:21:48Z</time>
      </trkpt>
      <trkpt lat="43.72531" lon="3.5268">
        <ele>455</ele>
        <time>2015-04-30T08:22:05Z</time>
      </trkpt>
      <trkpt lat="43.72543" lon="3.52649">
        <ele>454</ele>
        <time>2015-04-30T08:22:22Z</time>
      </trkpt>
      <trkpt lat="43.7256" lon="3.52623">
        <ele>455</ele>
        <time>2015-04-30T08:22:38Z</time>
      </trkpt>
      <trkpt lat="43.72582" lon="3.52603">
        <ele>458</ele>
        <time>2015-04-30T08:22:56Z</time>
      </trkpt>
      <trkpt lat="43.726" lon="3.52577">
        <ele>466</ele>
        <time>2015-04-30T08:23:12Z</time>
      </trkpt>
      <trkpt lat="43.72622" lon="3.52548">
        <ele>469</ele>
        <time>2015-04-30T08:23:31Z</time>
      </trkpt>
      <trkpt lat="43.72641" lon="3.52518">
        <ele>472</ele>
        <time>2015-04-30T08:23:49Z</time>
      </trkpt>
      <trkpt lat="43.72655" lon="3.52488">
        <ele>470</ele>
        <time>2015-04-30T08:24:05Z</time>
      </trkpt>
      <trkpt lat="43.7267" lon="3.52458">
        <ele>479</ele>
        <time>2015-04-30T08:24:21Z</time>
      </trkpt>
      <trkpt lat="43.72695" lon="3.52424">
        <ele>477</ele>
        <time>2015-04-30T08:24:42Z</time>
      </trkpt>
      <trkpt lat="43.72723" lon="3.5241">
        <ele>478</ele>
        <time>2015-04-30T08:24:57Z</time>
      </trkpt>
      <trkpt lat="43.72761" lon="3.52378">
        <ele>482</ele>
        <time>2015-04-30T08:25:16Z</time>
      </trkpt>
      <trkpt lat="43.72789" lon="3.52331">
        <ele>485</ele>
        <time>2015-04-30T08:25:33Z</time>
      </trkpt>
      <trkpt lat="43.7281" lon="3.52301">
        <ele>486</ele>
        <time>2015-04-30T08:25:47Z</time>
      </trkpt>
      <trkpt lat="43.72854" lon="3.5225">
        <ele>497</ele>
        <time>2015-04-30T08:26:04Z</time>
      </trkpt>
      <trkpt lat="43.72882" lon="3.52228">
        <ele>500</ele>
        <time>2015-04-30T08:26:13Z</time>
      </trkpt>
      <trkpt lat="43.729" lon="3.52223">
        <ele>500</ele>
        <time>2015-04-30T08:26:17Z</time>
      </trkpt>
      <trkpt lat="43.72907" lon="3.52246">
        <ele>499</ele>
        <time>2015-04-30T08:26:23Z</time>
      </trkpt>
      <trkpt lat="43.7289" lon="3.5229">
        <ele>495</ele>
        <time>2015-04-30T08:26:35Z</time>
      </trkpt>
      <trkpt lat="43.72878" lon="3.52356">
        <ele>490</ele>
        <time>2015-04-30T08:26:50Z</time>
      </trkpt>
      <trkpt lat="43.72895" lon="3.52378">
        <ele>491</ele>
        <time>2015-04-30T08:26:59Z</time>
      </trkpt>
      <trkpt lat="43.72939" lon="3.52377">
        <ele>504</ele>
        <time>2015-04-30T08:27:12Z</time>
      </trkpt>
      <trkpt lat="43.72957" lon="3.5238">
        <ele>506</ele>
        <time>2015-04-30T08:27:17Z</time>
      </trkpt>
      <trkpt lat="43.72975" lon="3.52405">
        <ele>509</ele>
        <time>2015-04-30T08:27:26Z</time>
      </trkpt>
      <trkpt lat="43.72969" lon="3.52412">
        <ele>508</ele>
        <time>2015-04-30T08:27:28Z</time>
      </trkpt>
      <trkpt lat="43.72939" lon="3.52451">
        <ele>504</ele>
        <time>2015-04-30T08:27:41Z</time>
      </trkpt>
      <trkpt lat="43.72938" lon="3.52479">
        <ele>503</ele>
        <time>2015-04-30T08:27:56Z</time>
      </trkpt>
      <trkpt lat="43.72938" lon="3.52499">
        <ele>502</ele>
        <time>2015-04-30T08:28:08Z</time>
      </trkpt>
      <trkpt lat="43.72936" lon="3.52508">
        <ele>502</ele>
        <time>2015-04-30T08:28:14Z</time>
      </trkpt>
      <trkpt lat="43.72936" lon="3.52511">
        <ele>502</ele>
        <time>2015-04-30T08:28:16Z</time>
      </trkpt>
      <trkpt lat="43.72937" lon="3.52517">
        <ele>503</ele>
        <time>2015-04-30T08:28:29Z</time>
      </trkpt>
      <trkpt lat="43.72936" lon="3.52519">
        <ele>503</ele>
        <time>2015-04-30T08:28:42Z</time>
      </trkpt>
      <trkpt lat="43.72934" lon="3.5254">
        <ele>504</ele>
        <time>2015-04-30T08:28:58Z</time>
      </trkpt>
      <trkpt lat="43.72934" lon="3.52544">
        <ele>504</ele>
        <time>2015-04-30T08:29:00Z</time>
      </trkpt>
      <trkpt lat="43.72937" lon="3.52571">
        <ele>502</ele>
        <time>2015-04-30T08:29:17Z</time>
      </trkpt>
      <trkpt lat="43.72945" lon="3.52583">
        <ele>499</ele>
        <time>2015-04-30T08:29:26Z</time>
      </trkpt>
      <trkpt lat="43.72951" lon="3.52584">
        <ele>500</ele>
        <time>2015-04-30T08:29:30Z</time>
      </trkpt>
      <trkpt lat="43.72953" lon="3.52585">
        <ele>500</ele>
        <time>2015-04-30T08:29:32Z</time>
      </trkpt>
      <trkpt lat="43.72966" lon="3.52586">
        <ele>502</ele>
        <time>2015-04-30T08:29:42Z</time>
      </trkpt>
      <trkpt lat="43.72979" lon="3.52584">
        <ele>505</ele>
        <time>2015-04-30T08:29:51Z</time>
      </trkpt>
      <trkpt lat="43.72983" lon="3.52583">
        <ele>511</ele>
        <time>2015-04-30T08:29:55Z</time>
      </trkpt>
      <trkpt lat="43.73002" lon="3.52577">
        <ele>517</ele>
        <time>2015-04-30T08:30:10Z</time>
      </trkpt>
      <trkpt lat="43.73006" lon="3.52576">
        <ele>518</ele>
        <time>2015-04-30T08:30:13Z</time>
      </trkpt>
      <trkpt lat="43.73012" lon="3.52575">
        <ele>519</ele>
        <time>2015-04-30T08:30:18Z</time>
      </trkpt>
      <trkpt lat="43.73021" lon="3.52575">
        <ele>521</ele>
        <time>2015-04-30T08:30:26Z</time>
      </trkpt>
      <trkpt lat="43.73042" lon="3.52578">
        <ele>525</ele>
        <time>2015-04-30T08:30:43Z</time>
      </trkpt>
      <trkpt lat="43.7306" lon="3.52583">
        <ele>527</ele>
        <time>2015-04-30T08:30:58Z</time>
      </trkpt>
      <trkpt lat="43.73073" lon="3.52589">
        <ele>524</ele>
        <time>2015-04-30T08:31:09Z</time>
      </trkpt>
      <trkpt lat="43.73092" lon="3.52611">
        <ele>529</ele>
        <time>2015-04-30T08:31:27Z</time>
      </trkpt>
      <trkpt lat="43.73099" lon="3.52626">
        <ele>528</ele>
        <time>2015-04-30T08:31:37Z</time>
      </trkpt>
      <trkpt lat="43.73102" lon="3.52631">
        <ele>528</ele>
        <time>2015-04-30T08:31:40Z</time>
      </trkpt>
      <trkpt lat="43.73119" lon="3.52644">
        <ele>529</ele>
        <time>2015-04-30T08:31:54Z</time>
      </trkpt>
      <trkpt lat="43.73141" lon="3.52659">
        <ele>531</ele>
        <time>2015-04-30T08:32:12Z</time>
      </trkpt>
      <trkpt lat="43.73163" lon="3.52669">
        <ele>533</ele>
        <time>2015-04-30T08:32:28Z</time>
      </trkpt>
      <trkpt lat="43.73184" lon="3.52684">
        <ele>536</ele>
        <time>2015-04-30T08:32:45Z</time>
      </trkpt>
      <trkpt lat="43.73204" lon="3.52696">
        <ele>537</ele>
        <time>2015-04-30T08:33:00Z</time>
      </trkpt>
      <trkpt lat="43.73224" lon="3.52709">
        <ele>537</ele>
        <time>2015-04-30T08:33:17Z</time>
      </trkpt>
      <trkpt lat="43.73245" lon="3.52722">
        <ele>538</ele>
        <time>2015-04-30T08:33:34Z</time>
      </trkpt>
      <trkpt lat="43.73257" lon="3.52711">
        <ele>542</ele>
        <time>2015-04-30T08:33:48Z</time>
      </trkpt>
      <trkpt lat="43.73265" lon="3.5268">
        <ele>543</ele>
        <time>2015-04-30T08:34:05Z</time>
      </trkpt>
      <trkpt lat="43.73274" lon="3.52649">
        <ele>546</ele>
        <time>2015-04-30T08:34:23Z</time>
      </trkpt>
      <trkpt lat="43.73284" lon="3.52609">
        <ele>548</ele>
        <time>2015-04-30T08:34:42Z</time>
      </trkpt>
      <trkpt lat="43.73295" lon="3.52573">
        <ele>552</ele>
        <time>2015-04-30T08:34:57Z</time>
      </trkpt>
      <trkpt lat="43.73306" lon="3.52534">
        <ele>553</ele>
        <time>2015-04-30T08:35:13Z</time>
      </trkpt>
      <trkpt lat="43.73327" lon="3.52499">
        <ele>554</ele>
        <time>2015-04-30T08:35:29Z</time>
      </trkpt>
      <trkpt lat="43.73362" lon="3.52448">
        <ele>554</ele>
        <time>2015-04-30T08:35:47Z</time>
      </trkpt>
      <trkpt lat="43.73395" lon="3.52403">
        <ele>557</ele>
        <time>2015-04-30T08:36:04Z</time>
      </trkpt>
      <trkpt lat="43.73419" lon="3.52375">
        <ele>550</ele>
        <time>2015-04-30T08:36:17Z</time>
      </trkpt>
      <trkpt lat="43.73432" lon="3.52357">
        <ele>550</ele>
        <time>2015-04-30T08:36:22Z</time>
      </trkpt>
      <trkpt lat="43.73446" lon="3.5234">
        <ele>548</ele>
        <time>2015-04-30T08:36:26Z</time>
      </trkpt>
      <trkpt lat="43.73472" lon="3.52295">
        <ele>546</ele>
        <time>2015-04-30T08:36:33Z</time>
      </trkpt>
      <trkpt lat="43.73484" lon="3.52274">
        <ele>545</ele>
        <time>2015-04-30T08:36:36Z</time>
      </trkpt>
      <trkpt lat="43.73493" lon="3.52251">
        <ele>542</ele>
        <time>2015-04-30T08:36:39Z</time>
      </trkpt>
      <trkpt lat="43.73497" lon="3.52229">
        <ele>547</ele>
        <time>2015-04-30T08:36:42Z</time>
      </trkpt>
      <trkpt lat="43.73499" lon="3.52222">
        <ele>548</ele>
        <time>2015-04-30T08:36:43Z</time>
      </trkpt>
      <trkpt lat="43.73526" lon="3.52186">
        <ele>530</ele>
        <time>2015-04-30T08:36:49Z</time>
      </trkpt>
      <trkpt lat="43.73544" lon="3.52164">
        <ele>526</ele>
        <time>2015-04-30T08:36:53Z</time>
      </trkpt>
      <trkpt lat="43.73538" lon="3.52142">
        <ele>526</ele>
        <time>2015-04-30T08:36:56Z</time>
      </trkpt>
      <trkpt lat="43.73516" lon="3.521">
        <ele>532</ele>
        <time>2015-04-30T08:37:01Z</time>
      </trkpt>
      <trkpt lat="43.73507" lon="3.52057">
        <ele>529</ele>
        <time>2015-04-30T08:37:06Z</time>
      </trkpt>
      <trkpt lat="43.73505" lon="3.5205">
        <ele>529</ele>
        <time>2015-04-30T08:37:07Z</time>
      </trkpt>
      <trkpt lat="43.73521" lon="3.52029">
        <ele>525</ele>
        <time>2015-04-30T09:28:06Z</time>
      </trkpt>
      <trkpt lat="43.73528" lon="3.51991">
        <ele>524</ele>
        <time>2015-04-30T09:28:19Z</time>
      </trkpt>
      <trkpt lat="43.73533" lon="3.51961">
        <ele>520</ele>
        <time>2015-04-30T09:28:24Z</time>
      </trkpt>
      <trkpt lat="43.73537" lon="3.51948">
        <ele>519</ele>
        <time>2015-04-30T09:28:26Z</time>
      </trkpt>
      <trkpt lat="43.73539" lon="3.51933">
        <ele>519</ele>
        <time>2015-04-30T09:28:28Z</time>
      </trkpt>
      <trkpt lat="43.73551" lon="3.51882">
        <ele>516</ele>
        <time>2015-04-30T09:28:34Z</time>
      </trkpt>
      <trkpt lat="43.7356" lon="3.51813">
        <ele>516</ele>
        <time>2015-04-30T09:28:43Z</time>
      </trkpt>
      <trkpt lat="43.73568" lon="3.51768">
        <ele>517</ele>
        <time>2015-04-30T09:28:52Z</time>
      </trkpt>
      <trkpt lat="43.73575" lon="3.51748">
        <ele>514</ele>
        <time>2015-04-30T09:28:57Z</time>
      </trkpt>
      <trkpt lat="43.73561" lon="3.51753">
        <ele>517</ele>
        <time>2015-04-30T09:29:03Z</time>
      </trkpt>
      <trkpt lat="43.7353" lon="3.51775">
        <ele>521</ele>
        <time>2015-04-30T09:29:12Z</time>
      </trkpt>
      <trkpt lat="43.73532" lon="3.51739">
        <ele>519</ele>
        <time>2015-04-30T09:29:19Z</time>
      </trkpt>
      <trkpt lat="43.73527" lon="3.51697">
        <ele>517</ele>
        <time>2015-04-30T09:29:27Z</time>
      </trkpt>
      <trkpt lat="43.73523" lon="3.51676">
        <ele>516</ele>
        <time>2015-04-30T09:29:30Z</time>
      </trkpt>
      <trkpt lat="43.7352" lon="3.5166">
        <ele>509</ele>
        <time>2015-04-30T09:29:32Z</time>
      </trkpt>
      <trkpt lat="43.73511" lon="3.51648">
        <ele>509</ele>
        <time>2015-04-30T09:29:34Z</time>
      </trkpt>
      <trkpt lat="43.73497" lon="3.5163">
        <ele>522</ele>
        <time>2015-04-30T09:29:37Z</time>
      </trkpt>
      <trkpt lat="43.73504" lon="3.51592">
        <ele>505</ele>
        <time>2015-04-30T09:29:42Z</time>
      </trkpt>
      <trkpt lat="43.73527" lon="3.51561">
        <ele>497</ele>
        <time>2015-04-30T09:29:47Z</time>
      </trkpt>
      <trkpt lat="43.73537" lon="3.51529">
        <ele>495</ele>
        <time>2015-04-30T09:29:51Z</time>
      </trkpt>
      <trkpt lat="43.73541" lon="3.51517">
        <ele>494</ele>
        <time>2015-04-30T09:29:53Z</time>
      </trkpt>
      <trkpt lat="43.73545" lon="3.51506">
        <ele>492</ele>
        <time>2015-04-30T09:29:55Z</time>
      </trkpt>
      <trkpt lat="43.73562" lon="3.51469">
        <ele>487</ele>
        <time>2015-04-30T09:30:01Z</time>
      </trkpt>
      <trkpt lat="43.7358" lon="3.51432">
        <ele>482</ele>
        <time>2015-04-30T09:30:07Z</time>
      </trkpt>
      <trkpt lat="43.73591" lon="3.51413">
        <ele>470</ele>
        <time>2015-04-30T09:30:10Z</time>
      </trkpt>
      <trkpt lat="43.73601" lon="3.51397">
        <ele>464</ele>
        <time>2015-04-30T09:30:13Z</time>
      </trkpt>
      <trkpt lat="43.73608" lon="3.5137">
        <ele>461</ele>
        <time>2015-04-30T09:30:17Z</time>
      </trkpt>
      <trkpt lat="43.73607" lon="3.51362">
        <ele>461</ele>
        <time>2015-04-30T09:30:18Z</time>
      </trkpt>
      <trkpt lat="43.73603" lon="3.51335">
        <ele>465</ele>
        <time>2015-04-30T09:30:21Z</time>
      </trkpt>
      <trkpt lat="43.73603" lon="3.51317">
        <ele>464</ele>
        <time>2015-04-30T09:30:23Z</time>
      </trkpt>
      <trkpt lat="43.73623" lon="3.51271">
        <ele>460</ele>
        <time>2015-04-30T09:30:28Z</time>
      </trkpt>
      <trkpt lat="43.7364" lon="3.51251">
        <ele>456</ele>
        <time>2015-04-30T09:30:31Z</time>
      </trkpt>
      <trkpt lat="43.73652" lon="3.5123">
        <ele>456</ele>
        <time>2015-04-30T09:30:34Z</time>
      </trkpt>
      <trkpt lat="43.7366" lon="3.51205">
        <ele>458</ele>
        <time>2015-04-30T09:30:37Z</time>
      </trkpt>
      <trkpt lat="43.73668" lon="3.51183">
        <ele>451</ele>
        <time>2015-04-30T09:30:41Z</time>
      </trkpt>
      <trkpt lat="43.73671" lon="3.51173">
        <ele>454</ele>
        <time>2015-04-30T09:30:43Z</time>
      </trkpt>
      <trkpt lat="43.73696" lon="3.51145">
        <ele>449</ele>
        <time>2015-04-30T09:30:50Z</time>
      </trkpt>
      <trkpt lat="43.73698" lon="3.51101">
        <ele>447</ele>
        <time>2015-04-30T09:30:56Z</time>
      </trkpt>
      <trkpt lat="43.73701" lon="3.51092">
        <ele>447</ele>
        <time>2015-04-30T09:30:57Z</time>
      </trkpt>
      <trkpt lat="43.73714" lon="3.51061">
        <ele>443</ele>
        <time>2015-04-30T09:31:01Z</time>
      </trkpt>
      <trkpt lat="43.73719" lon="3.51044">
        <ele>443</ele>
        <time>2015-04-30T09:31:03Z</time>
      </trkpt>
      <trkpt lat="43.73729" lon="3.51023">
        <ele>443</ele>
        <time>2015-04-30T09:31:06Z</time>
      </trkpt>
      <trkpt lat="43.73733" lon="3.51011">
        <ele>444</ele>
        <time>2015-04-30T09:31:08Z</time>
      </trkpt>
      <trkpt lat="43.7374" lon="3.50995">
        <ele>443</ele>
        <time>2015-04-30T09:31:11Z</time>
      </trkpt>
      <trkpt lat="43.73755" lon="3.50971">
        <ele>439</ele>
        <time>2015-04-30T09:31:15Z</time>
      </trkpt>
      <trkpt lat="43.73758" lon="3.50963">
        <ele>439</ele>
        <time>2015-04-30T09:31:16Z</time>
      </trkpt>
      <trkpt lat="43.73785" lon="3.50949">
        <ele>436</ele>
        <time>2015-04-30T09:31:21Z</time>
      </trkpt>
      <trkpt lat="43.73797" lon="3.50936">
        <ele>435</ele>
        <time>2015-04-30T09:31:23Z</time>
      </trkpt>
      <trkpt lat="43.73818" lon="3.5091">
        <ele>431</ele>
        <time>2015-04-30T09:31:27Z</time>
      </trkpt>
      <trkpt lat="43.73824" lon="3.50905">
        <ele>430</ele>
        <time>2015-04-30T09:31:28Z</time>
      </trkpt>
      <trkpt lat="43.73844" lon="3.50875">
        <ele>426</ele>
        <time>2015-04-30T09:31:33Z</time>
      </trkpt>
      <trkpt lat="43.73876" lon="3.50854">
        <ele>426</ele>
        <time>2015-04-30T09:31:40Z</time>
      </trkpt>
      <trkpt lat="43.7391" lon="3.50855">
        <ele>425</ele>
        <time>2015-04-30T09:31:47Z</time>
      </trkpt>
      <trkpt lat="43.73958" lon="3.50842">
        <ele>424</ele>
        <time>2015-04-30T09:32:01Z</time>
      </trkpt>
      <trkpt lat="43.73967" lon="3.50839">
        <ele>424</ele>
        <time>2015-04-30T09:32:03Z</time>
      </trkpt>
      <trkpt lat="43.74006" lon="3.508">
        <ele>425</ele>
        <time>2015-04-30T09:32:16Z</time>
      </trkpt>
      <trkpt lat="43.74029" lon="3.50753">
        <ele>426</ele>
        <time>2015-04-30T09:32:28Z</time>
      </trkpt>
      <trkpt lat="43.7405" lon="3.50719">
        <ele>428</ele>
        <time>2015-04-30T09:32:37Z</time>
      </trkpt>
      <trkpt lat="43.74056" lon="3.50728">
        <ele>428</ele>
        <time>2015-04-30T09:32:42Z</time>
      </trkpt>
      <trkpt lat="43.74053" lon="3.50741">
        <ele>428</ele>
        <time>2015-04-30T09:32:47Z</time>
      </trkpt>
      <trkpt lat="43.74034" lon="3.50806">
        <ele>426</ele>
        <time>2015-04-30T09:32:59Z</time>
      </trkpt>
      <trkpt lat="43.74011" lon="3.50875">
        <ele>427</ele>
        <time>2015-04-30T09:33:09Z</time>
      </trkpt>
      <trkpt lat="43.73975" lon="3.50927">
        <ele>423</ele>
        <time>2015-04-30T09:33:19Z</time>
      </trkpt>
      <trkpt lat="43.73971" lon="3.50953">
        <ele>423</ele>
        <time>2015-04-30T09:33:22Z</time>
      </trkpt>
      <trkpt lat="43.73952" lon="3.5098">
        <ele>422</ele>
        <time>2015-04-30T09:33:27Z</time>
      </trkpt>
      <trkpt lat="43.73942" lon="3.50987">
        <ele>421</ele>
        <time>2015-04-30T09:33:29Z</time>
      </trkpt>
      <trkpt lat="43.73933" lon="3.50995">
        <ele>419</ele>
        <time>2015-04-30T09:33:31Z</time>
      </trkpt>
      <trkpt lat="43.73922" lon="3.51009">
        <ele>417</ele>
        <time>2015-04-30T09:33:34Z</time>
      </trkpt>
      <trkpt lat="43.73911" lon="3.51024">
        <ele>417</ele>
        <time>2015-04-30T09:33:37Z</time>
      </trkpt>
      <trkpt lat="43.73903" lon="3.51041">
        <ele>418</ele>
        <time>2015-04-30T09:33:40Z</time>
      </trkpt>
      <trkpt lat="43.73898" lon="3.5106">
        <ele>417</ele>
        <time>2015-04-30T09:33:43Z</time>
      </trkpt>
      <trkpt lat="43.73916" lon="3.5109">
        <ele>414</ele>
        <time>2015-04-30T09:33:48Z</time>
      </trkpt>
      <trkpt lat="43.73929" lon="3.51105">
        <ele>410</ele>
        <time>2015-04-30T09:33:51Z</time>
      </trkpt>
      <trkpt lat="43.73965" lon="3.5112">
        <ele>409</ele>
        <time>2015-04-30T09:33:57Z</time>
      </trkpt>
      <trkpt lat="43.7397" lon="3.51123">
        <ele>408</ele>
        <time>2015-04-30T09:33:58Z</time>
      </trkpt>
      <trkpt lat="43.73987" lon="3.51133">
        <ele>407</ele>
        <time>2015-04-30T09:34:02Z</time>
      </trkpt>
      <trkpt lat="43.73992" lon="3.51133">
        <ele>407</ele>
        <time>2015-04-30T09:34:04Z</time>
      </trkpt>
      <trkpt lat="43.73995" lon="3.5113">
        <ele>407</ele>
        <time>2015-04-30T09:34:05Z</time>
      </trkpt>
      <trkpt lat="43.74" lon="3.5112">
        <ele>408</ele>
        <time>2015-04-30T09:34:07Z</time>
      </trkpt>
      <trkpt lat="43.74004" lon="3.5111">
        <ele>410</ele>
        <time>2015-04-30T09:34:09Z</time>
      </trkpt>
      <trkpt lat="43.7404" lon="3.51109">
        <ele>410</ele>
        <time>2015-04-30T09:34:17Z</time>
      </trkpt>
      <trkpt lat="43.74051" lon="3.51135">
        <ele>406</ele>
        <time>2015-04-30T09:34:19Z</time>
      </trkpt>
      <trkpt lat="43.74081" lon="3.51156">
        <ele>400</ele>
        <time>2015-04-30T09:34:26Z</time>
      </trkpt>
      <trkpt lat="43.74131" lon="3.51167">
        <ele>389</ele>
        <time>2015-04-30T09:34:34Z</time>
      </trkpt>
      <trkpt lat="43.74148" lon="3.51185">
        <ele>388</ele>
        <time>2015-04-30T09:34:37Z</time>
      </trkpt>
      <trkpt lat="43.74166" lon="3.51189">
        <ele>387</ele>
        <time>2015-04-30T09:34:40Z</time>
      </trkpt>
      <trkpt lat="43.74177" lon="3.51191">
        <ele>380</ele>
        <time>2015-04-30T09:34:42Z</time>
      </trkpt>
      <trkpt lat="43.74194" lon="3.51198">
        <ele>377</ele>
        <time>2015-04-30T09:34:45Z</time>
      </trkpt>
      <trkpt lat="43.74207" lon="3.51199">
        <ele>376</ele>
        <time>2015-04-30T09:34:48Z</time>
      </trkpt>
      <trkpt lat="43.7421" lon="3.51194">
        <ele>376</ele>
        <time>2015-04-30T09:34:49Z</time>
      </trkpt>
      <trkpt lat="43.74234" lon="3.51172">
        <ele>375</ele>
        <time>2015-04-30T09:34:55Z</time>
      </trkpt>
      <trkpt lat="43.74256" lon="3.51157">
        <ele>375</ele>
        <time>2015-04-30T09:35:00Z</time>
      </trkpt>
      <trkpt lat="43.74262" lon="3.5115">
        <ele>375</ele>
        <time>2015-04-30T09:35:02Z</time>
      </trkpt>
      <trkpt lat="43.74268" lon="3.5114">
        <ele>376</ele>
        <time>2015-04-30T09:35:04Z</time>
      </trkpt>
      <trkpt lat="43.74281" lon="3.51072">
        <ele>381</ele>
        <time>2015-04-30T09:35:14Z</time>
      </trkpt>
      <trkpt lat="43.74303" lon="3.51028">
        <ele>381</ele>
        <time>2015-04-30T09:35:21Z</time>
      </trkpt>
      <trkpt lat="43.74317" lon="3.51033">
        <ele>380</ele>
        <time>2015-04-30T09:35:27Z</time>
      </trkpt>
      <trkpt lat="43.74319" lon="3.51063">
        <ele>378</ele>
        <time>2015-04-30T09:35:32Z</time>
      </trkpt>
      <trkpt lat="43.74331" lon="3.51095">
        <ele>374</ele>
        <time>2015-04-30T09:35:37Z</time>
      </trkpt>
      <trkpt lat="43.74327" lon="3.51126">
        <ele>375</ele>
        <time>2015-04-30T09:35:41Z</time>
      </trkpt>
      <trkpt lat="43.74303" lon="3.51174">
        <ele>374</ele>
        <time>2015-04-30T09:35:47Z</time>
      </trkpt>
      <trkpt lat="43.74279" lon="3.51223">
        <ele>373</ele>
        <time>2015-04-30T09:35:53Z</time>
      </trkpt>
      <trkpt lat="43.7427" lon="3.51238">
        <ele>371</ele>
        <time>2015-04-30T09:35:55Z</time>
      </trkpt>
      <trkpt lat="43.74259" lon="3.51248">
        <ele>368</ele>
        <time>2015-04-30T09:35:57Z</time>
      </trkpt>
      <trkpt lat="43.74245" lon="3.5126">
        <ele>366</ele>
        <time>2015-04-30T09:36:00Z</time>
      </trkpt>
      <trkpt lat="43.74242" lon="3.51274">
        <ele>366</ele>
        <time>2015-04-30T09:36:02Z</time>
      </trkpt>
      <trkpt lat="43.74238" lon="3.51288">
        <ele>366</ele>
        <time>2015-04-30T09:36:04Z</time>
      </trkpt>
      <trkpt lat="43.74218" lon="3.5132">
        <ele>366</ele>
        <time>2015-04-30T09:36:09Z</time>
      </trkpt>
      <trkpt lat="43.74214" lon="3.51327">
        <ele>366</ele>
        <time>2015-04-30T09:36:10Z</time>
      </trkpt>
      <trkpt lat="43.74207" lon="3.51351">
        <ele>364</ele>
        <time>2015-04-30T09:36:13Z</time>
      </trkpt>
      <trkpt lat="43.74206" lon="3.5139">
        <ele>363</ele>
        <time>2015-04-30T09:36:17Z</time>
      </trkpt>
      <trkpt lat="43.74214" lon="3.51437">
        <ele>357</ele>
        <time>2015-04-30T09:36:22Z</time>
      </trkpt>
      <trkpt lat="43.74209" lon="3.51471">
        <ele>354</ele>
        <time>2015-04-30T09:36:26Z</time>
      </trkpt>
      <trkpt lat="43.74205" lon="3.51479">
        <ele>353</ele>
        <time>2015-04-30T09:36:27Z</time>
      </trkpt>
      <trkpt lat="43.74196" lon="3.51493">
        <ele>351</ele>
        <time>2015-04-30T09:36:29Z</time>
      </trkpt>
      <trkpt lat="43.74187" lon="3.51534">
        <ele>341</ele>
        <time>2015-04-30T09:36:34Z</time>
      </trkpt>
      <trkpt lat="43.74191" lon="3.51556">
        <ele>339</ele>
        <time>2015-04-30T09:36:37Z</time>
      </trkpt>
      <trkpt lat="43.74212" lon="3.5157">
        <ele>339</ele>
        <time>2015-04-30T09:36:42Z</time>
      </trkpt>
      <trkpt lat="43.74215" lon="3.51571">
        <ele>339</ele>
        <time>2015-04-30T09:36:43Z</time>
      </trkpt>
      <trkpt lat="43.74229" lon="3.51573">
        <ele>339</ele>
        <time>2015-04-30T09:36:55Z</time>
      </trkpt>
      <trkpt lat="43.74229" lon="3.51574">
        <ele>339</ele>
        <time>2015-04-30T09:37:17Z</time>
      </trkpt>
      <trkpt lat="43.74236" lon="3.51576">
        <ele>338</ele>
        <time>2015-04-30T09:37:22Z</time>
      </trkpt>
      <trkpt lat="43.74246" lon="3.51577">
        <ele>338</ele>
        <time>2015-04-30T09:37:27Z</time>
      </trkpt>
      <trkpt lat="43.74269" lon="3.51592">
        <ele>343</ele>
        <time>2015-04-30T09:37:42Z</time>
      </trkpt>
      <trkpt lat="43.74302" lon="3.51613">
        <ele>347</ele>
        <time>2015-04-30T09:37:59Z</time>
      </trkpt>
      <trkpt lat="43.7432" lon="3.51614">
        <ele>347</ele>
        <time>2015-04-30T09:38:12Z</time>
      </trkpt>
      <trkpt lat="43.74321" lon="3.51614">
        <ele>347</ele>
        <time>2015-04-30T09:38:13Z</time>
      </trkpt>
      <trkpt lat="43.74337" lon="3.51633">
        <ele>353</ele>
        <time>2015-04-30T09:38:28Z</time>
      </trkpt>
      <trkpt lat="43.74345" lon="3.51644">
        <ele>352</ele>
        <time>2015-04-30T09:38:36Z</time>
      </trkpt>
      <trkpt lat="43.74363" lon="3.51656">
        <ele>353</ele>
        <time>2015-04-30T09:38:53Z</time>
      </trkpt>
      <trkpt lat="43.74364" lon="3.51656">
        <ele>353</ele>
        <time>2015-04-30T09:38:54Z</time>
      </trkpt>
      <trkpt lat="43.74371" lon="3.51658">
        <ele>354</ele>
        <time>2015-04-30T09:38:59Z</time>
      </trkpt>
      <trkpt lat="43.7438" lon="3.51661">
        <ele>354</ele>
        <time>2015-04-30T09:39:06Z</time>
      </trkpt>
      <trkpt lat="43.74389" lon="3.51665">
        <ele>355</ele>
        <time>2015-04-30T09:39:13Z</time>
      </trkpt>
      <trkpt lat="43.74403" lon="3.51667">
        <ele>356</ele>
        <time>2015-04-30T09:39:23Z</time>
      </trkpt>
      <trkpt lat="43.74405" lon="3.51668">
        <ele>356</ele>
        <time>2015-04-30T09:39:24Z</time>
      </trkpt>
      <trkpt lat="43.74416" lon="3.51673">
        <ele>356</ele>
        <time>2015-04-30T09:39:29Z</time>
      </trkpt>
      <trkpt lat="43.74444" lon="3.51681">
        <ele>361</ele>
        <time>2015-04-30T09:39:44Z</time>
      </trkpt>
      <trkpt lat="43.74455" lon="3.5168">
        <ele>362</ele>
        <time>2015-04-30T09:39:51Z</time>
      </trkpt>
      <trkpt lat="43.74478" lon="3.51691">
        <ele>363</ele>
        <time>2015-04-30T09:40:07Z</time>
      </trkpt>
      <trkpt lat="43.74481" lon="3.51693">
        <ele>363</ele>
        <time>2015-04-30T09:40:09Z</time>
      </trkpt>
      <trkpt lat="43.74484" lon="3.51695">
        <ele>364</ele>
        <time>2015-04-30T09:40:12Z</time>
      </trkpt>
      <trkpt lat="43.74504" lon="3.51697">
        <ele>367</ele>
        <time>2015-04-30T09:40:26Z</time>
      </trkpt>
      <trkpt lat="43.74522" lon="3.51703">
        <ele>368</ele>
        <time>2015-04-30T09:40:40Z</time>
      </trkpt>
      <trkpt lat="43.7454" lon="3.51698">
        <ele>369</ele>
        <time>2015-04-30T09:40:53Z</time>
      </trkpt>
      <trkpt lat="43.74565" lon="3.51699">
        <ele>370</ele>
        <time>2015-04-30T09:41:07Z</time>
      </trkpt>
      <trkpt lat="43.74582" lon="3.51686">
        <ele>371</ele>
        <time>2015-04-30T09:41:18Z</time>
      </trkpt>
      <trkpt lat="43.74606" lon="3.51701">
        <ele>377</ele>
        <time>2015-04-30T09:41:33Z</time>
      </trkpt>
      <trkpt lat="43.74629" lon="3.51731">
        <ele>377</ele>
        <time>2015-04-30T09:41:50Z</time>
      </trkpt>
      <trkpt lat="43.74651" lon="3.5174">
        <ele>377</ele>
        <time>2015-04-30T09:42:04Z</time>
      </trkpt>
      <trkpt lat="43.74674" lon="3.51758">
        <ele>379</ele>
        <time>2015-04-30T09:42:17Z</time>
      </trkpt>
      <trkpt lat="43.74701" lon="3.51778">
        <ele>385</ele>
        <time>2015-04-30T09:42:32Z</time>
      </trkpt>
      <trkpt lat="43.74726" lon="3.51799">
        <ele>385</ele>
        <time>2015-04-30T09:42:46Z</time>
      </trkpt>
      <trkpt lat="43.74759" lon="3.51836">
        <ele>384</ele>
        <time>2015-04-30T09:43:04Z</time>
      </trkpt>
      <trkpt lat="43.74789" lon="3.51853">
        <ele>388</ele>
        <time>2015-04-30T09:43:20Z</time>
      </trkpt>
      <trkpt lat="43.74817" lon="3.51876">
        <ele>388</ele>
        <time>2015-04-30T09:43:36Z</time>
      </trkpt>
      <trkpt lat="43.74839" lon="3.51912">
        <ele>388</ele>
        <time>2015-04-30T09:43:52Z</time>
      </trkpt>
      <trkpt lat="43.74857" lon="3.51946">
        <ele>392</ele>
        <time>2015-04-30T09:44:09Z</time>
      </trkpt>
      <trkpt lat="43.74867" lon="3.51966">
        <ele>393</ele>
        <time>2015-04-30T09:44:19Z</time>
      </trkpt>
      <trkpt lat="43.74868" lon="3.51973">
        <ele>394</ele>
        <time>2015-04-30T09:44:24Z</time>
      </trkpt>
      <trkpt lat="43.74863" lon="3.52">
        <ele>394</ele>
        <time>2015-04-30T09:44:40Z</time>
      </trkpt>
      <trkpt lat="43.74861" lon="3.52009">
        <ele>397</ele>
        <time>2015-04-30T09:44:47Z</time>
      </trkpt>
      <trkpt lat="43.74859" lon="3.52013">
        <ele>397</ele>
        <time>2015-04-30T09:44:50Z</time>
      </trkpt>
      <trkpt lat="43.74859" lon="3.52025">
        <ele>398</ele>
        <time>2015-04-30T09:44:58Z</time>
      </trkpt>
      <trkpt lat="43.74868" lon="3.52055">
        <ele>400</ele>
        <time>2015-04-30T09:45:16Z</time>
      </trkpt>
      <trkpt lat="43.74863" lon="3.52068">
        <ele>400</ele>
        <time>2015-04-30T09:45:23Z</time>
      </trkpt>
      <trkpt lat="43.74844" lon="3.52087">
        <ele>400</ele>
        <time>2015-04-30T09:45:38Z</time>
      </trkpt>
      <trkpt lat="43.74839" lon="3.5209">
        <ele>400</ele>
        <time>2015-04-30T09:45:42Z</time>
      </trkpt>
      <trkpt lat="43.7484" lon="3.52121">
        <ele>403</ele>
        <time>2015-04-30T09:45:57Z</time>
      </trkpt>
      <trkpt lat="43.74844" lon="3.5216">
        <ele>402</ele>
        <time>2015-04-30T09:46:12Z</time>
      </trkpt>
      <trkpt lat="43.74847" lon="3.52199">
        <ele>407</ele>
        <time>2015-04-30T09:46:26Z</time>
      </trkpt>
      <trkpt lat="43.74846" lon="3.52208">
        <ele>407</ele>
        <time>2015-04-30T09:46:31Z</time>
      </trkpt>
      <trkpt lat="43.74848" lon="3.52214">
        <ele>407</ele>
        <time>2015-04-30T09:46:35Z</time>
      </trkpt>
      <trkpt lat="43.74869" lon="3.52227">
        <ele>409</ele>
        <time>2015-04-30T09:46:48Z</time>
      </trkpt>
      <trkpt lat="43.74872" lon="3.52276">
        <ele>411</ele>
        <time>2015-04-30T09:47:06Z</time>
      </trkpt>
      <trkpt lat="43.74856" lon="3.52318">
        <ele>410</ele>
        <time>2015-04-30T09:47:23Z</time>
      </trkpt>
      <trkpt lat="43.74843" lon="3.52348">
        <ele>408</ele>
        <time>2015-04-30T09:47:37Z</time>
      </trkpt>
      <trkpt lat="43.74837" lon="3.52394">
        <ele>408</ele>
        <time>2015-04-30T09:47:54Z</time>
      </trkpt>
      <trkpt lat="43.74847" lon="3.52424">
        <ele>408</ele>
        <time>2015-04-30T09:48:08Z</time>
      </trkpt>
      <trkpt lat="43.74878" lon="3.52434">
        <ele>409</ele>
        <time>2015-04-30T09:48:22Z</time>
      </trkpt>
      <trkpt lat="43.74911" lon="3.52454">
        <ele>409</ele>
        <time>2015-04-30T09:48:38Z</time>
      </trkpt>
      <trkpt lat="43.74943" lon="3.52495">
        <ele>411</ele>
        <time>2015-04-30T09:48:55Z</time>
      </trkpt>
      <trkpt lat="43.74961" lon="3.52523">
        <ele>412</ele>
        <time>2015-04-30T09:49:08Z</time>
      </trkpt>
      <trkpt lat="43.74975" lon="3.52563">
        <ele>412</ele>
        <time>2015-04-30T09:49:21Z</time>
      </trkpt>
      <trkpt lat="43.74998" lon="3.52609">
        <ele>414</ele>
        <time>2015-04-30T09:49:36Z</time>
      </trkpt>
      <trkpt lat="43.75024" lon="3.52643">
        <ele>415</ele>
        <time>2015-04-30T09:49:53Z</time>
      </trkpt>
      <trkpt lat="43.75048" lon="3.5265">
        <ele>416</ele>
        <time>2015-04-30T09:50:07Z</time>
      </trkpt>
      <trkpt lat="43.75054" lon="3.52655">
        <ele>416</ele>
        <time>2015-04-30T09:50:11Z</time>
      </trkpt>
      <trkpt lat="43.75045" lon="3.52681">
        <ele>418</ele>
        <time>2015-04-30T09:50:23Z</time>
      </trkpt>
      <trkpt lat="43.75029" lon="3.5273">
        <ele>418</ele>
        <time>2015-04-30T09:50:38Z</time>
      </trkpt>
      <trkpt lat="43.75009" lon="3.52762">
        <ele>420</ele>
        <time>2015-04-30T09:50:53Z</time>
      </trkpt>
      <trkpt lat="43.74986" lon="3.52757">
        <ele>420</ele>
        <time>2015-04-30T09:51:08Z</time>
      </trkpt>
      <trkpt lat="43.74966" lon="3.52784">
        <ele>423</ele>
        <time>2015-04-30T09:51:22Z</time>
      </trkpt>
      <trkpt lat="43.74937" lon="3.5282">
        <ele>425</ele>
        <time>2015-04-30T09:51:37Z</time>
      </trkpt>
      <trkpt lat="43.74936" lon="3.52856">
        <ele>431</ele>
        <time>2015-04-30T09:51:51Z</time>
      </trkpt>
      <trkpt lat="43.74939" lon="3.52877">
        <ele>433</ele>
        <time>2015-04-30T09:52:00Z</time>
      </trkpt>
      <trkpt lat="43.7495" lon="3.52922">
        <ele>439</ele>
        <time>2015-04-30T09:52:18Z</time>
      </trkpt>
      <trkpt lat="43.74951" lon="3.52952">
        <ele>440</ele>
        <time>2015-04-30T09:52:32Z</time>
      </trkpt>
      <trkpt lat="43.74953" lon="3.52989">
        <ele>441</ele>
        <time>2015-04-30T09:52:49Z</time>
      </trkpt>
      <trkpt lat="43.74952" lon="3.52996">
        <ele>442</ele>
        <time>2015-04-30T09:52:52Z</time>
      </trkpt>
      <trkpt lat="43.74941" lon="3.53025">
        <ele>444</ele>
        <time>2015-04-30T09:53:08Z</time>
      </trkpt>
      <trkpt lat="43.74922" lon="3.53057">
        <ele>444</ele>
        <time>2015-04-30T09:53:25Z</time>
      </trkpt>
      <trkpt lat="43.74921" lon="3.53059">
        <ele>444</ele>
        <time>2015-04-30T09:53:26Z</time>
      </trkpt>
      <trkpt lat="43.74911" lon="3.53088">
        <ele>445</ele>
        <time>2015-04-30T09:53:42Z</time>
      </trkpt>
      <trkpt lat="43.74892" lon="3.53112">
        <ele>449</ele>
        <time>2015-04-30T09:53:58Z</time>
      </trkpt>
      <trkpt lat="43.74877" lon="3.53129">
        <ele>451</ele>
        <time>2015-04-30T09:54:14Z</time>
      </trkpt>
      <trkpt lat="43.74855" lon="3.53142">
        <ele>451</ele>
        <time>2015-04-30T09:54:30Z</time>
      </trkpt>
      <trkpt lat="43.7483" lon="3.53148">
        <ele>452</ele>
        <time>2015-04-30T09:54:49Z</time>
      </trkpt>
      <trkpt lat="43.74815" lon="3.53164">
        <ele>453</ele>
        <time>2015-04-30T09:55:03Z</time>
      </trkpt>
      <trkpt lat="43.74794" lon="3.53175">
        <ele>457</ele>
        <time>2015-04-30T09:55:19Z</time>
      </trkpt>
      <trkpt lat="43.74789" lon="3.53175">
        <ele>457</ele>
        <time>2015-04-30T09:55:23Z</time>
      </trkpt>
      <trkpt lat="43.74784" lon="3.53175">
        <ele>457</ele>
        <time>2015-04-30T09:55:31Z</time>
      </trkpt>
      <trkpt lat="43.74769" lon="3.53171">
        <ele>457</ele>
        <time>2015-04-30T09:55:41Z</time>
      </trkpt>
      <trkpt lat="43.74743" lon="3.53156">
        <ele>457</ele>
        <time>2015-04-30T09:55:59Z</time>
      </trkpt>
      <trkpt lat="43.74722" lon="3.53146">
        <ele>460</ele>
        <time>2015-04-30T09:56:15Z</time>
      </trkpt>
      <trkpt lat="43.74705" lon="3.53148">
        <ele>461</ele>
        <time>2015-04-30T09:56:27Z</time>
      </trkpt>
      <trkpt lat="43.74696" lon="3.53146">
        <ele>462</ele>
        <time>2015-04-30T09:56:33Z</time>
      </trkpt>
      <trkpt lat="43.74677" lon="3.53124">
        <ele>462</ele>
        <time>2015-04-30T09:56:49Z</time>
      </trkpt>
      <trkpt lat="43.74662" lon="3.53093">
        <ele>469</ele>
        <time>2015-04-30T09:57:08Z</time>
      </trkpt>
      <trkpt lat="43.74657" lon="3.53083">
        <ele>468</ele>
        <time>2015-04-30T09:57:14Z</time>
      </trkpt>
      <trkpt lat="43.74652" lon="3.5306">
        <ele>471</ele>
        <time>2015-04-30T09:57:26Z</time>
      </trkpt>
      <trkpt lat="43.7465" lon="3.53055">
        <ele>472</ele>
        <time>2015-04-30T09:57:31Z</time>
      </trkpt>
      <trkpt lat="43.74641" lon="3.53047">
        <ele>473</ele>
        <time>2015-04-30T09:57:41Z</time>
      </trkpt>
      <trkpt lat="43.74643" lon="3.53055">
        <ele>473</ele>
        <time>2015-04-30T09:57:46Z</time>
      </trkpt>
      <trkpt lat="43.74652" lon="3.53057">
        <ele>472</ele>
        <time>2015-04-30T09:57:51Z</time>
      </trkpt>
      <trkpt lat="43.74663" lon="3.53085">
        <ele>466</ele>
        <time>2015-04-30T09:58:04Z</time>
      </trkpt>
      <trkpt lat="43.7467" lon="3.53097">
        <ele>463</ele>
        <time>2015-04-30T09:58:18Z</time>
      </trkpt>
      <trkpt lat="43.74674" lon="3.53097">
        <ele>463</ele>
        <time>2015-04-30T09:58:43Z</time>
      </trkpt>
      <trkpt lat="43.7467" lon="3.53103">
        <ele>463</ele>
        <time>2015-04-30T09:58:50Z</time>
      </trkpt>
      <trkpt lat="43.74668" lon="3.53101">
        <ele>463</ele>
        <time>2015-04-30T09:58:52Z</time>
      </trkpt>
      <trkpt lat="43.74665" lon="3.53097">
        <ele>470</ele>
        <time>2015-04-30T09:58:56Z</time>
      </trkpt>
      <trkpt lat="43.74653" lon="3.5306">
        <ele>471</ele>
        <time>2015-04-30T09:59:13Z</time>
      </trkpt>
      <trkpt lat="43.74647" lon="3.53052">
        <ele>473</ele>
        <time>2015-04-30T09:59:19Z</time>
      </trkpt>
      <trkpt lat="43.74644" lon="3.53055">
        <ele>473</ele>
        <time>2015-04-30T09:59:22Z</time>
      </trkpt>
      <trkpt lat="43.74645" lon="3.53065">
        <ele>472</ele>
        <time>2015-04-30T09:59:26Z</time>
      </trkpt>
      <trkpt lat="43.7465" lon="3.53096">
        <ele>472</ele>
        <time>2015-04-30T09:59:40Z</time>
      </trkpt>
      <trkpt lat="43.74647" lon="3.53127">
        <ele>475</ele>
        <time>2015-04-30T09:59:56Z</time>
      </trkpt>
      <trkpt lat="43.74639" lon="3.53154">
        <ele>476</ele>
        <time>2015-04-30T10:00:12Z</time>
      </trkpt>
      <trkpt lat="43.74633" lon="3.53172">
        <ele>480</ele>
        <time>2015-04-30T10:00:22Z</time>
      </trkpt>
      <trkpt lat="43.74634" lon="3.53197">
        <ele>482</ele>
        <time>2015-04-30T10:00:37Z</time>
      </trkpt>
      <trkpt lat="43.7464" lon="3.53202">
        <ele>481</ele>
        <time>2015-04-30T10:00:43Z</time>
      </trkpt>
      <trkpt lat="43.7465" lon="3.53217">
        <ele>481</ele>
        <time>2015-04-30T10:00:55Z</time>
      </trkpt>
      <trkpt lat="43.74649" lon="3.53242">
        <ele>480</ele>
        <time>2015-04-30T10:01:09Z</time>
      </trkpt>
      <trkpt lat="43.74648" lon="3.53245">
        <ele>480</ele>
        <time>2015-04-30T10:01:11Z</time>
      </trkpt>
      <trkpt lat="43.74645" lon="3.53253">
        <ele>485</ele>
        <time>2015-04-30T10:01:16Z</time>
      </trkpt>
      <trkpt lat="43.74645" lon="3.5327">
        <ele>486</ele>
        <time>2015-04-30T10:01:25Z</time>
      </trkpt>
      <trkpt lat="43.74645" lon="3.53277">
        <ele>487</ele>
        <time>2015-04-30T10:01:29Z</time>
      </trkpt>
      <trkpt lat="43.74655" lon="3.53301">
        <ele>488</ele>
        <time>2015-04-30T10:01:44Z</time>
      </trkpt>
      <trkpt lat="43.74657" lon="3.53305">
        <ele>488</ele>
        <time>2015-04-30T10:01:47Z</time>
      </trkpt>
      <trkpt lat="43.74662" lon="3.53309">
        <ele>488</ele>
        <time>2015-04-30T10:01:50Z</time>
      </trkpt>
      <trkpt lat="43.74692" lon="3.53303">
        <ele>482</ele>
        <time>2015-04-30T10:02:00Z</time>
      </trkpt>
      <trkpt lat="43.74705" lon="3.53293">
        <ele>480</ele>
        <time>2015-04-30T10:02:03Z</time>
      </trkpt>
      <trkpt lat="43.7472" lon="3.53286">
        <ele>479</ele>
        <time>2015-04-30T10:02:07Z</time>
      </trkpt>
      <trkpt lat="43.74728" lon="3.53288">
        <ele>479</ele>
        <time>2015-04-30T10:02:11Z</time>
      </trkpt>
      <trkpt lat="43.74738" lon="3.5329">
        <ele>480</ele>
        <time>2015-04-30T10:02:17Z</time>
      </trkpt>
      <trkpt lat="43.74777" lon="3.53298">
        <ele>480</ele>
        <time>2015-04-30T10:02:32Z</time>
      </trkpt>
      <trkpt lat="43.7481" lon="3.53319">
        <ele>483</ele>
        <time>2015-04-30T10:02:45Z</time>
      </trkpt>
      <trkpt lat="43.74846" lon="3.53298">
        <ele>482</ele>
        <time>2015-04-30T10:02:56Z</time>
      </trkpt>
      <trkpt lat="43.74861" lon="3.5329">
        <ele>481</ele>
        <time>2015-04-30T10:02:59Z</time>
      </trkpt>
      <trkpt lat="43.74881" lon="3.53272">
        <ele>479</ele>
        <time>2015-04-30T10:03:03Z</time>
      </trkpt>
      <trkpt lat="43.74892" lon="3.53259">
        <ele>478</ele>
        <time>2015-04-30T10:03:06Z</time>
      </trkpt>
      <trkpt lat="43.74902" lon="3.53241">
        <ele>467</ele>
        <time>2015-04-30T10:03:10Z</time>
      </trkpt>
      <trkpt lat="43.74932" lon="3.53258">
        <ele>478</ele>
        <time>2015-04-30T10:03:20Z</time>
      </trkpt>
      <trkpt lat="43.74972" lon="3.53292">
        <ele>484</ele>
        <time>2015-04-30T10:03:32Z</time>
      </trkpt>
      <trkpt lat="43.74997" lon="3.53305">
        <ele>485</ele>
        <time>2015-04-30T10:03:41Z</time>
      </trkpt>
      <trkpt lat="43.75005" lon="3.53328">
        <ele>487</ele>
        <time>2015-04-30T10:03:45Z</time>
      </trkpt>
      <trkpt lat="43.75023" lon="3.53345">
        <ele>497</ele>
        <time>2015-04-30T10:03:51Z</time>
      </trkpt>
      <trkpt lat="43.75064" lon="3.53329">
        <ele>483</ele>
        <time>2015-04-30T10:04:03Z</time>
      </trkpt>
      <trkpt lat="43.75101" lon="3.53342">
        <ele>490</ele>
        <time>2015-04-30T10:04:16Z</time>
      </trkpt>
      <trkpt lat="43.75114" lon="3.53337">
        <ele>491</ele>
        <time>2015-04-30T10:04:20Z</time>
      </trkpt>
      <trkpt lat="43.75124" lon="3.53318">
        <ele>479</ele>
        <time>2015-04-30T10:04:23Z</time>
      </trkpt>
      <trkpt lat="43.75155" lon="3.53305">
        <ele>479</ele>
        <time>2015-04-30T10:04:31Z</time>
      </trkpt>
      <trkpt lat="43.7517" lon="3.53271">
        <ele>473</ele>
        <time>2015-04-30T10:04:41Z</time>
      </trkpt>
      <trkpt lat="43.7519" lon="3.53303">
        <ele>474</ele>
        <time>2015-04-30T10:04:50Z</time>
      </trkpt>
      <trkpt lat="43.75191" lon="3.53364">
        <ele>484</ele>
        <time>2015-04-30T10:04:58Z</time>
      </trkpt>
      <trkpt lat="43.75201" lon="3.53399">
        <ele>486</ele>
        <time>2015-04-30T10:05:02Z</time>
      </trkpt>
      <trkpt lat="43.75215" lon="3.53424">
        <ele>497</ele>
        <time>2015-04-30T10:05:06Z</time>
      </trkpt>
      <trkpt lat="43.75227" lon="3.53437">
        <ele>497</ele>
        <time>2015-04-30T10:05:09Z</time>
      </trkpt>
      <trkpt lat="43.75254" lon="3.5342">
        <ele>489</ele>
        <time>2015-04-30T10:05:16Z</time>
      </trkpt>
      <trkpt lat="43.75282" lon="3.53382">
        <ele>483</ele>
        <time>2015-04-30T10:05:27Z</time>
      </trkpt>
      <trkpt lat="43.75291" lon="3.53382">
        <ele>484</ele>
        <time>2015-04-30T10:05:29Z</time>
      </trkpt>
      <trkpt lat="43.75314" lon="3.53369">
        <ele>484</ele>
        <time>2015-04-30T10:05:34Z</time>
      </trkpt>
      <trkpt lat="43.75342" lon="3.53314">
        <ele>479</ele>
        <time>2015-04-30T10:05:47Z</time>
      </trkpt>
      <trkpt lat="43.75357" lon="3.53306">
        <ele>479</ele>
        <time>2015-04-30T10:05:52Z</time>
      </trkpt>
      <trkpt lat="43.75368" lon="3.53313">
        <ele>480</ele>
        <time>2015-04-30T10:05:55Z</time>
      </trkpt>
      <trkpt lat="43.75391" lon="3.53319">
        <ele>483</ele>
        <time>2015-04-30T10:06:00Z</time>
      </trkpt>
      <trkpt lat="43.75399" lon="3.53309">
        <ele>483</ele>
        <time>2015-04-30T10:06:02Z</time>
      </trkpt>
      <trkpt lat="43.75412" lon="3.53288">
        <ele>482</ele>
        <time>2015-04-30T10:06:06Z</time>
      </trkpt>
      <trkpt lat="43.75415" lon="3.53282">
        <ele>481</ele>
        <time>2015-04-30T10:06:07Z</time>
      </trkpt>
      <trkpt lat="43.75419" lon="3.53253">
        <ele>480</ele>
        <time>2015-04-30T10:06:12Z</time>
      </trkpt>
      <trkpt lat="43.75429" lon="3.53249">
        <ele>477</ele>
        <time>2015-04-30T10:06:16Z</time>
      </trkpt>
      <trkpt lat="43.75445" lon="3.5328">
        <ele>479</ele>
        <time>2015-04-30T10:06:27Z</time>
      </trkpt>
      <trkpt lat="43.75451" lon="3.53309">
        <ele>481</ele>
        <time>2015-04-30T10:06:42Z</time>
      </trkpt>
      <trkpt lat="43.75452" lon="3.53323">
        <ele>482</ele>
        <time>2015-04-30T10:06:51Z</time>
      </trkpt>
      <trkpt lat="43.75457" lon="3.53333">
        <ele>482</ele>
        <time>2015-04-30T10:06:58Z</time>
      </trkpt>
      <trkpt lat="43.75481" lon="3.53363">
        <ele>490</ele>
        <time>2015-04-30T10:07:14Z</time>
      </trkpt>
      <trkpt lat="43.75495" lon="3.53408">
        <ele>492</ele>
        <time>2015-04-30T10:07:28Z</time>
      </trkpt>
      <trkpt lat="43.755" lon="3.53428">
        <ele>497</ele>
        <time>2015-04-30T10:07:32Z</time>
      </trkpt>
      <trkpt lat="43.75505" lon="3.53445">
        <ele>499</ele>
        <time>2015-04-30T10:07:35Z</time>
      </trkpt>
      <trkpt lat="43.75514" lon="3.53458">
        <ele>501</ele>
        <time>2015-04-30T10:07:37Z</time>
      </trkpt>
      <trkpt lat="43.75525" lon="3.53477">
        <ele>502</ele>
        <time>2015-04-30T10:07:40Z</time>
      </trkpt>
      <trkpt lat="43.75541" lon="3.53487">
        <ele>504</ele>
        <time>2015-04-30T10:07:46Z</time>
      </trkpt>
      <trkpt lat="43.75553" lon="3.53465">
        <ele>503</ele>
        <time>2015-04-30T10:08:00Z</time>
      </trkpt>
      <trkpt lat="43.75556" lon="3.53432">
        <ele>501</ele>
        <time>2015-04-30T10:08:14Z</time>
      </trkpt>
      <trkpt lat="43.75562" lon="3.5339">
        <ele>493</ele>
        <time>2015-04-30T10:08:29Z</time>
      </trkpt>
      <trkpt lat="43.75588" lon="3.53348">
        <ele>492</ele>
        <time>2015-04-30T10:08:49Z</time>
      </trkpt>
      <trkpt lat="43.75619" lon="3.5333">
        <ele>487</ele>
        <time>2015-04-30T10:09:06Z</time>
      </trkpt>
      <trkpt lat="43.75647" lon="3.53308">
        <ele>488</ele>
        <time>2015-04-30T10:09:22Z</time>
      </trkpt>
      <trkpt lat="43.75665" lon="3.5333">
        <ele>495</ele>
        <time>2015-04-30T10:09:33Z</time>
      </trkpt>
      <trkpt lat="43.75665" lon="3.5334">
        <ele>496</ele>
        <time>2015-04-30T10:09:35Z</time>
      </trkpt>
      <trkpt lat="43.75662" lon="3.53357">
        <ele>496</ele>
        <time>2015-04-30T10:09:38Z</time>
      </trkpt>
      <trkpt lat="43.75656" lon="3.53373">
        <ele>497</ele>
        <time>2015-04-30T10:09:41Z</time>
      </trkpt>
      <trkpt lat="43.75653" lon="3.53391">
        <ele>498</ele>
        <time>2015-04-30T10:09:44Z</time>
      </trkpt>
      <trkpt lat="43.75663" lon="3.53407">
        <ele>499</ele>
        <time>2015-04-30T10:09:47Z</time>
      </trkpt>
      <trkpt lat="43.75682" lon="3.53418">
        <ele>506</ele>
        <time>2015-04-30T10:09:51Z</time>
      </trkpt>
      <trkpt lat="43.75691" lon="3.53423">
        <ele>507</ele>
        <time>2015-04-30T10:09:53Z</time>
      </trkpt>
      <trkpt lat="43.75698" lon="3.53427">
        <ele>509</ele>
        <time>2015-04-30T10:09:54Z</time>
      </trkpt>
      <trkpt lat="43.75714" lon="3.53424">
        <ele>509</ele>
        <time>2015-04-30T10:09:57Z</time>
      </trkpt>
      <trkpt lat="43.7573" lon="3.53393">
        <ele>501</ele>
        <time>2015-04-30T10:10:08Z</time>
      </trkpt>
      <trkpt lat="43.75741" lon="3.53355">
        <ele>499</ele>
        <time>2015-04-30T10:10:22Z</time>
      </trkpt>
      <trkpt lat="43.75767" lon="3.53331">
        <ele>495</ele>
        <time>2015-04-30T10:10:38Z</time>
      </trkpt>
      <trkpt lat="43.75787" lon="3.53351">
        <ele>498</ele>
        <time>2015-04-30T10:10:50Z</time>
      </trkpt>
      <trkpt lat="43.75794" lon="3.5339">
        <ele>500</ele>
        <time>2015-04-30T10:11:03Z</time>
      </trkpt>
      <trkpt lat="43.75819" lon="3.53424">
        <ele>505</ele>
        <time>2015-04-30T10:11:18Z</time>
      </trkpt>
      <trkpt lat="43.75842" lon="3.53474">
        <ele>503</ele>
        <time>2015-04-30T10:11:35Z</time>
      </trkpt>
      <trkpt lat="43.75859" lon="3.53514">
        <ele>507</ele>
        <time>2015-04-30T10:11:47Z</time>
      </trkpt>
      <trkpt lat="43.75889" lon="3.5351">
        <ele>503</ele>
        <time>2015-04-30T10:12:01Z</time>
      </trkpt>
      <trkpt lat="43.75907" lon="3.53522">
        <ele>502</ele>
        <time>2015-04-30T10:12:09Z</time>
      </trkpt>
      <trkpt lat="43.75905" lon="3.53544">
        <ele>503</ele>
        <time>2015-04-30T10:12:14Z</time>
      </trkpt>
      <trkpt lat="43.7588" lon="3.53586">
        <ele>507</ele>
        <time>2015-04-30T10:12:20Z</time>
      </trkpt>
      <trkpt lat="43.75876" lon="3.53595">
        <ele>508</ele>
        <time>2015-04-30T10:12:21Z</time>
      </trkpt>
      <trkpt lat="43.75867" lon="3.53627">
        <ele>508</ele>
        <time>2015-04-30T10:12:24Z</time>
      </trkpt>
      <trkpt lat="43.75862" lon="3.53646">
        <ele>509</ele>
        <time>2015-04-30T10:12:26Z</time>
      </trkpt>
      <trkpt lat="43.75869" lon="3.53687">
        <ele>512</ele>
        <time>2015-04-30T10:12:31Z</time>
      </trkpt>
      <trkpt lat="43.75893" lon="3.53697">
        <ele>510</ele>
        <time>2015-04-30T10:12:41Z</time>
      </trkpt>
      <trkpt lat="43.75922" lon="3.53672">
        <ele>506</ele>
        <time>2015-04-30T10:12:56Z</time>
      </trkpt>
      <trkpt lat="43.75941" lon="3.5365">
        <ele>506</ele>
        <time>2015-04-30T10:13:12Z</time>
      </trkpt>
      <trkpt lat="43.75964" lon="3.53634">
        <ele>507</ele>
        <time>2015-04-30T10:13:28Z</time>
      </trkpt>
      <trkpt lat="43.7597" lon="3.53627">
        <ele>507</ele>
        <time>2015-04-30T10:13:34Z</time>
      </trkpt>
      <trkpt lat="43.75987" lon="3.53606">
        <ele>507</ele>
        <time>2015-04-30T10:13:50Z</time>
      </trkpt>
      <trkpt lat="43.75984" lon="3.53612">
        <ele>507</ele>
        <time>2015-04-30T10:18:18Z</time>
      </trkpt>
      <trkpt lat="43.75977" lon="3.53619">
        <ele>507</ele>
        <time>2015-04-30T10:18:25Z</time>
      </trkpt>
      <trkpt lat="43.75986" lon="3.53609">
        <ele>507</ele>
        <time>2015-04-30T10:18:34Z</time>
      </trkpt>
      <trkpt lat="43.75996" lon="3.53602">
        <ele>507</ele>
        <time>2015-04-30T10:18:41Z</time>
      </trkpt>
      <trkpt lat="43.76003" lon="3.53597">
        <ele>509</ele>
        <time>2015-04-30T10:18:54Z</time>
      </trkpt>
      <trkpt lat="43.76009" lon="3.53594">
        <ele>509</ele>
        <time>2015-04-30T10:19:10Z</time>
      </trkpt>
      <trkpt lat="43.76012" lon="3.53589">
        <ele>509</ele>
        <time>2015-04-30T10:19:14Z</time>
      </trkpt>
      <trkpt lat="43.76021" lon="3.53585">
        <ele>510</ele>
        <time>2015-04-30T10:19:29Z</time>
      </trkpt>
      <trkpt lat="43.76027" lon="3.53592">
        <ele>510</ele>
        <time>2015-04-30T10:19:43Z</time>
      </trkpt>
      <trkpt lat="43.76032" lon="3.53592">
        <ele>511</ele>
        <time>2015-04-30T10:20:00Z</time>
      </trkpt>
      <trkpt lat="43.76036" lon="3.53595">
        <ele>511</ele>
        <time>2015-04-30T10:20:04Z</time>
      </trkpt>
      <trkpt lat="43.7604" lon="3.53599">
        <ele>511</ele>
        <time>2015-04-30T10:20:08Z</time>
      </trkpt>
      <trkpt lat="43.76044" lon="3.53604">
        <ele>512</ele>
        <time>2015-04-30T10:20:13Z</time>
      </trkpt>
      <trkpt lat="43.76048" lon="3.53608">
        <ele>512</ele>
        <time>2015-04-30T10:20:17Z</time>
      </trkpt>
      <trkpt lat="43.76055" lon="3.53615">
        <ele>512</ele>
        <time>2015-04-30T10:20:22Z</time>
      </trkpt>
      <trkpt lat="43.76075" lon="3.53631">
        <ele>514</ele>
        <time>2015-04-30T10:20:34Z</time>
      </trkpt>
      <trkpt lat="43.7608" lon="3.53657">
        <ele>518</ele>
        <time>2015-04-30T10:20:48Z</time>
      </trkpt>
      <trkpt lat="43.76077" lon="3.53664">
        <ele>518</ele>
        <time>2015-04-30T10:20:52Z</time>
      </trkpt>
      <trkpt lat="43.76069" lon="3.53686">
        <ele>523</ele>
        <time>2015-04-30T10:21:04Z</time>
      </trkpt>
      <trkpt lat="43.76068" lon="3.53687">
        <ele>523</ele>
        <time>2015-04-30T10:21:05Z</time>
      </trkpt>
      <trkpt lat="43.76067" lon="3.53692">
        <ele>523</ele>
        <time>2015-04-30T10:21:18Z</time>
      </trkpt>
      <trkpt lat="43.76063" lon="3.53697">
        <ele>524</ele>
        <time>2015-04-30T10:21:38Z</time>
      </trkpt>
      <trkpt lat="43.76057" lon="3.53709">
        <ele>525</ele>
        <time>2015-04-30T10:21:51Z</time>
      </trkpt>
      <trkpt lat="43.76052" lon="3.53722">
        <ele>526</ele>
        <time>2015-04-30T10:22:05Z</time>
      </trkpt>
      <trkpt lat="43.76051" lon="3.53725">
        <ele>526</ele>
        <time>2015-04-30T10:22:11Z</time>
      </trkpt>
      <trkpt lat="43.76051" lon="3.53729">
        <ele>526</ele>
        <time>2015-04-30T10:22:14Z</time>
      </trkpt>
      <trkpt lat="43.7605" lon="3.53737">
        <ele>526</ele>
        <time>2015-04-30T10:22:18Z</time>
      </trkpt>
      <trkpt lat="43.76043" lon="3.53762">
        <ele>534</ele>
        <time>2015-04-30T10:22:33Z</time>
      </trkpt>
      <trkpt lat="43.7604" lon="3.53793">
        <ele>535</ele>
        <time>2015-04-30T10:22:48Z</time>
      </trkpt>
      <trkpt lat="43.76041" lon="3.5382">
        <ele>537</ele>
        <time>2015-04-30T10:23:02Z</time>
      </trkpt>
      <trkpt lat="43.76041" lon="3.53822">
        <ele>537</ele>
        <time>2015-04-30T10:23:03Z</time>
      </trkpt>
      <trkpt lat="43.76039" lon="3.53836">
        <ele>545</ele>
        <time>2015-04-30T10:23:14Z</time>
      </trkpt>
      <trkpt lat="43.76048" lon="3.5383">
        <ele>538</ele>
        <time>2015-04-30T10:23:23Z</time>
      </trkpt>
      <trkpt lat="43.76063" lon="3.53811">
        <ele>539</ele>
        <time>2015-04-30T10:23:38Z</time>
      </trkpt>
      <trkpt lat="43.7608" lon="3.53803">
        <ele>539</ele>
        <time>2015-04-30T10:23:51Z</time>
      </trkpt>
      <trkpt lat="43.76097" lon="3.53801">
        <ele>541</ele>
        <time>2015-04-30T10:24:06Z</time>
      </trkpt>
      <trkpt lat="43.76118" lon="3.53794">
        <ele>540</ele>
        <time>2015-04-30T10:24:20Z</time>
      </trkpt>
      <trkpt lat="43.76126" lon="3.53793">
        <ele>540</ele>
        <time>2015-04-30T10:24:26Z</time>
      </trkpt>
      <trkpt lat="43.76132" lon="3.53798">
        <ele>541</ele>
        <time>2015-04-30T10:24:30Z</time>
      </trkpt>
      <trkpt lat="43.76135" lon="3.538">
        <ele>541</ele>
        <time>2015-04-30T10:24:32Z</time>
      </trkpt>
      <trkpt lat="43.76148" lon="3.53816">
        <ele>543</ele>
        <time>2015-04-30T10:24:43Z</time>
      </trkpt>
      <trkpt lat="43.76162" lon="3.53848">
        <ele>552</ele>
        <time>2015-04-30T10:25:03Z</time>
      </trkpt>
      <trkpt lat="43.76174" lon="3.53878">
        <ele>547</ele>
        <time>2015-04-30T10:25:19Z</time>
      </trkpt>
      <trkpt lat="43.7618" lon="3.5389">
        <ele>548</ele>
        <time>2015-04-30T10:25:26Z</time>
      </trkpt>
      <trkpt lat="43.76186" lon="3.5392">
        <ele>552</ele>
        <time>2015-04-30T10:25:41Z</time>
      </trkpt>
      <trkpt lat="43.76175" lon="3.53948">
        <ele>551</ele>
        <time>2015-04-30T10:25:56Z</time>
      </trkpt>
      <trkpt lat="43.76164" lon="3.53969">
        <ele>563</ele>
        <time>2015-04-30T10:26:11Z</time>
      </trkpt>
      <trkpt lat="43.76147" lon="3.53989">
        <ele>564</ele>
        <time>2015-04-30T10:26:27Z</time>
      </trkpt>
      <trkpt lat="43.76124" lon="3.54016">
        <ele>572</ele>
        <time>2015-04-30T10:26:44Z</time>
      </trkpt>
      <trkpt lat="43.76121" lon="3.54021">
        <ele>573</ele>
        <time>2015-04-30T10:26:48Z</time>
      </trkpt>
      <trkpt lat="43.76122" lon="3.54044">
        <ele>574</ele>
        <time>2015-04-30T10:27:02Z</time>
      </trkpt>
      <trkpt lat="43.76131" lon="3.54056">
        <ele>573</ele>
        <time>2015-04-30T10:27:15Z</time>
      </trkpt>
      <trkpt lat="43.76141" lon="3.54078">
        <ele>570</ele>
        <time>2015-04-30T10:27:29Z</time>
      </trkpt>
      <trkpt lat="43.76141" lon="3.54081">
        <ele>570</ele>
        <time>2015-04-30T10:27:31Z</time>
      </trkpt>
      <trkpt lat="43.76138" lon="3.54092">
        <ele>576</ele>
        <time>2015-04-30T10:27:37Z</time>
      </trkpt>
      <trkpt lat="43.76136" lon="3.54099">
        <ele>577</ele>
        <time>2015-04-30T10:27:41Z</time>
      </trkpt>
      <trkpt lat="43.7613" lon="3.5412">
        <ele>580</ele>
        <time>2015-04-30T10:27:53Z</time>
      </trkpt>
      <trkpt lat="43.76129" lon="3.54136">
        <ele>581</ele>
        <time>2015-04-30T10:28:02Z</time>
      </trkpt>
      <trkpt lat="43.76126" lon="3.54156">
        <ele>582</ele>
        <time>2015-04-30T10:28:16Z</time>
      </trkpt>
      <trkpt lat="43.76133" lon="3.54178">
        <ele>588</ele>
        <time>2015-04-30T10:28:31Z</time>
      </trkpt>
      <trkpt lat="43.76134" lon="3.54179">
        <ele>588</ele>
        <time>2015-04-30T10:28:32Z</time>
      </trkpt>
      <trkpt lat="43.76139" lon="3.54185">
        <ele>587</ele>
        <time>2015-04-30T10:28:36Z</time>
      </trkpt>
      <trkpt lat="43.76158" lon="3.54191">
        <ele>585</ele>
        <time>2015-04-30T10:28:48Z</time>
      </trkpt>
      <trkpt lat="43.76175" lon="3.54188">
        <ele>571</ele>
        <time>2015-04-30T10:28:58Z</time>
      </trkpt>
      <trkpt lat="43.76177" lon="3.54189">
        <ele>571</ele>
        <time>2015-04-30T10:28:59Z</time>
      </trkpt>
      <trkpt lat="43.76185" lon="3.54202">
        <ele>572</ele>
        <time>2015-04-30T10:29:04Z</time>
      </trkpt>
      <trkpt lat="43.76188" lon="3.54215">
        <ele>573</ele>
        <time>2015-04-30T10:29:09Z</time>
      </trkpt>
      <trkpt lat="43.76193" lon="3.54233">
        <ele>575</ele>
        <time>2015-04-30T10:29:18Z</time>
      </trkpt>
      <trkpt lat="43.76193" lon="3.54247">
        <ele>576</ele>
        <time>2015-04-30T10:29:27Z</time>
      </trkpt>
      <trkpt lat="43.76196" lon="3.54279">
        <ele>587</ele>
        <time>2015-04-30T10:29:41Z</time>
      </trkpt>
      <trkpt lat="43.76199" lon="3.54303">
        <ele>589</ele>
        <time>2015-04-30T10:29:53Z</time>
      </trkpt>
      <trkpt lat="43.76202" lon="3.54315">
        <ele>590</ele>
        <time>2015-04-30T10:29:58Z</time>
      </trkpt>
      <trkpt lat="43.7621" lon="3.54328">
        <ele>589</ele>
        <time>2015-04-30T10:30:07Z</time>
      </trkpt>
      <trkpt lat="43.76235" lon="3.54335">
        <ele>591</ele>
        <time>2015-04-30T10:30:20Z</time>
      </trkpt>
      <trkpt lat="43.76239" lon="3.54369">
        <ele>597</ele>
        <time>2015-04-30T10:30:35Z</time>
      </trkpt>
      <trkpt lat="43.76243" lon="3.54388">
        <ele>598</ele>
        <time>2015-04-30T10:30:47Z</time>
      </trkpt>
      <trkpt lat="43.76264" lon="3.5439">
        <ele>587</ele>
        <time>2015-04-30T10:30:58Z</time>
      </trkpt>
      <trkpt lat="43.76282" lon="3.54423">
        <ele>593</ele>
        <time>2015-04-30T10:31:12Z</time>
      </trkpt>
      <trkpt lat="43.76289" lon="3.54458">
        <ele>594</ele>
        <time>2015-04-30T10:31:26Z</time>
      </trkpt>
      <trkpt lat="43.7629" lon="3.545">
        <ele>597</ele>
        <time>2015-04-30T10:31:40Z</time>
      </trkpt>
      <trkpt lat="43.7629" lon="3.54506">
        <ele>597</ele>
        <time>2015-04-30T10:31:42Z</time>
      </trkpt>
      <trkpt lat="43.76287" lon="3.54517">
        <ele>598</ele>
        <time>2015-04-30T10:31:46Z</time>
      </trkpt>
      <trkpt lat="43.76285" lon="3.54526">
        <ele>598</ele>
        <time>2015-04-30T10:31:49Z</time>
      </trkpt>
      <trkpt lat="43.76284" lon="3.54537">
        <ele>598</ele>
        <time>2015-04-30T10:31:52Z</time>
      </trkpt>
      <trkpt lat="43.76285" lon="3.5459">
        <ele>601</ele>
        <time>2015-04-30T10:32:08Z</time>
      </trkpt>
      <trkpt lat="43.76285" lon="3.54594">
        <ele>601</ele>
        <time>2015-04-30T10:32:10Z</time>
      </trkpt>
      <trkpt lat="43.76288" lon="3.54596">
        <ele>600</ele>
        <time>2015-04-30T10:32:12Z</time>
      </trkpt>
      <trkpt lat="43.76297" lon="3.54596">
        <ele>598</ele>
        <time>2015-04-30T10:32:16Z</time>
      </trkpt>
      <trkpt lat="43.76324" lon="3.54604">
        <ele>593</ele>
        <time>2015-04-30T10:32:26Z</time>
      </trkpt>
      <trkpt lat="43.76325" lon="3.54621">
        <ele>595</ele>
        <time>2015-04-30T10:32:30Z</time>
      </trkpt>
      <trkpt lat="43.7632" lon="3.54649">
        <ele>596</ele>
        <time>2015-04-30T10:32:39Z</time>
      </trkpt>
      <trkpt lat="43.76334" lon="3.54687">
        <ele>588</ele>
        <time>2015-04-30T10:32:50Z</time>
      </trkpt>
      <trkpt lat="43.76334" lon="3.54688">
        <ele>588</ele>
        <time>2015-04-30T10:32:51Z</time>
      </trkpt>
      <trkpt lat="43.76331" lon="3.54699">
        <ele>600</ele>
        <time>2015-04-30T10:32:56Z</time>
      </trkpt>
      <trkpt lat="43.76332" lon="3.54721">
        <ele>602</ele>
        <time>2015-04-30T10:33:02Z</time>
      </trkpt>
      <trkpt lat="43.76339" lon="3.54737">
        <ele>593</ele>
        <time>2015-04-30T10:33:08Z</time>
      </trkpt>
      <trkpt lat="43.76356" lon="3.54765">
        <ele>593</ele>
        <time>2015-04-30T10:33:17Z</time>
      </trkpt>
      <trkpt lat="43.76355" lon="3.54788">
        <ele>593</ele>
        <time>2015-04-30T10:33:22Z</time>
      </trkpt>
      <trkpt lat="43.76339" lon="3.54844">
        <ele>596</ele>
        <time>2015-04-30T10:33:34Z</time>
      </trkpt>
      <trkpt lat="43.76327" lon="3.54888">
        <ele>597</ele>
        <time>2015-04-30T10:33:44Z</time>
      </trkpt>
      <trkpt lat="43.76297" lon="3.54931">
        <ele>594</ele>
        <time>2015-04-30T10:33:56Z</time>
      </trkpt>
      <trkpt lat="43.76258" lon="3.54973">
        <ele>592</ele>
        <time>2015-04-30T10:34:08Z</time>
      </trkpt>
      <trkpt lat="43.76226" lon="3.55031">
        <ele>588</ele>
        <time>2015-04-30T10:34:18Z</time>
      </trkpt>
      <trkpt lat="43.76213" lon="3.55054">
        <ele>588</ele>
        <time>2015-04-30T10:34:28Z</time>
      </trkpt>
      <trkpt lat="43.76211" lon="3.55057">
        <ele>588</ele>
        <time>2015-04-30T10:34:30Z</time>
      </trkpt>
      <trkpt lat="43.76204" lon="3.5506">
        <ele>588</ele>
        <time>2015-04-30T10:34:34Z</time>
      </trkpt>
      <trkpt lat="43.76182" lon="3.5507">
        <ele>586</ele>
        <time>2015-04-30T10:34:47Z</time>
      </trkpt>
      <trkpt lat="43.76182" lon="3.55072">
        <ele>586</ele>
        <time>2015-04-30T10:34:48Z</time>
      </trkpt>
      <trkpt lat="43.76179" lon="3.55084">
        <ele>586</ele>
        <time>2015-04-30T10:35:03Z</time>
      </trkpt>
      <trkpt lat="43.76176" lon="3.55088">
        <ele>586</ele>
        <time>2015-04-30T10:35:10Z</time>
      </trkpt>
      <trkpt lat="43.76182" lon="3.55118">
        <ele>587</ele>
        <time>2015-04-30T10:35:25Z</time>
      </trkpt>
      <trkpt lat="43.76185" lon="3.55123">
        <ele>587</ele>
        <time>2015-04-30T10:35:39Z</time>
      </trkpt>
      <trkpt lat="43.76184" lon="3.55126">
        <ele>587</ele>
        <time>2015-04-30T10:36:10Z</time>
      </trkpt>
      <trkpt lat="43.76184" lon="3.55128">
        <ele>587</ele>
        <time>2015-04-30T10:36:17Z</time>
      </trkpt>
      <trkpt lat="43.76184" lon="3.55128">
        <ele>587</ele>
        <time>2015-04-30T10:36:18Z</time>
      </trkpt>
      <trkpt lat="43.76184" lon="3.55128">
        <ele>587</ele>
        <time>2015-04-30T10:36:19Z</time>
      </trkpt>
      <trkpt lat="43.76184" lon="3.55126">
        <ele>587</ele>
        <time>2015-04-30T10:36:43Z</time>
      </trkpt>
      <trkpt lat="43.7619" lon="3.55137">
        <ele>587</ele>
        <time>2015-04-30T10:36:59Z</time>
      </trkpt>
      <trkpt lat="43.762" lon="3.5516">
        <ele>587</ele>
        <time>2015-04-30T10:37:11Z</time>
      </trkpt>
      <trkpt lat="43.76216" lon="3.55195">
        <ele>579</ele>
        <time>2015-04-30T10:37:24Z</time>
      </trkpt>
      <trkpt lat="43.76238" lon="3.55194">
        <ele>580</ele>
        <time>2015-04-30T10:37:36Z</time>
      </trkpt>
      <trkpt lat="43.76268" lon="3.55156">
        <ele>590</ele>
        <time>2015-04-30T10:37:49Z</time>
      </trkpt>
      <trkpt lat="43.76291" lon="3.55131">
        <ele>590</ele>
        <time>2015-04-30T10:37:59Z</time>
      </trkpt>
      <trkpt lat="43.76339" lon="3.55104">
        <ele>592</ele>
        <time>2015-04-30T10:38:12Z</time>
      </trkpt>
      <trkpt lat="43.76357" lon="3.55093">
        <ele>592</ele>
        <time>2015-04-30T10:38:19Z</time>
      </trkpt>
      <trkpt lat="43.76369" lon="3.55098">
        <ele>592</ele>
        <time>2015-04-30T10:38:23Z</time>
      </trkpt>
      <trkpt lat="43.76383" lon="3.55108">
        <ele>592</ele>
        <time>2015-04-30T10:38:28Z</time>
      </trkpt>
      <trkpt lat="43.76407" lon="3.55119">
        <ele>592</ele>
        <time>2015-04-30T10:38:40Z</time>
      </trkpt>
      <trkpt lat="43.76417" lon="3.5516">
        <ele>589</ele>
        <time>2015-04-30T10:38:49Z</time>
      </trkpt>
      <trkpt lat="43.76424" lon="3.55171">
        <ele>586</ele>
        <time>2015-04-30T10:38:54Z</time>
      </trkpt>
      <trkpt lat="43.76445" lon="3.55198">
        <ele>585</ele>
        <time>2015-04-30T10:39:07Z</time>
      </trkpt>
      <trkpt lat="43.7646" lon="3.55196">
        <ele>586</ele>
        <time>2015-04-30T10:39:14Z</time>
      </trkpt>
      <trkpt lat="43.76474" lon="3.55195">
        <ele>588</ele>
        <time>2015-04-30T10:39:26Z</time>
      </trkpt>
      <trkpt lat="43.76477" lon="3.55203">
        <ele>588</ele>
        <time>2015-04-30T10:39:29Z</time>
      </trkpt>
      <trkpt lat="43.76483" lon="3.55228">
        <ele>586</ele>
        <time>2015-04-30T10:39:37Z</time>
      </trkpt>
      <trkpt lat="43.76484" lon="3.55244">
        <ele>586</ele>
        <time>2015-04-30T10:39:42Z</time>
      </trkpt>
      <trkpt lat="43.76507" lon="3.55267">
        <ele>589</ele>
        <time>2015-04-30T10:39:55Z</time>
      </trkpt>
      <trkpt lat="43.76529" lon="3.55292">
        <ele>588</ele>
        <time>2015-04-30T10:40:07Z</time>
      </trkpt>
      <trkpt lat="43.76554" lon="3.55309">
        <ele>590</ele>
        <time>2015-04-30T10:40:21Z</time>
      </trkpt>
      <trkpt lat="43.76577" lon="3.55326">
        <ele>591</ele>
        <time>2015-04-30T10:40:34Z</time>
      </trkpt>
      <trkpt lat="43.76583" lon="3.55335">
        <ele>589</ele>
        <time>2015-04-30T10:40:49Z</time>
      </trkpt>
      <trkpt lat="43.76591" lon="3.55347">
        <ele>589</ele>
        <time>2015-04-30T10:41:05Z</time>
      </trkpt>
      <trkpt lat="43.76611" lon="3.55359">
        <ele>588</ele>
        <time>2015-04-30T10:41:15Z</time>
      </trkpt>
      <trkpt lat="43.76642" lon="3.55375">
        <ele>590</ele>
        <time>2015-04-30T10:41:28Z</time>
      </trkpt>
      <trkpt lat="43.76673" lon="3.554">
        <ele>598</ele>
        <time>2015-04-30T10:41:42Z</time>
      </trkpt>
      <trkpt lat="43.7669" lon="3.55411">
        <ele>600</ele>
        <time>2015-04-30T10:41:52Z</time>
      </trkpt>
      <trkpt lat="43.76691" lon="3.55412">
        <ele>600</ele>
        <time>2015-04-30T10:41:53Z</time>
      </trkpt>
      <trkpt lat="43.76696" lon="3.55434">
        <ele>596</ele>
        <time>2015-04-30T10:42:01Z</time>
      </trkpt>
      <trkpt lat="43.76703" lon="3.55457">
        <ele>596</ele>
        <time>2015-04-30T10:42:15Z</time>
      </trkpt>
      <trkpt lat="43.767" lon="3.55464">
        <ele>595</ele>
        <time>2015-04-30T10:42:41Z</time>
      </trkpt>
      <trkpt lat="43.76701" lon="3.55464">
        <ele>595</ele>
        <time>2015-04-30T10:43:16Z</time>
      </trkpt>
      <trkpt lat="43.76708" lon="3.55473">
        <ele>596</ele>
        <time>2015-04-30T10:43:32Z</time>
      </trkpt>
      <trkpt lat="43.76711" lon="3.55484">
        <ele>596</ele>
        <time>2015-04-30T10:43:38Z</time>
      </trkpt>
      <trkpt lat="43.76707" lon="3.55516">
        <ele>595</ele>
        <time>2015-04-30T10:43:47Z</time>
      </trkpt>
      <trkpt lat="43.76702" lon="3.55543">
        <ele>595</ele>
        <time>2015-04-30T10:43:59Z</time>
      </trkpt>
      <trkpt lat="43.76683" lon="3.55592">
        <ele>592</ele>
        <time>2015-04-30T10:44:15Z</time>
      </trkpt>
      <trkpt lat="43.76678" lon="3.55622">
        <ele>594</ele>
        <time>2015-04-30T10:44:26Z</time>
      </trkpt>
      <trkpt lat="43.76687" lon="3.55654">
        <ele>593</ele>
        <time>2015-04-30T10:44:41Z</time>
      </trkpt>
      <trkpt lat="43.76701" lon="3.55678">
        <ele>592</ele>
        <time>2015-04-30T10:44:55Z</time>
      </trkpt>
      <trkpt lat="43.76721" lon="3.55682">
        <ele>598</ele>
        <time>2015-04-30T10:45:10Z</time>
      </trkpt>
      <trkpt lat="43.7673" lon="3.55689">
        <ele>599</ele>
        <time>2015-04-30T10:45:16Z</time>
      </trkpt>
      <trkpt lat="43.76733" lon="3.5569">
        <ele>600</ele>
        <time>2015-04-30T10:45:19Z</time>
      </trkpt>
      <trkpt lat="43.76739" lon="3.55687">
        <ele>602</ele>
        <time>2015-04-30T10:45:24Z</time>
      </trkpt>
      <trkpt lat="43.76756" lon="3.55695">
        <ele>616</ele>
        <time>2015-04-30T10:45:38Z</time>
      </trkpt>
      <trkpt lat="43.76756" lon="3.55698">
        <ele>616</ele>
        <time>2015-04-30T10:46:12Z</time>
      </trkpt>
      <trkpt lat="43.76754" lon="3.55702">
        <ele>616</ele>
        <time>2015-04-30T10:46:46Z</time>
      </trkpt>
      <trkpt lat="43.76756" lon="3.55695">
        <ele>616</ele>
        <time>2015-04-30T10:47:26Z</time>
      </trkpt>
      <trkpt lat="43.76752" lon="3.55701">
        <ele>616</ele>
        <time>2015-04-30T10:48:08Z</time>
      </trkpt>
      <trkpt lat="43.7675" lon="3.55703">
        <ele>599</ele>
        <time>2015-04-30T10:48:45Z</time>
      </trkpt>
      <trkpt lat="43.76753" lon="3.55698">
        <ele>616</ele>
        <time>2015-04-30T10:49:21Z</time>
      </trkpt>
      <trkpt lat="43.76754" lon="3.55699">
        <ele>616</ele>
        <time>2015-04-30T10:50:02Z</time>
      </trkpt>
      <trkpt lat="43.76753" lon="3.55697">
        <ele>616</ele>
        <time>2015-04-30T10:50:28Z</time>
      </trkpt>
      <trkpt lat="43.76758" lon="3.55704">
        <ele>616</ele>
        <time>2015-04-30T10:50:43Z</time>
      </trkpt>
      <trkpt lat="43.76763" lon="3.55706">
        <ele>616</ele>
        <time>2015-04-30T10:50:47Z</time>
      </trkpt>
      <trkpt lat="43.76766" lon="3.55707">
        <ele>616</ele>
        <time>2015-04-30T10:50:49Z</time>
      </trkpt>
      <trkpt lat="43.76775" lon="3.55716">
        <ele>617</ele>
        <time>2015-04-30T10:50:56Z</time>
      </trkpt>
      <trkpt lat="43.76779" lon="3.55727">
        <ele>616</ele>
        <time>2015-04-30T10:51:02Z</time>
      </trkpt>
      <trkpt lat="43.76779" lon="3.55747">
        <ele>615</ele>
        <time>2015-04-30T10:51:11Z</time>
      </trkpt>
      <trkpt lat="43.76774" lon="3.5578">
        <ele>617</ele>
        <time>2015-04-30T10:51:28Z</time>
      </trkpt>
      <trkpt lat="43.7677" lon="3.55795">
        <ele>618</ele>
        <time>2015-04-30T10:51:43Z</time>
      </trkpt>
      <trkpt lat="43.76766" lon="3.55801">
        <ele>618</ele>
        <time>2015-04-30T10:52:08Z</time>
      </trkpt>
      <trkpt lat="43.76758" lon="3.55816">
        <ele>617</ele>
        <time>2015-04-30T10:52:25Z</time>
      </trkpt>
      <trkpt lat="43.76754" lon="3.55826">
        <ele>616</ele>
        <time>2015-04-30T10:52:39Z</time>
      </trkpt>
      <trkpt lat="43.76753" lon="3.55826">
        <ele>616</ele>
        <time>2015-04-30T10:53:11Z</time>
      </trkpt>
      <trkpt lat="43.76754" lon="3.55828">
        <ele>616</ele>
        <time>2015-04-30T10:53:41Z</time>
      </trkpt>
      <trkpt lat="43.76752" lon="3.55825">
        <ele>616</ele>
        <time>2015-04-30T10:54:08Z</time>
      </trkpt>
      <trkpt lat="43.7675" lon="3.55835">
        <ele>616</ele>
        <time>2015-04-30T10:54:31Z</time>
      </trkpt>
      <trkpt lat="43.76744" lon="3.55847">
        <ele>615</ele>
        <time>2015-04-30T10:54:47Z</time>
      </trkpt>
      <trkpt lat="43.76735" lon="3.5586">
        <ele>616</ele>
        <time>2015-04-30T10:55:03Z</time>
      </trkpt>
      <trkpt lat="43.76725" lon="3.5587">
        <ele>616</ele>
        <time>2015-04-30T10:55:18Z</time>
      </trkpt>
      <trkpt lat="43.76719" lon="3.55878">
        <ele>617</ele>
        <time>2015-04-30T10:55:31Z</time>
      </trkpt>
      <trkpt lat="43.76705" lon="3.55888">
        <ele>616</ele>
        <time>2015-04-30T10:55:47Z</time>
      </trkpt>
      <trkpt lat="43.76704" lon="3.5589">
        <ele>617</ele>
        <time>2015-04-30T10:56:02Z</time>
      </trkpt>
      <trkpt lat="43.767" lon="3.55902">
        <ele>617</ele>
        <time>2015-04-30T10:56:20Z</time>
      </trkpt>
      <trkpt lat="43.76699" lon="3.55914">
        <ele>618</ele>
        <time>2015-04-30T10:56:37Z</time>
      </trkpt>
      <trkpt lat="43.7669" lon="3.55918">
        <ele>628</ele>
        <time>2015-04-30T10:56:54Z</time>
      </trkpt>
      <trkpt lat="43.76689" lon="3.55919">
        <ele>628</ele>
        <time>2015-04-30T10:56:55Z</time>
      </trkpt>
      <trkpt lat="43.76677" lon="3.55927">
        <ele>625</ele>
        <time>2015-04-30T10:57:10Z</time>
      </trkpt>
      <trkpt lat="43.76673" lon="3.55933">
        <ele>626</ele>
        <time>2015-04-30T10:57:28Z</time>
      </trkpt>
      <trkpt lat="43.76667" lon="3.55938">
        <ele>615</ele>
        <time>2015-04-30T10:57:53Z</time>
      </trkpt>
      <trkpt lat="43.76655" lon="3.55946">
        <ele>615</ele>
        <time>2015-04-30T10:58:11Z</time>
      </trkpt>
      <trkpt lat="43.76653" lon="3.55951">
        <ele>615</ele>
        <time>2015-04-30T10:58:26Z</time>
      </trkpt>
      <trkpt lat="43.76661" lon="3.55949">
        <ele>615</ele>
        <time>2015-04-30T10:58:44Z</time>
      </trkpt>
      <trkpt lat="43.76671" lon="3.55948">
        <ele>630</ele>
        <time>2015-04-30T10:59:00Z</time>
      </trkpt>
      <trkpt lat="43.76679" lon="3.55945">
        <ele>630</ele>
        <time>2015-04-30T10:59:14Z</time>
      </trkpt>
      <trkpt lat="43.76685" lon="3.55946">
        <ele>631</ele>
        <time>2015-04-30T10:59:26Z</time>
      </trkpt>
      <trkpt lat="43.76692" lon="3.55948">
        <ele>632</ele>
        <time>2015-04-30T10:59:30Z</time>
      </trkpt>
      <trkpt lat="43.76698" lon="3.55949">
        <ele>633</ele>
        <time>2015-04-30T10:59:34Z</time>
      </trkpt>
      <trkpt lat="43.76707" lon="3.55947">
        <ele>634</ele>
        <time>2015-04-30T10:59:39Z</time>
      </trkpt>
      <trkpt lat="43.76713" lon="3.55939">
        <ele>634</ele>
        <time>2015-04-30T10:59:44Z</time>
      </trkpt>
      <trkpt lat="43.76733" lon="3.55913">
        <ele>626</ele>
        <time>2015-04-30T10:59:59Z</time>
      </trkpt>
      <trkpt lat="43.76739" lon="3.55908">
        <ele>627</ele>
        <time>2015-04-30T11:00:04Z</time>
      </trkpt>
      <trkpt lat="43.76765" lon="3.55892">
        <ele>634</ele>
        <time>2015-04-30T11:00:22Z</time>
      </trkpt>
      <trkpt lat="43.76786" lon="3.55877">
        <ele>633</ele>
        <time>2015-04-30T11:00:36Z</time>
      </trkpt>
      <trkpt lat="43.76795" lon="3.55872">
        <ele>634</ele>
        <time>2015-04-30T11:00:42Z</time>
      </trkpt>
      <trkpt lat="43.76816" lon="3.55845">
        <ele>635</ele>
        <time>2015-04-30T11:01:00Z</time>
      </trkpt>
      <trkpt lat="43.76826" lon="3.55828">
        <ele>634</ele>
        <time>2015-04-30T11:01:10Z</time>
      </trkpt>
      <trkpt lat="43.76836" lon="3.55803">
        <ele>638</ele>
        <time>2015-04-30T11:01:25Z</time>
      </trkpt>
      <trkpt lat="43.76839" lon="3.55802">
        <ele>638</ele>
        <time>2015-04-30T11:01:27Z</time>
      </trkpt>
      <trkpt lat="43.76851" lon="3.55807">
        <ele>638</ele>
        <time>2015-04-30T11:01:40Z</time>
      </trkpt>
      <trkpt lat="43.76854" lon="3.55808">
        <ele>638</ele>
        <time>2015-04-30T11:01:42Z</time>
      </trkpt>
      <trkpt lat="43.76866" lon="3.55824">
        <ele>639</ele>
        <time>2015-04-30T11:01:55Z</time>
      </trkpt>
      <trkpt lat="43.76871" lon="3.55841">
        <ele>641</ele>
        <time>2015-04-30T11:02:07Z</time>
      </trkpt>
      <trkpt lat="43.76875" lon="3.55835">
        <ele>641</ele>
        <time>2015-04-30T11:04:04Z</time>
      </trkpt>
      <trkpt lat="43.76876" lon="3.5584">
        <ele>641</ele>
        <time>2015-04-30T11:06:47Z</time>
      </trkpt>
      <trkpt lat="43.76872" lon="3.5584">
        <ele>641</ele>
        <time>2015-04-30T11:08:15Z</time>
      </trkpt>
      <trkpt lat="43.76871" lon="3.55846">
        <ele>641</ele>
        <time>2015-04-30T11:08:27Z</time>
      </trkpt>
      <trkpt lat="43.7686" lon="3.55881">
        <ele>642</ele>
        <time>2015-04-30T11:08:43Z</time>
      </trkpt>
      <trkpt lat="43.76853" lon="3.55896">
        <ele>642</ele>
        <time>2015-04-30T11:08:50Z</time>
      </trkpt>
      <trkpt lat="43.76851" lon="3.55899">
        <ele>643</ele>
        <time>2015-04-30T11:08:51Z</time>
      </trkpt>
      <trkpt lat="43.7685" lon="3.55902">
        <ele>643</ele>
        <time>2015-04-30T11:08:52Z</time>
      </trkpt>
      <trkpt lat="43.76829" lon="3.55949">
        <ele>644</ele>
        <time>2015-04-30T11:09:07Z</time>
      </trkpt>
      <trkpt lat="43.76829" lon="3.55987">
        <ele>644</ele>
        <time>2015-04-30T11:09:18Z</time>
      </trkpt>
      <trkpt lat="43.76841" lon="3.56018">
        <ele>643</ele>
        <time>2015-04-30T11:09:31Z</time>
      </trkpt>
      <trkpt lat="43.76842" lon="3.5602">
        <ele>643</ele>
        <time>2015-04-30T11:09:32Z</time>
      </trkpt>
      <trkpt lat="43.76869" lon="3.56043">
        <ele>643</ele>
        <time>2015-04-30T11:09:45Z</time>
      </trkpt>
      <trkpt lat="43.76875" lon="3.56063">
        <ele>644</ele>
        <time>2015-04-30T11:09:51Z</time>
      </trkpt>
      <trkpt lat="43.76877" lon="3.56101">
        <ele>652</ele>
        <time>2015-04-30T11:10:03Z</time>
      </trkpt>
      <trkpt lat="43.76894" lon="3.56121">
        <ele>652</ele>
        <time>2015-04-30T11:10:14Z</time>
      </trkpt>
      <trkpt lat="43.7692" lon="3.56142">
        <ele>639</ele>
        <time>2015-04-30T11:10:26Z</time>
      </trkpt>
      <trkpt lat="43.76919" lon="3.5617">
        <ele>648</ele>
        <time>2015-04-30T11:10:33Z</time>
      </trkpt>
      <trkpt lat="43.76926" lon="3.56194">
        <ele>641</ele>
        <time>2015-04-30T11:10:38Z</time>
      </trkpt>
      <trkpt lat="43.76922" lon="3.56214">
        <ele>641</ele>
        <time>2015-04-30T11:10:43Z</time>
      </trkpt>
      <trkpt lat="43.76925" lon="3.56272">
        <ele>646</ele>
        <time>2015-04-30T11:10:55Z</time>
      </trkpt>
      <trkpt lat="43.76944" lon="3.5631">
        <ele>643</ele>
        <time>2015-04-30T11:11:07Z</time>
      </trkpt>
      <trkpt lat="43.76956" lon="3.56329">
        <ele>641</ele>
        <time>2015-04-30T11:11:15Z</time>
      </trkpt>
      <trkpt lat="43.76957" lon="3.56332">
        <ele>641</ele>
        <time>2015-04-30T11:11:17Z</time>
      </trkpt>
      <trkpt lat="43.76979" lon="3.56361">
        <ele>643</ele>
        <time>2015-04-30T11:11:30Z</time>
      </trkpt>
      <trkpt lat="43.76983" lon="3.56366">
        <ele>643</ele>
        <time>2015-04-30T11:11:32Z</time>
      </trkpt>
      <trkpt lat="43.76989" lon="3.56406">
        <ele>642</ele>
        <time>2015-04-30T11:11:42Z</time>
      </trkpt>
      <trkpt lat="43.76993" lon="3.56417">
        <ele>641</ele>
        <time>2015-04-30T11:11:44Z</time>
      </trkpt>
      <trkpt lat="43.77004" lon="3.56448">
        <ele>633</ele>
        <time>2015-04-30T11:11:50Z</time>
      </trkpt>
      <trkpt lat="43.77016" lon="3.56479">
        <ele>632</ele>
        <time>2015-04-30T11:11:55Z</time>
      </trkpt>
      <trkpt lat="43.77019" lon="3.56486">
        <ele>632</ele>
        <time>2015-04-30T11:11:56Z</time>
      </trkpt>
      <trkpt lat="43.77027" lon="3.56508">
        <ele>630</ele>
        <time>2015-04-30T11:11:59Z</time>
      </trkpt>
      <trkpt lat="43.77042" lon="3.56547">
        <ele>628</ele>
        <time>2015-04-30T11:12:04Z</time>
      </trkpt>
      <trkpt lat="43.77055" lon="3.56581">
        <ele>625</ele>
        <time>2015-04-30T11:12:09Z</time>
      </trkpt>
      <trkpt lat="43.77059" lon="3.56593">
        <ele>627</ele>
        <time>2015-04-30T11:12:11Z</time>
      </trkpt>
      <trkpt lat="43.7706" lon="3.56603">
        <ele>627</ele>
        <time>2015-04-30T11:12:13Z</time>
      </trkpt>
      <trkpt lat="43.77064" lon="3.56621">
        <ele>628</ele>
        <time>2015-04-30T11:12:19Z</time>
      </trkpt>
      <trkpt lat="43.77073" lon="3.5664">
        <ele>628</ele>
        <time>2015-04-30T11:12:24Z</time>
      </trkpt>
      <trkpt lat="43.77079" lon="3.56664">
        <ele>623</ele>
        <time>2015-04-30T11:12:30Z</time>
      </trkpt>
      <trkpt lat="43.7709" lon="3.56696">
        <ele>616</ele>
        <time>2015-04-30T11:12:37Z</time>
      </trkpt>
      <trkpt lat="43.77109" lon="3.56726">
        <ele>615</ele>
        <time>2015-04-30T11:12:45Z</time>
      </trkpt>
      <trkpt lat="43.77124" lon="3.56749">
        <ele>613</ele>
        <time>2015-04-30T11:12:53Z</time>
      </trkpt>
      <trkpt lat="43.77136" lon="3.56763">
        <ele>616</ele>
        <time>2015-04-30T11:12:59Z</time>
      </trkpt>
      <trkpt lat="43.77148" lon="3.56777">
        <ele>615</ele>
        <time>2015-04-30T11:13:10Z</time>
      </trkpt>
      <trkpt lat="43.77156" lon="3.56774">
        <ele>613</ele>
        <time>2015-04-30T11:13:13Z</time>
      </trkpt>
      <trkpt lat="43.77175" lon="3.56763">
        <ele>598</ele>
        <time>2015-04-30T11:13:23Z</time>
      </trkpt>
      <trkpt lat="43.77177" lon="3.56762">
        <ele>598</ele>
        <time>2015-04-30T11:13:24Z</time>
      </trkpt>
      <trkpt lat="43.77198" lon="3.56763">
        <ele>595</ele>
        <time>2015-04-30T11:13:33Z</time>
      </trkpt>
      <trkpt lat="43.77218" lon="3.56773">
        <ele>592</ele>
        <time>2015-04-30T11:13:40Z</time>
      </trkpt>
      <trkpt lat="43.77237" lon="3.56789">
        <ele>591</ele>
        <time>2015-04-30T11:13:49Z</time>
      </trkpt>
      <trkpt lat="43.77246" lon="3.56801">
        <ele>591</ele>
        <time>2015-04-30T11:13:54Z</time>
      </trkpt>
      <trkpt lat="43.77258" lon="3.56815">
        <ele>578</ele>
        <time>2015-04-30T11:14:00Z</time>
      </trkpt>
      <trkpt lat="43.77266" lon="3.56827">
        <ele>578</ele>
        <time>2015-04-30T11:14:04Z</time>
      </trkpt>
      <trkpt lat="43.77285" lon="3.56854">
        <ele>578</ele>
        <time>2015-04-30T11:14:15Z</time>
      </trkpt>
      <trkpt lat="43.77297" lon="3.56878">
        <ele>577</ele>
        <time>2015-04-30T11:14:24Z</time>
      </trkpt>
      <trkpt lat="43.77298" lon="3.56883">
        <ele>577</ele>
        <time>2015-04-30T11:14:26Z</time>
      </trkpt>
      <trkpt lat="43.77306" lon="3.56906">
        <ele>575</ele>
        <time>2015-04-30T11:14:32Z</time>
      </trkpt>
      <trkpt lat="43.77314" lon="3.56933">
        <ele>576</ele>
        <time>2015-04-30T11:14:37Z</time>
      </trkpt>
      <trkpt lat="43.77316" lon="3.56939">
        <ele>577</ele>
        <time>2015-04-30T11:14:38Z</time>
      </trkpt>
      <trkpt lat="43.77321" lon="3.56961">
        <ele>577</ele>
        <time>2015-04-30T11:14:41Z</time>
      </trkpt>
      <trkpt lat="43.77326" lon="3.56973">
        <ele>575</ele>
        <time>2015-04-30T11:14:43Z</time>
      </trkpt>
      <trkpt lat="43.77334" lon="3.57">
        <ele>564</ele>
        <time>2015-04-30T11:14:47Z</time>
      </trkpt>
      <trkpt lat="43.7734" lon="3.57025">
        <ele>560</ele>
        <time>2015-04-30T11:14:51Z</time>
      </trkpt>
      <trkpt lat="43.77347" lon="3.57041">
        <ele>560</ele>
        <time>2015-04-30T11:14:56Z</time>
      </trkpt>
      <trkpt lat="43.77349" lon="3.57042">
        <ele>560</ele>
        <time>2015-04-30T11:14:57Z</time>
      </trkpt>
      <trkpt lat="43.7735" lon="3.5705">
        <ele>560</ele>
        <time>2015-04-30T11:15:13Z</time>
      </trkpt>
      <trkpt lat="43.77352" lon="3.5705">
        <ele>560</ele>
        <time>2015-04-30T11:15:34Z</time>
      </trkpt>
      <trkpt lat="43.77373" lon="3.57069">
        <ele>558</ele>
        <time>2015-04-30T11:15:45Z</time>
      </trkpt>
      <trkpt lat="43.7739" lon="3.57084">
        <ele>556</ele>
        <time>2015-04-30T11:15:53Z</time>
      </trkpt>
      <trkpt lat="43.77414" lon="3.57093">
        <ele>553</ele>
        <time>2015-04-30T11:16:03Z</time>
      </trkpt>
      <trkpt lat="43.77434" lon="3.57107">
        <ele>546</ele>
        <time>2015-04-30T11:16:10Z</time>
      </trkpt>
      <trkpt lat="43.77468" lon="3.57145">
        <ele>541</ele>
        <time>2015-04-30T11:16:21Z</time>
      </trkpt>
      <trkpt lat="43.77478" lon="3.57157">
        <ele>539</ele>
        <time>2015-04-30T11:16:31Z</time>
      </trkpt>
      <trkpt lat="43.77473" lon="3.57148">
        <ele>540</ele>
        <time>2015-04-30T11:16:51Z</time>
      </trkpt>
      <trkpt lat="43.77469" lon="3.57142">
        <ele>541</ele>
        <time>2015-04-30T11:17:09Z</time>
      </trkpt>
      <trkpt lat="43.77465" lon="3.57133">
        <ele>542</ele>
        <time>2015-04-30T11:17:21Z</time>
      </trkpt>
      <trkpt lat="43.77462" lon="3.57121">
        <ele>543</ele>
        <time>2015-04-30T11:17:36Z</time>
      </trkpt>
      <trkpt lat="43.77459" lon="3.5711">
        <ele>543</ele>
        <time>2015-04-30T11:17:48Z</time>
      </trkpt>
      <trkpt lat="43.77458" lon="3.57104">
        <ele>543</ele>
        <time>2015-04-30T11:17:54Z</time>
      </trkpt>
      <trkpt lat="43.77456" lon="3.57098">
        <ele>543</ele>
        <time>2015-04-30T11:17:57Z</time>
      </trkpt>
      <trkpt lat="43.77446" lon="3.57065">
        <ele>546</ele>
        <time>2015-04-30T11:18:13Z</time>
      </trkpt>
      <trkpt lat="43.77443" lon="3.57049">
        <ele>546</ele>
        <time>2015-04-30T11:18:31Z</time>
      </trkpt>
      <trkpt lat="43.77441" lon="3.57041">
        <ele>546</ele>
        <time>2015-04-30T11:18:55Z</time>
      </trkpt>
      <trkpt lat="43.77451" lon="3.57031">
        <ele>545</ele>
        <time>2015-04-30T11:23:20Z</time>
      </trkpt>
      <trkpt lat="43.77443" lon="3.57027">
        <ele>546</ele>
        <time>2015-04-30T11:23:37Z</time>
      </trkpt>
      <trkpt lat="43.77439" lon="3.57021">
        <ele>546</ele>
        <time>2015-04-30T11:24:00Z</time>
      </trkpt>
      <trkpt lat="43.77427" lon="3.57011">
        <ele>546</ele>
        <time>2015-04-30T11:24:14Z</time>
      </trkpt>
      <trkpt lat="43.77416" lon="3.56988">
        <ele>550</ele>
        <time>2015-04-30T11:24:28Z</time>
      </trkpt>
      <trkpt lat="43.77404" lon="3.56962">
        <ele>555</ele>
        <time>2015-04-30T11:24:44Z</time>
      </trkpt>
      <trkpt lat="43.77392" lon="3.56949">
        <ele>556</ele>
        <time>2015-04-30T11:25:06Z</time>
      </trkpt>
      <trkpt lat="43.77389" lon="3.56949">
        <ele>556</ele>
        <time>2015-04-30T11:25:28Z</time>
      </trkpt>
      <trkpt lat="43.77385" lon="3.56945">
        <ele>557</ele>
        <time>2015-04-30T11:25:59Z</time>
      </trkpt>
      <trkpt lat="43.77393" lon="3.5695">
        <ele>556</ele>
        <time>2015-04-30T11:26:29Z</time>
      </trkpt>
      <trkpt lat="43.77393" lon="3.56946">
        <ele>556</ele>
        <time>2015-04-30T11:26:58Z</time>
      </trkpt>
      <trkpt lat="43.77389" lon="3.56921">
        <ele>557</ele>
        <time>2015-04-30T11:27:14Z</time>
      </trkpt>
      <trkpt lat="43.77381" lon="3.56907">
        <ele>558</ele>
        <time>2015-04-30T11:27:28Z</time>
      </trkpt>
      <trkpt lat="43.77377" lon="3.56892">
        <ele>558</ele>
        <time>2015-04-30T11:27:43Z</time>
      </trkpt>
      <trkpt lat="43.77374" lon="3.56879">
        <ele>558</ele>
        <time>2015-04-30T11:27:59Z</time>
      </trkpt>
      <trkpt lat="43.77371" lon="3.56871">
        <ele>558</ele>
        <time>2015-04-30T11:28:17Z</time>
      </trkpt>
      <trkpt lat="43.7737" lon="3.56862">
        <ele>557</ele>
        <time>2015-04-30T11:28:36Z</time>
      </trkpt>
      <trkpt lat="43.77367" lon="3.5685">
        <ele>557</ele>
        <time>2015-04-30T11:28:53Z</time>
      </trkpt>
      <trkpt lat="43.77366" lon="3.56842">
        <ele>557</ele>
        <time>2015-04-30T11:29:09Z</time>
      </trkpt>
      <trkpt lat="43.77364" lon="3.56825">
        <ele>555</ele>
        <time>2015-04-30T11:29:24Z</time>
      </trkpt>
      <trkpt lat="43.77369" lon="3.56822">
        <ele>555</ele>
        <time>2015-04-30T11:29:39Z</time>
      </trkpt>
      <trkpt lat="43.77369" lon="3.56817">
        <ele>555</ele>
        <time>2015-04-30T11:29:47Z</time>
      </trkpt>
      <trkpt lat="43.77368" lon="3.56805">
        <ele>554</ele>
        <time>2015-04-30T11:29:52Z</time>
      </trkpt>
      <trkpt lat="43.77366" lon="3.56802">
        <ele>554</ele>
        <time>2015-04-30T11:29:53Z</time>
      </trkpt>
      <trkpt lat="43.77358" lon="3.56778">
        <ele>555</ele>
        <time>2015-04-30T11:29:59Z</time>
      </trkpt>
      <trkpt lat="43.77349" lon="3.56742">
        <ele>556</ele>
        <time>2015-04-30T11:30:04Z</time>
      </trkpt>
      <trkpt lat="43.77348" lon="3.5672">
        <ele>556</ele>
        <time>2015-04-30T11:30:07Z</time>
      </trkpt>
      <trkpt lat="43.77343" lon="3.56685">
        <ele>557</ele>
        <time>2015-04-30T11:30:14Z</time>
      </trkpt>
      <trkpt lat="43.77369" lon="3.56682">
        <ele>556</ele>
        <time>2015-04-30T11:30:29Z</time>
      </trkpt>
      <trkpt lat="43.77392" lon="3.56668">
        <ele>555</ele>
        <time>2015-04-30T11:30:43Z</time>
      </trkpt>
      <trkpt lat="43.774" lon="3.56669">
        <ele>555</ele>
        <time>2015-04-30T11:30:50Z</time>
      </trkpt>
      <trkpt lat="43.77421" lon="3.56677">
        <ele>550</ele>
        <time>2015-04-30T11:31:04Z</time>
      </trkpt>
      <trkpt lat="43.77422" lon="3.56676">
        <ele>550</ele>
        <time>2015-04-30T11:31:05Z</time>
      </trkpt>
      <trkpt lat="43.77448" lon="3.56661">
        <ele>547</ele>
        <time>2015-04-30T11:31:24Z</time>
      </trkpt>
      <trkpt lat="43.77464" lon="3.56642">
        <ele>544</ele>
        <time>2015-04-30T11:31:36Z</time>
      </trkpt>
      <trkpt lat="43.77441" lon="3.56599">
        <ele>548</ele>
        <time>2015-04-30T11:31:47Z</time>
      </trkpt>
      <trkpt lat="43.77438" lon="3.56591">
        <ele>549</ele>
        <time>2015-04-30T11:31:48Z</time>
      </trkpt>
      <trkpt lat="43.77428" lon="3.56567">
        <ele>547</ele>
        <time>2015-04-30T11:31:51Z</time>
      </trkpt>
      <trkpt lat="43.77424" lon="3.56528">
        <ele>542</ele>
        <time>2015-04-30T11:31:55Z</time>
      </trkpt>
      <trkpt lat="43.77419" lon="3.56497">
        <ele>542</ele>
        <time>2015-04-30T11:32:01Z</time>
      </trkpt>
      <trkpt lat="43.77413" lon="3.56491">
        <ele>549</ele>
        <time>2015-04-30T11:32:03Z</time>
      </trkpt>
      <trkpt lat="43.77406" lon="3.56482">
        <ele>552</ele>
        <time>2015-04-30T11:32:05Z</time>
      </trkpt>
      <trkpt lat="43.77401" lon="3.56462">
        <ele>553</ele>
        <time>2015-04-30T11:32:08Z</time>
      </trkpt>
      <trkpt lat="43.77402" lon="3.56427">
        <ele>548</ele>
        <time>2015-04-30T11:32:13Z</time>
      </trkpt>
      <trkpt lat="43.77409" lon="3.56393">
        <ele>543</ele>
        <time>2015-04-30T11:32:19Z</time>
      </trkpt>
      <trkpt lat="43.77408" lon="3.56381">
        <ele>543</ele>
        <time>2015-04-30T11:32:21Z</time>
      </trkpt>
      <trkpt lat="43.77408" lon="3.56349">
        <ele>539</ele>
        <time>2015-04-30T11:32:26Z</time>
      </trkpt>
      <trkpt lat="43.77408" lon="3.56342">
        <ele>537</ele>
        <time>2015-04-30T11:32:27Z</time>
      </trkpt>
      <trkpt lat="43.77411" lon="3.56326">
        <ele>533</ele>
        <time>2015-04-30T11:32:29Z</time>
      </trkpt>
      <trkpt lat="43.77397" lon="3.56302">
        <ele>535</ele>
        <time>2015-04-30T11:32:35Z</time>
      </trkpt>
      <trkpt lat="43.77388" lon="3.56309">
        <ele>536</ele>
        <time>2015-04-30T11:32:37Z</time>
      </trkpt>
      <trkpt lat="43.77361" lon="3.56303">
        <ele>539</ele>
        <time>2015-04-30T11:32:44Z</time>
      </trkpt>
      <trkpt lat="43.77364" lon="3.56279">
        <ele>537</ele>
        <time>2015-04-30T11:32:47Z</time>
      </trkpt>
      <trkpt lat="43.77364" lon="3.56268">
        <ele>536</ele>
        <time>2015-04-30T11:32:48Z</time>
      </trkpt>
      <trkpt lat="43.77361" lon="3.56232">
        <ele>530</ele>
        <time>2015-04-30T11:32:51Z</time>
      </trkpt>
      <trkpt lat="43.77355" lon="3.56204">
        <ele>528</ele>
        <time>2015-04-30T11:32:55Z</time>
      </trkpt>
      <trkpt lat="43.77344" lon="3.56155">
        <ele>526</ele>
        <time>2015-04-30T11:33:01Z</time>
      </trkpt>
      <trkpt lat="43.77336" lon="3.56134">
        <ele>525</ele>
        <time>2015-04-30T11:33:04Z</time>
      </trkpt>
      <trkpt lat="43.77335" lon="3.56093">
        <ele>525</ele>
        <time>2015-04-30T11:33:10Z</time>
      </trkpt>
      <trkpt lat="43.77338" lon="3.56054">
        <ele>524</ele>
        <time>2015-04-30T11:33:20Z</time>
      </trkpt>
      <trkpt lat="43.77327" lon="3.56046">
        <ele>531</ele>
        <time>2015-04-30T11:33:24Z</time>
      </trkpt>
      <trkpt lat="43.77302" lon="3.56021">
        <ele>533</ele>
        <time>2015-04-30T11:33:36Z</time>
      </trkpt>
      <trkpt lat="43.77296" lon="3.56004">
        <ele>534</ele>
        <time>2015-04-30T11:33:41Z</time>
      </trkpt>
      <trkpt lat="43.77298" lon="3.55978">
        <ele>534</ele>
        <time>2015-04-30T11:33:47Z</time>
      </trkpt>
      <trkpt lat="43.77336" lon="3.55962">
        <ele>526</ele>
        <time>2015-04-30T11:33:57Z</time>
      </trkpt>
      <trkpt lat="43.77342" lon="3.55968">
        <ele>525</ele>
        <time>2015-04-30T11:33:59Z</time>
      </trkpt>
      <trkpt lat="43.77346" lon="3.55969">
        <ele>525</ele>
        <time>2015-04-30T11:34:00Z</time>
      </trkpt>
      <trkpt lat="43.77352" lon="3.55951">
        <ele>525</ele>
        <time>2015-04-30T11:34:05Z</time>
      </trkpt>
      <trkpt lat="43.7734" lon="3.55928">
        <ele>526</ele>
        <time>2015-04-30T11:34:10Z</time>
      </trkpt>
      <trkpt lat="43.77342" lon="3.55888">
        <ele>530</ele>
        <time>2015-04-30T11:34:18Z</time>
      </trkpt>
      <trkpt lat="43.7737" lon="3.55885">
        <ele>530</ele>
        <time>2015-04-30T11:34:32Z</time>
      </trkpt>
      <trkpt lat="43.77401" lon="3.55863">
        <ele>532</ele>
        <time>2015-04-30T11:34:46Z</time>
      </trkpt>
      <trkpt lat="43.77414" lon="3.5585">
        <ele>534</ele>
        <time>2015-04-30T11:34:53Z</time>
      </trkpt>
      <trkpt lat="43.77425" lon="3.55857">
        <ele>541</ele>
        <time>2015-04-30T11:34:59Z</time>
      </trkpt>
      <trkpt lat="43.77431" lon="3.55895">
        <ele>538</ele>
        <time>2015-04-30T11:35:10Z</time>
      </trkpt>
      <trkpt lat="43.77464" lon="3.55916">
        <ele>543</ele>
        <time>2015-04-30T11:35:25Z</time>
      </trkpt>
      <trkpt lat="43.77483" lon="3.55945">
        <ele>536</ele>
        <time>2015-04-30T11:35:39Z</time>
      </trkpt>
      <trkpt lat="43.77511" lon="3.55983">
        <ele>540</ele>
        <time>2015-04-30T11:35:55Z</time>
      </trkpt>
      <trkpt lat="43.77545" lon="3.55995">
        <ele>546</ele>
        <time>2015-04-30T11:36:12Z</time>
      </trkpt>
      <trkpt lat="43.7757" lon="3.56008">
        <ele>543</ele>
        <time>2015-04-30T11:36:27Z</time>
      </trkpt>
      <trkpt lat="43.77571" lon="3.56009">
        <ele>543</ele>
        <time>2015-04-30T11:36:28Z</time>
      </trkpt>
      <trkpt lat="43.77577" lon="3.56044">
        <ele>537</ele>
        <time>2015-04-30T11:36:44Z</time>
      </trkpt>
      <trkpt lat="43.7758" lon="3.56051">
        <ele>536</ele>
        <time>2015-04-30T11:36:47Z</time>
      </trkpt>
      <trkpt lat="43.77592" lon="3.56069">
        <ele>544</ele>
        <time>2015-04-30T11:36:59Z</time>
      </trkpt>
      <trkpt lat="43.77622" lon="3.56078">
        <ele>550</ele>
        <time>2015-04-30T11:37:15Z</time>
      </trkpt>
      <trkpt lat="43.77635" lon="3.56107">
        <ele>544</ele>
        <time>2015-04-30T11:37:28Z</time>
      </trkpt>
      <trkpt lat="43.77641" lon="3.56155">
        <ele>541</ele>
        <time>2015-04-30T11:37:42Z</time>
      </trkpt>
      <trkpt lat="43.77656" lon="3.56173">
        <ele>538</ele>
        <time>2015-04-30T11:37:55Z</time>
      </trkpt>
      <trkpt lat="43.77672" lon="3.56169">
        <ele>544</ele>
        <time>2015-04-30T11:38:08Z</time>
      </trkpt>
      <trkpt lat="43.77694" lon="3.56149">
        <ele>555</ele>
        <time>2015-04-30T11:38:26Z</time>
      </trkpt>
      <trkpt lat="43.77713" lon="3.56145">
        <ele>558</ele>
        <time>2015-04-30T11:38:41Z</time>
      </trkpt>
      <trkpt lat="43.77736" lon="3.56158">
        <ele>559</ele>
        <time>2015-04-30T11:38:56Z</time>
      </trkpt>
      <trkpt lat="43.77749" lon="3.56184">
        <ele>552</ele>
        <time>2015-04-30T11:39:11Z</time>
      </trkpt>
      <trkpt lat="43.7776" lon="3.56207">
        <ele>561</ele>
        <time>2015-04-30T11:39:25Z</time>
      </trkpt>
      <trkpt lat="43.77775" lon="3.56226">
        <ele>560</ele>
        <time>2015-04-30T11:39:39Z</time>
      </trkpt>
      <trkpt lat="43.77795" lon="3.56251">
        <ele>555</ele>
        <time>2015-04-30T11:39:56Z</time>
      </trkpt>
      <trkpt lat="43.77811" lon="3.5628">
        <ele>557</ele>
        <time>2015-04-30T11:40:13Z</time>
      </trkpt>
      <trkpt lat="43.77819" lon="3.56299">
        <ele>556</ele>
        <time>2015-04-30T11:40:24Z</time>
      </trkpt>
      <trkpt lat="43.77821" lon="3.56316">
        <ele>557</ele>
        <time>2015-04-30T11:40:33Z</time>
      </trkpt>
      <trkpt lat="43.77827" lon="3.56319">
        <ele>558</ele>
        <time>2015-04-30T11:40:38Z</time>
      </trkpt>
      <trkpt lat="43.77832" lon="3.56314">
        <ele>558</ele>
        <time>2015-04-30T11:40:42Z</time>
      </trkpt>
      <trkpt lat="43.77829" lon="3.56301">
        <ele>557</ele>
        <time>2015-04-30T11:40:49Z</time>
      </trkpt>
      <trkpt lat="43.7782" lon="3.56262">
        <ele>563</ele>
        <time>2015-04-30T11:41:08Z</time>
      </trkpt>
      <trkpt lat="43.77809" lon="3.56228">
        <ele>566</ele>
        <time>2015-04-30T11:41:25Z</time>
      </trkpt>
      <trkpt lat="43.77794" lon="3.56189">
        <ele>566</ele>
        <time>2015-04-30T11:41:40Z</time>
      </trkpt>
      <trkpt lat="43.77779" lon="3.56143">
        <ele>572</ele>
        <time>2015-04-30T11:41:57Z</time>
      </trkpt>
      <trkpt lat="43.77762" lon="3.56096">
        <ele>574</ele>
        <time>2015-04-30T11:42:13Z</time>
      </trkpt>
      <trkpt lat="43.77748" lon="3.56051">
        <ele>572</ele>
        <time>2015-04-30T11:42:28Z</time>
      </trkpt>
      <trkpt lat="43.7773" lon="3.55989">
        <ele>579</ele>
        <time>2015-04-30T11:42:48Z</time>
      </trkpt>
      <trkpt lat="43.77713" lon="3.55933">
        <ele>579</ele>
        <time>2015-04-30T11:43:06Z</time>
      </trkpt>
      <trkpt lat="43.77684" lon="3.55884">
        <ele>582</ele>
        <time>2015-04-30T11:43:25Z</time>
      </trkpt>
      <trkpt lat="43.77667" lon="3.55831">
        <ele>583</ele>
        <time>2015-04-30T11:43:43Z</time>
      </trkpt>
      <trkpt lat="43.77643" lon="3.55779">
        <ele>586</ele>
        <time>2015-04-30T11:44:01Z</time>
      </trkpt>
      <trkpt lat="43.77616" lon="3.55738">
        <ele>590</ele>
        <time>2015-04-30T11:44:18Z</time>
      </trkpt>
      <trkpt lat="43.77595" lon="3.55704">
        <ele>591</ele>
        <time>2015-04-30T11:44:34Z</time>
      </trkpt>
      <trkpt lat="43.77575" lon="3.5566">
        <ele>592</ele>
        <time>2015-04-30T11:44:52Z</time>
      </trkpt>
      <trkpt lat="43.77554" lon="3.55616">
        <ele>592</ele>
        <time>2015-04-30T11:45:09Z</time>
      </trkpt>
      <trkpt lat="43.7755" lon="3.55567">
        <ele>594</ele>
        <time>2015-04-30T11:45:25Z</time>
      </trkpt>
      <trkpt lat="43.77559" lon="3.55524">
        <ele>595</ele>
        <time>2015-04-30T11:45:41Z</time>
      </trkpt>
      <trkpt lat="43.7758" lon="3.55509">
        <ele>597</ele>
        <time>2015-04-30T11:45:54Z</time>
      </trkpt>
      <trkpt lat="43.7761" lon="3.55492">
        <ele>599</ele>
        <time>2015-04-30T11:46:08Z</time>
      </trkpt>
      <trkpt lat="43.77643" lon="3.55447">
        <ele>599</ele>
        <time>2015-04-30T11:46:23Z</time>
      </trkpt>
      <trkpt lat="43.77683" lon="3.55399">
        <ele>598</ele>
        <time>2015-04-30T11:46:39Z</time>
      </trkpt>
      <trkpt lat="43.77735" lon="3.55391">
        <ele>598</ele>
        <time>2015-04-30T11:46:52Z</time>
      </trkpt>
      <trkpt lat="43.77789" lon="3.55369">
        <ele>596</ele>
        <time>2015-04-30T11:47:06Z</time>
      </trkpt>
      <trkpt lat="43.77818" lon="3.55327">
        <ele>594</ele>
        <time>2015-04-30T11:47:18Z</time>
      </trkpt>
      <trkpt lat="43.77824" lon="3.55287">
        <ele>592</ele>
        <time>2015-04-30T11:47:26Z</time>
      </trkpt>
      <trkpt lat="43.77829" lon="3.5528">
        <ele>592</ele>
        <time>2015-04-30T11:47:28Z</time>
      </trkpt>
      <trkpt lat="43.77852" lon="3.55299">
        <ele>588</ele>
        <time>2015-04-30T11:47:36Z</time>
      </trkpt>
      <trkpt lat="43.77854" lon="3.55304">
        <ele>588</ele>
        <time>2015-04-30T11:47:37Z</time>
      </trkpt>
      <trkpt lat="43.77859" lon="3.55313">
        <ele>588</ele>
        <time>2015-04-30T11:47:39Z</time>
      </trkpt>
      <trkpt lat="43.77889" lon="3.55335">
        <ele>588</ele>
        <time>2015-04-30T11:47:45Z</time>
      </trkpt>
      <trkpt lat="43.7792" lon="3.55386">
        <ele>581</ele>
        <time>2015-04-30T11:47:52Z</time>
      </trkpt>
      <trkpt lat="43.77948" lon="3.55442">
        <ele>580</ele>
        <time>2015-04-30T11:47:58Z</time>
      </trkpt>
      <trkpt lat="43.7797" lon="3.55492">
        <ele>578</ele>
        <time>2015-04-30T11:48:03Z</time>
      </trkpt>
      <trkpt lat="43.77979" lon="3.55506">
        <ele>576</ele>
        <time>2015-04-30T11:48:06Z</time>
      </trkpt>
      <trkpt lat="43.7799" lon="3.55496">
        <ele>576</ele>
        <time>2015-04-30T11:48:09Z</time>
      </trkpt>
      <trkpt lat="43.77994" lon="3.55483">
        <ele>577</ele>
        <time>2015-04-30T11:48:11Z</time>
      </trkpt>
      <trkpt lat="43.78028" lon="3.55375">
        <ele>573</ele>
        <time>2015-04-30T11:48:29Z</time>
      </trkpt>
      <trkpt lat="43.78036" lon="3.55355">
        <ele>573</ele>
        <time>2015-04-30T11:48:32Z</time>
      </trkpt>
      <trkpt lat="43.7805" lon="3.55288">
        <ele>574</ele>
        <time>2015-04-30T11:48:44Z</time>
      </trkpt>
      <trkpt lat="43.7808" lon="3.55247">
        <ele>576</ele>
        <time>2015-04-30T11:48:57Z</time>
      </trkpt>
      <trkpt lat="43.78111" lon="3.55207">
        <ele>580</ele>
        <time>2015-04-30T11:49:12Z</time>
      </trkpt>
      <trkpt lat="43.7811" lon="3.55146">
        <ele>582</ele>
        <time>2015-04-30T11:49:28Z</time>
      </trkpt>
      <trkpt lat="43.78099" lon="3.55093">
        <ele>583</ele>
        <time>2015-04-30T11:49:41Z</time>
      </trkpt>
      <trkpt lat="43.7806" lon="3.55051">
        <ele>580</ele>
        <time>2015-04-30T11:49:55Z</time>
      </trkpt>
      <trkpt lat="43.78013" lon="3.54984">
        <ele>581</ele>
        <time>2015-04-30T11:50:10Z</time>
      </trkpt>
      <trkpt lat="43.77998" lon="3.54953">
        <ele>574</ele>
        <time>2015-04-30T11:50:15Z</time>
      </trkpt>
      <trkpt lat="43.77983" lon="3.54918">
        <ele>576</ele>
        <time>2015-04-30T11:50:20Z</time>
      </trkpt>
      <trkpt lat="43.77963" lon="3.54883">
        <ele>574</ele>
        <time>2015-04-30T11:50:26Z</time>
      </trkpt>
      <trkpt lat="43.77958" lon="3.54871">
        <ele>574</ele>
        <time>2015-04-30T11:50:28Z</time>
      </trkpt>
      <trkpt lat="43.77951" lon="3.54846">
        <ele>574</ele>
        <time>2015-04-30T11:50:32Z</time>
      </trkpt>
      <trkpt lat="43.77931" lon="3.54799">
        <ele>574</ele>
        <time>2015-04-30T11:50:39Z</time>
      </trkpt>
      <trkpt lat="43.77903" lon="3.54742">
        <ele>569</ele>
        <time>2015-04-30T11:50:50Z</time>
      </trkpt>
      <trkpt lat="43.77916" lon="3.54679">
        <ele>569</ele>
        <time>2015-04-30T11:51:02Z</time>
      </trkpt>
      <trkpt lat="43.77921" lon="3.54663">
        <ele>572</ele>
        <time>2015-04-30T11:51:05Z</time>
      </trkpt>
      <trkpt lat="43.77931" lon="3.54608">
        <ele>571</ele>
        <time>2015-04-30T11:51:15Z</time>
      </trkpt>
      <trkpt lat="43.77896" lon="3.54546">
        <ele>567</ele>
        <time>2015-04-30T11:51:30Z</time>
      </trkpt>
      <trkpt lat="43.77884" lon="3.5451">
        <ele>567</ele>
        <time>2015-04-30T11:51:39Z</time>
      </trkpt>
      <trkpt lat="43.77898" lon="3.54455">
        <ele>567</ele>
        <time>2015-04-30T11:51:48Z</time>
      </trkpt>
      <trkpt lat="43.77897" lon="3.54424">
        <ele>566</ele>
        <time>2015-04-30T11:51:52Z</time>
      </trkpt>
      <trkpt lat="43.77886" lon="3.5439">
        <ele>565</ele>
        <time>2015-04-30T11:51:57Z</time>
      </trkpt>
      <trkpt lat="43.77883" lon="3.54378">
        <ele>565</ele>
        <time>2015-04-30T11:51:59Z</time>
      </trkpt>
      <trkpt lat="43.77876" lon="3.54341">
        <ele>564</ele>
        <time>2015-04-30T11:52:05Z</time>
      </trkpt>
      <trkpt lat="43.77851" lon="3.54275">
        <ele>563</ele>
        <time>2015-04-30T11:52:15Z</time>
      </trkpt>
      <trkpt lat="43.77848" lon="3.54242">
        <ele>562</ele>
        <time>2015-04-30T11:52:19Z</time>
      </trkpt>
      <trkpt lat="43.7785" lon="3.54188">
        <ele>560</ele>
        <time>2015-04-30T11:52:25Z</time>
      </trkpt>
      <trkpt lat="43.77845" lon="3.54152">
        <ele>559</ele>
        <time>2015-04-30T11:52:29Z</time>
      </trkpt>
      <trkpt lat="43.77816" lon="3.54088">
        <ele>557</ele>
        <time>2015-04-30T11:52:37Z</time>
      </trkpt>
      <trkpt lat="43.77794" lon="3.5402">
        <ele>553</ele>
        <time>2015-04-30T11:52:44Z</time>
      </trkpt>
      <trkpt lat="43.77767" lon="3.53967">
        <ele>550</ele>
        <time>2015-04-30T11:52:50Z</time>
      </trkpt>
      <trkpt lat="43.77761" lon="3.53957">
        <ele>550</ele>
        <time>2015-04-30T11:52:53Z</time>
      </trkpt>
      <trkpt lat="43.77761" lon="3.53951">
        <ele>549</ele>
        <time>2015-04-30T11:53:06Z</time>
      </trkpt>
      <trkpt lat="43.7776" lon="3.5395">
        <ele>549</ele>
        <time>2015-04-30T11:53:21Z</time>
      </trkpt>
      <trkpt lat="43.77759" lon="3.53946">
        <ele>549</ele>
        <time>2015-04-30T11:53:32Z</time>
      </trkpt>
      <trkpt lat="43.77759" lon="3.53948">
        <ele>549</ele>
        <time>2015-04-30T11:53:47Z</time>
      </trkpt>
      <trkpt lat="43.77761" lon="3.53948">
        <ele>549</ele>
        <time>2015-04-30T11:54:21Z</time>
      </trkpt>
      <trkpt lat="43.77759" lon="3.53949">
        <ele>549</ele>
        <time>2015-04-30T11:54:48Z</time>
      </trkpt>
      <trkpt lat="43.77758" lon="3.53949">
        <ele>549</ele>
        <time>2015-04-30T11:55:14Z</time>
      </trkpt>
      <trkpt lat="43.7776" lon="3.5395">
        <ele>549</ele>
        <time>2015-04-30T11:55:45Z</time>
      </trkpt>
      <trkpt lat="43.77761" lon="3.53949">
        <ele>549</ele>
        <time>2015-04-30T11:56:14Z</time>
      </trkpt>
      <trkpt lat="43.77758" lon="3.53948">
        <ele>549</ele>
        <time>2015-04-30T11:56:38Z</time>
      </trkpt>
      <trkpt lat="43.77758" lon="3.53944">
        <ele>549</ele>
        <time>2015-04-30T11:57:21Z</time>
      </trkpt>
      <trkpt lat="43.77759" lon="3.53943">
        <ele>549</ele>
        <time>2015-04-30T11:57:55Z</time>
      </trkpt>
      <trkpt lat="43.7776" lon="3.53939">
        <ele>549</ele>
        <time>2015-04-30T11:58:25Z</time>
      </trkpt>
      <trkpt lat="43.77762" lon="3.53936">
        <ele>549</ele>
        <time>2015-04-30T11:58:58Z</time>
      </trkpt>
      <trkpt lat="43.77759" lon="3.53941">
        <ele>549</ele>
        <time>2015-04-30T11:59:42Z</time>
      </trkpt>
      <trkpt lat="43.77759" lon="3.53942">
        <ele>549</ele>
        <time>2015-04-30T12:00:16Z</time>
      </trkpt>
      <trkpt lat="43.77759" lon="3.53944">
        <ele>549</ele>
        <time>2015-04-30T12:00:55Z</time>
      </trkpt>
      <trkpt lat="43.77759" lon="3.53946">
        <ele>549</ele>
        <time>2015-04-30T12:01:46Z</time>
      </trkpt>
      <trkpt lat="43.77758" lon="3.53945">
        <ele>549</ele>
        <time>2015-04-30T12:02:21Z</time>
      </trkpt>
      <trkpt lat="43.77758" lon="3.5395">
        <ele>549</ele>
        <time>2015-04-30T12:02:50Z</time>
      </trkpt>
      <trkpt lat="43.77769" lon="3.53949">
        <ele>550</ele>
        <time>2015-04-30T12:03:04Z</time>
      </trkpt>
      <trkpt lat="43.7777" lon="3.53948">
        <ele>550</ele>
        <time>2015-04-30T12:03:05Z</time>
      </trkpt>
      <trkpt lat="43.77786" lon="3.53947">
        <ele>551</ele>
        <time>2015-04-30T12:03:22Z</time>
      </trkpt>
      <trkpt lat="43.77808" lon="3.53954">
        <ele>553</ele>
        <time>2015-04-30T12:03:42Z</time>
      </trkpt>
      <trkpt lat="43.77824" lon="3.53975">
        <ele>554</ele>
        <time>2015-04-30T12:04:02Z</time>
      </trkpt>
      <trkpt lat="43.77839" lon="3.53995">
        <ele>558</ele>
        <time>2015-04-30T12:04:22Z</time>
      </trkpt>
      <trkpt lat="43.77843" lon="3.54008">
        <ele>558</ele>
        <time>2015-04-30T12:04:39Z</time>
      </trkpt>
      <trkpt lat="43.77844" lon="3.54009">
        <ele>558</ele>
        <time>2015-04-30T12:05:11Z</time>
      </trkpt>
      <trkpt lat="43.77842" lon="3.5401">
        <ele>558</ele>
        <time>2015-04-30T12:05:46Z</time>
      </trkpt>
      <trkpt lat="43.77845" lon="3.54006">
        <ele>558</ele>
        <time>2015-04-30T12:06:07Z</time>
      </trkpt>
      <trkpt lat="43.77848" lon="3.54008">
        <ele>558</ele>
        <time>2015-04-30T12:06:42Z</time>
      </trkpt>
      <trkpt lat="43.7784" lon="3.5401">
        <ele>558</ele>
        <time>2015-04-30T12:07:24Z</time>
      </trkpt>
      <trkpt lat="43.77848" lon="3.5401">
        <ele>558</ele>
        <time>2015-04-30T12:08:06Z</time>
      </trkpt>
      <trkpt lat="43.77845" lon="3.54005">
        <ele>558</ele>
        <time>2015-04-30T12:08:50Z</time>
      </trkpt>
      <trkpt lat="43.77843" lon="3.54002">
        <ele>558</ele>
        <time>2015-04-30T12:09:19Z</time>
      </trkpt>
      <trkpt lat="43.77841" lon="3.54003">
        <ele>558</ele>
        <time>2015-04-30T12:09:57Z</time>
      </trkpt>
      <trkpt lat="43.77842" lon="3.54008">
        <ele>558</ele>
        <time>2015-04-30T12:10:35Z</time>
      </trkpt>
      <trkpt lat="43.77846" lon="3.54013">
        <ele>558</ele>
        <time>2015-04-30T12:11:14Z</time>
      </trkpt>
      <trkpt lat="43.77845" lon="3.54009">
        <ele>558</ele>
        <time>2015-04-30T12:11:53Z</time>
      </trkpt>
      <trkpt lat="43.77846" lon="3.54008">
        <ele>558</ele>
        <time>2015-04-30T12:12:24Z</time>
      </trkpt>
      <trkpt lat="43.77842" lon="3.54008">
        <ele>558</ele>
        <time>2015-04-30T12:13:01Z</time>
      </trkpt>
      <trkpt lat="43.77841" lon="3.54006">
        <ele>558</ele>
        <time>2015-04-30T12:13:34Z</time>
      </trkpt>
      <trkpt lat="43.77845" lon="3.54012">
        <ele>558</ele>
        <time>2015-04-30T12:14:13Z</time>
      </trkpt>
      <trkpt lat="43.77844" lon="3.54014">
        <ele>558</ele>
        <time>2015-04-30T12:14:57Z</time>
      </trkpt>
      <trkpt lat="43.77837" lon="3.54003">
        <ele>557</ele>
        <time>2015-04-30T12:15:42Z</time>
      </trkpt>
      <trkpt lat="43.77844" lon="3.54014">
        <ele>558</ele>
        <time>2015-04-30T12:16:26Z</time>
      </trkpt>
      <trkpt lat="43.77847" lon="3.54007">
        <ele>558</ele>
        <time>2015-04-30T12:17:05Z</time>
      </trkpt>
      <trkpt lat="43.77843" lon="3.54012">
        <ele>558</ele>
        <time>2015-04-30T12:17:41Z</time>
      </trkpt>
      <trkpt lat="43.77846" lon="3.54012">
        <ele>558</ele>
        <time>2015-04-30T12:18:14Z</time>
      </trkpt>
      <trkpt lat="43.77847" lon="3.54012">
        <ele>558</ele>
        <time>2015-04-30T12:18:45Z</time>
      </trkpt>
      <trkpt lat="43.77844" lon="3.54008">
        <ele>558</ele>
        <time>2015-04-30T12:19:20Z</time>
      </trkpt>
      <trkpt lat="43.77838" lon="3.54009">
        <ele>558</ele>
        <time>2015-04-30T12:19:53Z</time>
      </trkpt>
      <trkpt lat="43.77837" lon="3.54008">
        <ele>558</ele>
        <time>2015-04-30T12:20:27Z</time>
      </trkpt>
      <trkpt lat="43.77842" lon="3.5401">
        <ele>558</ele>
        <time>2015-04-30T12:20:58Z</time>
      </trkpt>
      <trkpt lat="43.77838" lon="3.54002">
        <ele>558</ele>
        <time>2015-04-30T12:21:32Z</time>
      </trkpt>
      <trkpt lat="43.77838" lon="3.54003">
        <ele>558</ele>
        <time>2015-04-30T12:22:06Z</time>
      </trkpt>
      <trkpt lat="43.77844" lon="3.54009">
        <ele>558</ele>
        <time>2015-04-30T12:22:41Z</time>
      </trkpt>
      <trkpt lat="43.77835" lon="3.54005">
        <ele>558</ele>
        <time>2015-04-30T12:23:17Z</time>
      </trkpt>
      <trkpt lat="43.77835" lon="3.54004">
        <ele>557</ele>
        <time>2015-04-30T12:23:50Z</time>
      </trkpt>
      <trkpt lat="43.77836" lon="3.54007">
        <ele>558</ele>
        <time>2015-04-30T12:24:27Z</time>
      </trkpt>
      <trkpt lat="43.77839" lon="3.5401">
        <ele>558</ele>
        <time>2015-04-30T12:25:08Z</time>
      </trkpt>
      <trkpt lat="43.77842" lon="3.5401">
        <ele>558</ele>
        <time>2015-04-30T12:25:41Z</time>
      </trkpt>
      <trkpt lat="43.77837" lon="3.54005">
        <ele>558</ele>
        <time>2015-04-30T12:26:29Z</time>
      </trkpt>
      <trkpt lat="43.7784" lon="3.54004">
        <ele>558</ele>
        <time>2015-04-30T12:27:11Z</time>
      </trkpt>
      <trkpt lat="43.77845" lon="3.54006">
        <ele>558</ele>
        <time>2015-04-30T12:27:50Z</time>
      </trkpt>
      <trkpt lat="43.77847" lon="3.54006">
        <ele>558</ele>
        <time>2015-04-30T12:28:17Z</time>
      </trkpt>
      <trkpt lat="43.77845" lon="3.54008">
        <ele>558</ele>
        <time>2015-04-30T12:28:50Z</time>
      </trkpt>
      <trkpt lat="43.77844" lon="3.54004">
        <ele>558</ele>
        <time>2015-04-30T12:29:27Z</time>
      </trkpt>
      <trkpt lat="43.77841" lon="3.54006">
        <ele>558</ele>
        <time>2015-04-30T12:30:04Z</time>
      </trkpt>
      <trkpt lat="43.77842" lon="3.54003">
        <ele>558</ele>
        <time>2015-04-30T12:30:34Z</time>
      </trkpt>
      <trkpt lat="43.77841" lon="3.53999">
        <ele>558</ele>
        <time>2015-04-30T12:31:03Z</time>
      </trkpt>
      <trkpt lat="43.7784" lon="3.54">
        <ele>558</ele>
        <time>2015-04-30T12:31:39Z</time>
      </trkpt>
      <trkpt lat="43.77838" lon="3.53998">
        <ele>558</ele>
        <time>2015-04-30T12:32:07Z</time>
      </trkpt>
      <trkpt lat="43.77835" lon="3.53999">
        <ele>557</ele>
        <time>2015-04-30T12:32:38Z</time>
      </trkpt>
      <trkpt lat="43.77838" lon="3.54002">
        <ele>557</ele>
        <time>2015-04-30T12:33:15Z</time>
      </trkpt>
      <trkpt lat="43.77841" lon="3.54006">
        <ele>558</ele>
        <time>2015-04-30T12:33:55Z</time>
      </trkpt>
      <trkpt lat="43.77842" lon="3.54007">
        <ele>558</ele>
        <time>2015-04-30T12:34:28Z</time>
      </trkpt>
      <trkpt lat="43.77842" lon="3.54012">
        <ele>558</ele>
        <time>2015-04-30T12:35:06Z</time>
      </trkpt>
      <trkpt lat="43.77845" lon="3.54006">
        <ele>558</ele>
        <time>2015-04-30T12:35:41Z</time>
      </trkpt>
      <trkpt lat="43.77838" lon="3.54006">
        <ele>558</ele>
        <time>2015-04-30T12:36:21Z</time>
      </trkpt>
      <trkpt lat="43.7784" lon="3.54006">
        <ele>558</ele>
        <time>2015-04-30T12:36:53Z</time>
      </trkpt>
      <trkpt lat="43.77839" lon="3.54007">
        <ele>558</ele>
        <time>2015-04-30T12:37:29Z</time>
      </trkpt>
      <trkpt lat="43.77843" lon="3.53998">
        <ele>558</ele>
        <time>2015-04-30T12:38:11Z</time>
      </trkpt>
      <trkpt lat="43.77839" lon="3.54003">
        <ele>558</ele>
        <time>2015-04-30T12:38:53Z</time>
      </trkpt>
      <trkpt lat="43.77841" lon="3.54001">
        <ele>558</ele>
        <time>2015-04-30T12:39:22Z</time>
      </trkpt>
      <trkpt lat="43.77842" lon="3.54">
        <ele>558</ele>
        <time>2015-04-30T12:40:01Z</time>
      </trkpt>
      <trkpt lat="43.77842" lon="3.54003">
        <ele>558</ele>
        <time>2015-04-30T12:40:42Z</time>
      </trkpt>
      <trkpt lat="43.77837" lon="3.54004">
        <ele>557</ele>
        <time>2015-04-30T12:41:16Z</time>
      </trkpt>
      <trkpt lat="43.77836" lon="3.54005">
        <ele>558</ele>
        <time>2015-04-30T12:41:53Z</time>
      </trkpt>
      <trkpt lat="43.77836" lon="3.54005">
        <ele>558</ele>
        <time>2015-04-30T12:42:29Z</time>
      </trkpt>
      <trkpt lat="43.77841" lon="3.54002">
        <ele>558</ele>
        <time>2015-04-30T12:43:02Z</time>
      </trkpt>
      <trkpt lat="43.77845" lon="3.54005">
        <ele>558</ele>
        <time>2015-04-30T12:43:33Z</time>
      </trkpt>
      <trkpt lat="43.77844" lon="3.54002">
        <ele>558</ele>
        <time>2015-04-30T12:44:12Z</time>
      </trkpt>
      <trkpt lat="43.77845" lon="3.54002">
        <ele>558</ele>
        <time>2015-04-30T12:44:55Z</time>
      </trkpt>
      <trkpt lat="43.77841" lon="3.54007">
        <ele>558</ele>
        <time>2015-04-30T12:45:31Z</time>
      </trkpt>
      <trkpt lat="43.77842" lon="3.54008">
        <ele>558</ele>
        <time>2015-04-30T12:46:06Z</time>
      </trkpt>
      <trkpt lat="43.77841" lon="3.54005">
        <ele>558</ele>
        <time>2015-04-30T12:46:44Z</time>
      </trkpt>
      <trkpt lat="43.77842" lon="3.54007">
        <ele>558</ele>
        <time>2015-04-30T12:47:22Z</time>
      </trkpt>
      <trkpt lat="43.77839" lon="3.54007">
        <ele>558</ele>
        <time>2015-04-30T12:47:52Z</time>
      </trkpt>
      <trkpt lat="43.7784" lon="3.54006">
        <ele>558</ele>
        <time>2015-04-30T12:48:27Z</time>
      </trkpt>
      <trkpt lat="43.77841" lon="3.54006">
        <ele>558</ele>
        <time>2015-04-30T12:48:58Z</time>
      </trkpt>
      <trkpt lat="43.77843" lon="3.54003">
        <ele>558</ele>
        <time>2015-04-30T12:49:35Z</time>
      </trkpt>
      <trkpt lat="43.77841" lon="3.54005">
        <ele>558</ele>
        <time>2015-04-30T12:50:08Z</time>
      </trkpt>
      <trkpt lat="43.77841" lon="3.54006">
        <ele>558</ele>
        <time>2015-04-30T12:50:43Z</time>
      </trkpt>
      <trkpt lat="43.77842" lon="3.54009">
        <ele>558</ele>
        <time>2015-04-30T12:51:14Z</time>
      </trkpt>
      <trkpt lat="43.77842" lon="3.54008">
        <ele>558</ele>
        <time>2015-04-30T12:51:44Z</time>
      </trkpt>
      <trkpt lat="43.7784" lon="3.54009">
        <ele>558</ele>
        <time>2015-04-30T12:52:11Z</time>
      </trkpt>
      <trkpt lat="43.77842" lon="3.5401">
        <ele>558</ele>
        <time>2015-04-30T12:52:50Z</time>
      </trkpt>
      <trkpt lat="43.77841" lon="3.54012">
        <ele>558</ele>
        <time>2015-04-30T12:53:15Z</time>
      </trkpt>
      <trkpt lat="43.77839" lon="3.54011">
        <ele>558</ele>
        <time>2015-04-30T12:53:49Z</time>
      </trkpt>
      <trkpt lat="43.77836" lon="3.54003">
        <ele>557</ele>
        <time>2015-04-30T12:54:33Z</time>
      </trkpt>
      <trkpt lat="43.77837" lon="3.54007">
        <ele>558</ele>
        <time>2015-04-30T12:55:09Z</time>
      </trkpt>
      <trkpt lat="43.77837" lon="3.54007">
        <ele>558</ele>
        <time>2015-04-30T12:55:42Z</time>
      </trkpt>
      <trkpt lat="43.77839" lon="3.54009">
        <ele>558</ele>
        <time>2015-04-30T12:56:16Z</time>
      </trkpt>
      <trkpt lat="43.77842" lon="3.54012">
        <ele>558</ele>
        <time>2015-04-30T12:56:49Z</time>
      </trkpt>
      <trkpt lat="43.7784" lon="3.54009">
        <ele>558</ele>
        <time>2015-04-30T12:57:28Z</time>
      </trkpt>
      <trkpt lat="43.77843" lon="3.54012">
        <ele>558</ele>
        <time>2015-04-30T12:58:06Z</time>
      </trkpt>
      <trkpt lat="43.77844" lon="3.54011">
        <ele>558</ele>
        <time>2015-04-30T12:58:47Z</time>
      </trkpt>
      <trkpt lat="43.77844" lon="3.54017">
        <ele>558</ele>
        <time>2015-04-30T12:59:25Z</time>
      </trkpt>
      <trkpt lat="43.77848" lon="3.54018">
        <ele>559</ele>
        <time>2015-04-30T13:00:04Z</time>
      </trkpt>
      <trkpt lat="43.77847" lon="3.54018">
        <ele>558</ele>
        <time>2015-04-30T13:00:40Z</time>
      </trkpt>
      <trkpt lat="43.77845" lon="3.54016">
        <ele>558</ele>
        <time>2015-04-30T13:01:13Z</time>
      </trkpt>
      <trkpt lat="43.77845" lon="3.54014">
        <ele>558</ele>
        <time>2015-04-30T13:01:59Z</time>
      </trkpt>
      <trkpt lat="43.77842" lon="3.5401">
        <ele>558</ele>
        <time>2015-04-30T13:02:39Z</time>
      </trkpt>
      <trkpt lat="43.77842" lon="3.5401">
        <ele>558</ele>
        <time>2015-04-30T13:03:18Z</time>
      </trkpt>
      <trkpt lat="43.77843" lon="3.54012">
        <ele>558</ele>
        <time>2015-04-30T13:03:56Z</time>
      </trkpt>
      <trkpt lat="43.77842" lon="3.54015">
        <ele>558</ele>
        <time>2015-04-30T13:04:35Z</time>
      </trkpt>
      <trkpt lat="43.77843" lon="3.5401">
        <ele>558</ele>
        <time>2015-04-30T13:05:06Z</time>
      </trkpt>
      <trkpt lat="43.77846" lon="3.54006">
        <ele>558</ele>
        <time>2015-04-30T13:05:42Z</time>
      </trkpt>
      <trkpt lat="43.77847" lon="3.54007">
        <ele>558</ele>
        <time>2015-04-30T13:06:18Z</time>
      </trkpt>
      <trkpt lat="43.77846" lon="3.54008">
        <ele>558</ele>
        <time>2015-04-30T13:06:57Z</time>
      </trkpt>
      <trkpt lat="43.77844" lon="3.54006">
        <ele>558</ele>
        <time>2015-04-30T13:07:36Z</time>
      </trkpt>
      <trkpt lat="43.77842" lon="3.54008">
        <ele>558</ele>
        <time>2015-04-30T13:08:11Z</time>
      </trkpt>
      <trkpt lat="43.77837" lon="3.54017">
        <ele>558</ele>
        <time>2015-04-30T13:08:49Z</time>
      </trkpt>
      <trkpt lat="43.7784" lon="3.54015">
        <ele>558</ele>
        <time>2015-04-30T13:09:30Z</time>
      </trkpt>
      <trkpt lat="43.77841" lon="3.54013">
        <ele>558</ele>
        <time>2015-04-30T13:10:08Z</time>
      </trkpt>
      <trkpt lat="43.77842" lon="3.54013">
        <ele>558</ele>
        <time>2015-04-30T13:10:43Z</time>
      </trkpt>
      <trkpt lat="43.77842" lon="3.54014">
        <ele>558</ele>
        <time>2015-04-30T13:11:22Z</time>
      </trkpt>
      <trkpt lat="43.77843" lon="3.54016">
        <ele>558</ele>
        <time>2015-04-30T13:12:00Z</time>
      </trkpt>
      <trkpt lat="43.77848" lon="3.54014">
        <ele>558</ele>
        <time>2015-04-30T13:12:35Z</time>
      </trkpt>
      <trkpt lat="43.77851" lon="3.54013">
        <ele>559</ele>
        <time>2015-04-30T13:13:04Z</time>
      </trkpt>
      <trkpt lat="43.77849" lon="3.54009">
        <ele>558</ele>
        <time>2015-04-30T13:13:35Z</time>
      </trkpt>
      <trkpt lat="43.77846" lon="3.54013">
        <ele>558</ele>
        <time>2015-04-30T13:14:17Z</time>
      </trkpt>
      <trkpt lat="43.77845" lon="3.54014">
        <ele>558</ele>
        <time>2015-04-30T13:14:54Z</time>
      </trkpt>
      <trkpt lat="43.77846" lon="3.54011">
        <ele>558</ele>
        <time>2015-04-30T13:15:36Z</time>
      </trkpt>
      <trkpt lat="43.77845" lon="3.54011">
        <ele>558</ele>
        <time>2015-04-30T13:16:21Z</time>
      </trkpt>
      <trkpt lat="43.77846" lon="3.54009">
        <ele>558</ele>
        <time>2015-04-30T13:16:58Z</time>
      </trkpt>
      <trkpt lat="43.77846" lon="3.54008">
        <ele>558</ele>
        <time>2015-04-30T13:17:42Z</time>
      </trkpt>
      <trkpt lat="43.77841" lon="3.54006">
        <ele>558</ele>
        <time>2015-04-30T13:18:19Z</time>
      </trkpt>
      <trkpt lat="43.77842" lon="3.54008">
        <ele>558</ele>
        <time>2015-04-30T13:19:01Z</time>
      </trkpt>
      <trkpt lat="43.77845" lon="3.5401">
        <ele>558</ele>
        <time>2015-04-30T13:19:45Z</time>
      </trkpt>
      <trkpt lat="43.7784" lon="3.54008">
        <ele>558</ele>
        <time>2015-04-30T13:20:24Z</time>
      </trkpt>
      <trkpt lat="43.77836" lon="3.54005">
        <ele>558</ele>
        <time>2015-04-30T13:20:59Z</time>
      </trkpt>
      <trkpt lat="43.77838" lon="3.54005">
        <ele>558</ele>
        <time>2015-04-30T13:21:36Z</time>
      </trkpt>
      <trkpt lat="43.77841" lon="3.54006">
        <ele>558</ele>
        <time>2015-04-30T13:22:17Z</time>
      </trkpt>
      <trkpt lat="43.77842" lon="3.54009">
        <ele>558</ele>
        <time>2015-04-30T13:23:01Z</time>
      </trkpt>
      <trkpt lat="43.77846" lon="3.54009">
        <ele>558</ele>
        <time>2015-04-30T13:23:39Z</time>
      </trkpt>
      <trkpt lat="43.77848" lon="3.5401">
        <ele>558</ele>
        <time>2015-04-30T13:24:20Z</time>
      </trkpt>
      <trkpt lat="43.77848" lon="3.54012">
        <ele>558</ele>
        <time>2015-04-30T13:25:01Z</time>
      </trkpt>
      <trkpt lat="43.77848" lon="3.54011">
        <ele>558</ele>
        <time>2015-04-30T13:25:40Z</time>
      </trkpt>
      <trkpt lat="43.77849" lon="3.54011">
        <ele>558</ele>
        <time>2015-04-30T13:26:14Z</time>
      </trkpt>
      <trkpt lat="43.77846" lon="3.54008">
        <ele>558</ele>
        <time>2015-04-30T13:26:58Z</time>
      </trkpt>
      <trkpt lat="43.77844" lon="3.54008">
        <ele>558</ele>
        <time>2015-04-30T13:27:33Z</time>
      </trkpt>
      <trkpt lat="43.77842" lon="3.54007">
        <ele>558</ele>
        <time>2015-04-30T13:28:19Z</time>
      </trkpt>
      <trkpt lat="43.77842" lon="3.54011">
        <ele>558</ele>
        <time>2015-04-30T13:28:59Z</time>
      </trkpt>
      <trkpt lat="43.77841" lon="3.54012">
        <ele>558</ele>
        <time>2015-04-30T13:29:43Z</time>
      </trkpt>
      <trkpt lat="43.77841" lon="3.54008">
        <ele>558</ele>
        <time>2015-04-30T13:30:13Z</time>
      </trkpt>
      <trkpt lat="43.77843" lon="3.54006">
        <ele>558</ele>
        <time>2015-04-30T13:30:52Z</time>
      </trkpt>
      <trkpt lat="43.77846" lon="3.54009">
        <ele>558</ele>
        <time>2015-04-30T13:31:32Z</time>
      </trkpt>
      <trkpt lat="43.77845" lon="3.54008">
        <ele>558</ele>
        <time>2015-04-30T13:32:12Z</time>
      </trkpt>
      <trkpt lat="43.77846" lon="3.54009">
        <ele>558</ele>
        <time>2015-04-30T13:32:52Z</time>
      </trkpt>
      <trkpt lat="43.77847" lon="3.54007">
        <ele>558</ele>
        <time>2015-04-30T13:33:45Z</time>
      </trkpt>
      <trkpt lat="43.77847" lon="3.54008">
        <ele>558</ele>
        <time>2015-04-30T13:34:28Z</time>
      </trkpt>
      <trkpt lat="43.77847" lon="3.54007">
        <ele>558</ele>
        <time>2015-04-30T13:35:07Z</time>
      </trkpt>
      <trkpt lat="43.77847" lon="3.54006">
        <ele>558</ele>
        <time>2015-04-30T13:35:48Z</time>
      </trkpt>
      <trkpt lat="43.77846" lon="3.54008">
        <ele>558</ele>
        <time>2015-04-30T13:36:29Z</time>
      </trkpt>
      <trkpt lat="43.77846" lon="3.54008">
        <ele>558</ele>
        <time>2015-04-30T13:37:08Z</time>
      </trkpt>
      <trkpt lat="43.77847" lon="3.54003">
        <ele>558</ele>
        <time>2015-04-30T13:37:44Z</time>
      </trkpt>
      <trkpt lat="43.77847" lon="3.54007">
        <ele>558</ele>
        <time>2015-04-30T13:38:27Z</time>
      </trkpt>
      <trkpt lat="43.77847" lon="3.54007">
        <ele>558</ele>
        <time>2015-04-30T13:39:18Z</time>
      </trkpt>
      <trkpt lat="43.77845" lon="3.54004">
        <ele>558</ele>
        <time>2015-04-30T13:39:57Z</time>
      </trkpt>
      <trkpt lat="43.77845" lon="3.54006">
        <ele>558</ele>
        <time>2015-04-30T13:40:33Z</time>
      </trkpt>
      <trkpt lat="43.77844" lon="3.54004">
        <ele>558</ele>
        <time>2015-04-30T13:41:07Z</time>
      </trkpt>
      <trkpt lat="43.77849" lon="3.54002">
        <ele>558</ele>
        <time>2015-04-30T13:41:38Z</time>
      </trkpt>
      <trkpt lat="43.77851" lon="3.54">
        <ele>559</ele>
        <time>2015-04-30T13:42:12Z</time>
      </trkpt>
      <trkpt lat="43.77848" lon="3.54">
        <ele>559</ele>
        <time>2015-04-30T13:42:45Z</time>
      </trkpt>
      <trkpt lat="43.77844" lon="3.54007">
        <ele>558</ele>
        <time>2015-04-30T13:43:15Z</time>
      </trkpt>
      <trkpt lat="43.77842" lon="3.54005">
        <ele>558</ele>
        <time>2015-04-30T13:43:56Z</time>
      </trkpt>
      <trkpt lat="43.77844" lon="3.53994">
        <ele>559</ele>
        <time>2015-04-30T13:44:31Z</time>
      </trkpt>
      <trkpt lat="43.77841" lon="3.53999">
        <ele>558</ele>
        <time>2015-04-30T13:45:09Z</time>
      </trkpt>
      <trkpt lat="43.77842" lon="3.53999">
        <ele>558</ele>
        <time>2015-04-30T13:45:48Z</time>
      </trkpt>
      <trkpt lat="43.77841" lon="3.54006">
        <ele>558</ele>
        <time>2015-04-30T13:46:31Z</time>
      </trkpt>
      <trkpt lat="43.77842" lon="3.54006">
        <ele>558</ele>
        <time>2015-04-30T13:47:04Z</time>
      </trkpt>
      <trkpt lat="43.77841" lon="3.54005">
        <ele>558</ele>
        <time>2015-04-30T13:47:42Z</time>
      </trkpt>
      <trkpt lat="43.77843" lon="3.54002">
        <ele>558</ele>
        <time>2015-04-30T13:48:19Z</time>
      </trkpt>
      <trkpt lat="43.77842" lon="3.54004">
        <ele>558</ele>
        <time>2015-04-30T13:48:40Z</time>
      </trkpt>
      <trkpt lat="43.77841" lon="3.54004">
        <ele>558</ele>
        <time>2015-04-30T13:48:51Z</time>
      </trkpt>
      <trkpt lat="43.77839" lon="3.5399">
        <ele>559</ele>
        <time>2015-04-30T13:48:59Z</time>
      </trkpt>
      <trkpt lat="43.77809" lon="3.53955">
        <ele>553</ele>
        <time>2015-04-30T13:49:14Z</time>
      </trkpt>
      <trkpt lat="43.77803" lon="3.53952">
        <ele>552</ele>
        <time>2015-04-30T13:49:16Z</time>
      </trkpt>
      <trkpt lat="43.77764" lon="3.53953">
        <ele>550</ele>
        <time>2015-04-30T13:49:25Z</time>
      </trkpt>
      <trkpt lat="43.77744" lon="3.53944">
        <ele>542</ele>
        <time>2015-04-30T13:49:30Z</time>
      </trkpt>
      <trkpt lat="43.7774" lon="3.53929">
        <ele>543</ele>
        <time>2015-04-30T13:49:33Z</time>
      </trkpt>
      <trkpt lat="43.77725" lon="3.53895">
        <ele>540</ele>
        <time>2015-04-30T13:49:40Z</time>
      </trkpt>
      <trkpt lat="43.77715" lon="3.53879">
        <ele>539</ele>
        <time>2015-04-30T13:49:43Z</time>
      </trkpt>
      <trkpt lat="43.77706" lon="3.53857">
        <ele>538</ele>
        <time>2015-04-30T13:49:47Z</time>
      </trkpt>
      <trkpt lat="43.77685" lon="3.53822">
        <ele>536</ele>
        <time>2015-04-30T13:49:54Z</time>
      </trkpt>
      <trkpt lat="43.77672" lon="3.53796">
        <ele>536</ele>
        <time>2015-04-30T13:50:01Z</time>
      </trkpt>
      <trkpt lat="43.77665" lon="3.5379">
        <ele>528</ele>
        <time>2015-04-30T13:50:25Z</time>
      </trkpt>
      <trkpt lat="43.77677" lon="3.53782">
        <ele>536</ele>
        <time>2015-04-30T13:50:38Z</time>
      </trkpt>
      <trkpt lat="43.77684" lon="3.53774">
        <ele>537</ele>
        <time>2015-04-30T13:50:53Z</time>
      </trkpt>
      <trkpt lat="43.7769" lon="3.5377">
        <ele>537</ele>
        <time>2015-04-30T13:51:05Z</time>
      </trkpt>
      <trkpt lat="43.77698" lon="3.53773">
        <ele>538</ele>
        <time>2015-04-30T13:51:23Z</time>
      </trkpt>
      <trkpt lat="43.777" lon="3.53772">
        <ele>538</ele>
        <time>2015-04-30T13:51:28Z</time>
      </trkpt>
      <trkpt lat="43.77706" lon="3.53773">
        <ele>539</ele>
        <time>2015-04-30T13:51:44Z</time>
      </trkpt>
      <trkpt lat="43.77712" lon="3.53772">
        <ele>539</ele>
        <time>2015-04-30T13:51:57Z</time>
      </trkpt>
      <trkpt lat="43.77725" lon="3.53775">
        <ele>540</ele>
        <time>2015-04-30T13:52:11Z</time>
      </trkpt>
      <trkpt lat="43.77733" lon="3.53773">
        <ele>541</ele>
        <time>2015-04-30T13:52:26Z</time>
      </trkpt>
      <trkpt lat="43.77743" lon="3.53769">
        <ele>542</ele>
        <time>2015-04-30T13:52:41Z</time>
      </trkpt>
      <trkpt lat="43.77747" lon="3.53766">
        <ele>543</ele>
        <time>2015-04-30T13:52:55Z</time>
      </trkpt>
      <trkpt lat="43.77749" lon="3.53766">
        <ele>543</ele>
        <time>2015-04-30T13:53:15Z</time>
      </trkpt>
      <trkpt lat="43.7775" lon="3.5377">
        <ele>550</ele>
        <time>2015-04-30T13:53:30Z</time>
      </trkpt>
      <trkpt lat="43.77749" lon="3.53765">
        <ele>543</ele>
        <time>2015-04-30T13:54:03Z</time>
      </trkpt>
      <trkpt lat="43.77749" lon="3.5375">
        <ele>546</ele>
        <time>2015-04-30T13:54:17Z</time>
      </trkpt>
      <trkpt lat="43.77744" lon="3.53734">
        <ele>544</ele>
        <time>2015-04-30T13:54:34Z</time>
      </trkpt>
      <trkpt lat="43.77742" lon="3.5372">
        <ele>544</ele>
        <time>2015-04-30T13:54:48Z</time>
      </trkpt>
      <trkpt lat="43.77717" lon="3.53692">
        <ele>544</ele>
        <time>2015-04-30T13:55:01Z</time>
      </trkpt>
      <trkpt lat="43.77697" lon="3.5365">
        <ele>548</ele>
        <time>2015-04-30T13:55:17Z</time>
      </trkpt>
      <trkpt lat="43.77678" lon="3.53612">
        <ele>550</ele>
        <time>2015-04-30T13:55:32Z</time>
      </trkpt>
      <trkpt lat="43.77663" lon="3.5358">
        <ele>546</ele>
        <time>2015-04-30T13:55:44Z</time>
      </trkpt>
      <trkpt lat="43.77649" lon="3.53528">
        <ele>547</ele>
        <time>2015-04-30T13:56:02Z</time>
      </trkpt>
      <trkpt lat="43.77632" lon="3.53487">
        <ele>551</ele>
        <time>2015-04-30T13:56:15Z</time>
      </trkpt>
      <trkpt lat="43.77616" lon="3.53434">
        <ele>550</ele>
        <time>2015-04-30T13:56:30Z</time>
      </trkpt>
      <trkpt lat="43.77597" lon="3.53376">
        <ele>556</ele>
        <time>2015-04-30T13:56:46Z</time>
      </trkpt>
      <trkpt lat="43.77585" lon="3.53317">
        <ele>559</ele>
        <time>2015-04-30T13:57:04Z</time>
      </trkpt>
      <trkpt lat="43.77577" lon="3.53272">
        <ele>552</ele>
        <time>2015-04-30T13:57:19Z</time>
      </trkpt>
      <trkpt lat="43.77572" lon="3.53222">
        <ele>556</ele>
        <time>2015-04-30T13:57:36Z</time>
      </trkpt>
      <trkpt lat="43.77562" lon="3.5318">
        <ele>557</ele>
        <time>2015-04-30T13:57:54Z</time>
      </trkpt>
      <trkpt lat="43.7755" lon="3.5314">
        <ele>560</ele>
        <time>2015-04-30T13:58:13Z</time>
      </trkpt>
      <trkpt lat="43.77547" lon="3.53107">
        <ele>562</ele>
        <time>2015-04-30T13:58:27Z</time>
      </trkpt>
      <trkpt lat="43.77547" lon="3.53098">
        <ele>562</ele>
        <time>2015-04-30T13:58:31Z</time>
      </trkpt>
      <trkpt lat="43.77547" lon="3.53069">
        <ele>568</ele>
        <time>2015-04-30T13:58:43Z</time>
      </trkpt>
      <trkpt lat="43.77543" lon="3.53066">
        <ele>567</ele>
        <time>2015-04-30T13:59:01Z</time>
      </trkpt>
      <trkpt lat="43.77543" lon="3.53059">
        <ele>568</ele>
        <time>2015-04-30T13:59:17Z</time>
      </trkpt>
      <trkpt lat="43.77545" lon="3.53055">
        <ele>568</ele>
        <time>2015-04-30T13:59:36Z</time>
      </trkpt>
      <trkpt lat="43.77544" lon="3.53054">
        <ele>568</ele>
        <time>2015-04-30T13:59:39Z</time>
      </trkpt>
      <trkpt lat="43.77542" lon="3.53046">
        <ele>568</ele>
        <time>2015-04-30T13:59:43Z</time>
      </trkpt>
      <trkpt lat="43.77518" lon="3.53011">
        <ele>567</ele>
        <time>2015-04-30T14:00:01Z</time>
      </trkpt>
      <trkpt lat="43.77487" lon="3.52975">
        <ele>568</ele>
        <time>2015-04-30T14:00:23Z</time>
      </trkpt>
      <trkpt lat="43.77466" lon="3.52947">
        <ele>570</ele>
        <time>2015-04-30T14:00:40Z</time>
      </trkpt>
      <trkpt lat="43.77443" lon="3.52921">
        <ele>570</ele>
        <time>2015-04-30T14:00:59Z</time>
      </trkpt>
      <trkpt lat="43.77422" lon="3.52897">
        <ele>580</ele>
        <time>2015-04-30T14:01:19Z</time>
      </trkpt>
      <trkpt lat="43.77404" lon="3.52873">
        <ele>576</ele>
        <time>2015-04-30T14:01:37Z</time>
      </trkpt>
      <trkpt lat="43.77402" lon="3.52869">
        <ele>577</ele>
        <time>2015-04-30T14:01:40Z</time>
      </trkpt>
      <trkpt lat="43.77398" lon="3.52836">
        <ele>582</ele>
        <time>2015-04-30T14:01:58Z</time>
      </trkpt>
      <trkpt lat="43.77399" lon="3.52833">
        <ele>593</ele>
        <time>2015-04-30T14:02:00Z</time>
      </trkpt>
      <trkpt lat="43.77397" lon="3.5283">
        <ele>594</ele>
        <time>2015-04-30T14:02:02Z</time>
      </trkpt>
      <trkpt lat="43.77389" lon="3.52819">
        <ele>594</ele>
        <time>2015-04-30T14:02:12Z</time>
      </trkpt>
      <trkpt lat="43.77383" lon="3.52818">
        <ele>594</ele>
        <time>2015-04-30T14:02:16Z</time>
      </trkpt>
      <trkpt lat="43.77379" lon="3.52816">
        <ele>594</ele>
        <time>2015-04-30T14:02:20Z</time>
      </trkpt>
      <trkpt lat="43.77357" lon="3.52806">
        <ele>593</ele>
        <time>2015-04-30T14:02:38Z</time>
      </trkpt>
      <trkpt lat="43.77339" lon="3.52797">
        <ele>594</ele>
        <time>2015-04-30T14:02:54Z</time>
      </trkpt>
      <trkpt lat="43.7732" lon="3.52783">
        <ele>585</ele>
        <time>2015-04-30T14:03:09Z</time>
      </trkpt>
      <trkpt lat="43.77313" lon="3.52777">
        <ele>586</ele>
        <time>2015-04-30T14:03:15Z</time>
      </trkpt>
      <trkpt lat="43.77289" lon="3.52755">
        <ele>584</ele>
        <time>2015-04-30T14:03:35Z</time>
      </trkpt>
      <trkpt lat="43.77275" lon="3.5273">
        <ele>599</ele>
        <time>2015-04-30T14:03:52Z</time>
      </trkpt>
      <trkpt lat="43.77259" lon="3.52704">
        <ele>602</ele>
        <time>2015-04-30T14:04:10Z</time>
      </trkpt>
      <trkpt lat="43.77242" lon="3.52676">
        <ele>593</ele>
        <time>2015-04-30T14:04:28Z</time>
      </trkpt>
      <trkpt lat="43.77239" lon="3.52657">
        <ele>598</ele>
        <time>2015-04-30T14:04:38Z</time>
      </trkpt>
      <trkpt lat="43.77236" lon="3.52623">
        <ele>598</ele>
        <time>2015-04-30T14:04:54Z</time>
      </trkpt>
      <trkpt lat="43.77238" lon="3.52576">
        <ele>611</ele>
        <time>2015-04-30T14:05:11Z</time>
      </trkpt>
      <trkpt lat="43.77239" lon="3.52547">
        <ele>611</ele>
        <time>2015-04-30T14:05:23Z</time>
      </trkpt>
      <trkpt lat="43.77229" lon="3.52541">
        <ele>610</ele>
        <time>2015-04-30T14:05:29Z</time>
      </trkpt>
      <trkpt lat="43.77207" lon="3.52523">
        <ele>608</ele>
        <time>2015-04-30T14:05:46Z</time>
      </trkpt>
      <trkpt lat="43.77199" lon="3.52481">
        <ele>620</ele>
        <time>2015-04-30T14:06:06Z</time>
      </trkpt>
      <trkpt lat="43.77192" lon="3.52452">
        <ele>624</ele>
        <time>2015-04-30T14:06:21Z</time>
      </trkpt>
      <trkpt lat="43.77173" lon="3.52437">
        <ele>625</ele>
        <time>2015-04-30T14:06:39Z</time>
      </trkpt>
      <trkpt lat="43.77155" lon="3.52429">
        <ele>619</ele>
        <time>2015-04-30T14:06:54Z</time>
      </trkpt>
      <trkpt lat="43.77137" lon="3.52416">
        <ele>629</ele>
        <time>2015-04-30T14:07:12Z</time>
      </trkpt>
      <trkpt lat="43.77118" lon="3.52406">
        <ele>628</ele>
        <time>2015-04-30T14:07:30Z</time>
      </trkpt>
      <trkpt lat="43.77099" lon="3.52388">
        <ele>628</ele>
        <time>2015-04-30T14:07:49Z</time>
      </trkpt>
      <trkpt lat="43.77083" lon="3.52372">
        <ele>618</ele>
        <time>2015-04-30T14:08:05Z</time>
      </trkpt>
      <trkpt lat="43.77065" lon="3.52349">
        <ele>622</ele>
        <time>2015-04-30T14:08:23Z</time>
      </trkpt>
      <trkpt lat="43.77048" lon="3.52314">
        <ele>628</ele>
        <time>2015-04-30T14:08:41Z</time>
      </trkpt>
      <trkpt lat="43.77046" lon="3.52292">
        <ele>628</ele>
        <time>2015-04-30T14:08:50Z</time>
      </trkpt>
      <trkpt lat="43.77045" lon="3.52241">
        <ele>640</ele>
        <time>2015-04-30T14:09:01Z</time>
      </trkpt>
      <trkpt lat="43.77047" lon="3.52207">
        <ele>643</ele>
        <time>2015-04-30T14:09:10Z</time>
      </trkpt>
      <trkpt lat="43.77045" lon="3.52203">
        <ele>643</ele>
        <time>2015-04-30T14:09:11Z</time>
      </trkpt>
      <trkpt lat="43.77016" lon="3.5219">
        <ele>641</ele>
        <time>2015-04-30T14:09:26Z</time>
      </trkpt>
      <trkpt lat="43.76993" lon="3.52176">
        <ele>633</ele>
        <time>2015-04-30T14:09:44Z</time>
      </trkpt>
      <trkpt lat="43.76969" lon="3.52162">
        <ele>643</ele>
        <time>2015-04-30T14:10:03Z</time>
      </trkpt>
      <trkpt lat="43.76949" lon="3.5215">
        <ele>641</ele>
        <time>2015-04-30T14:10:19Z</time>
      </trkpt>
      <trkpt lat="43.76932" lon="3.52126">
        <ele>643</ele>
        <time>2015-04-30T14:10:37Z</time>
      </trkpt>
      <trkpt lat="43.76916" lon="3.52097">
        <ele>641</ele>
        <time>2015-04-30T14:10:55Z</time>
      </trkpt>
      <trkpt lat="43.76902" lon="3.52066">
        <ele>653</ele>
        <time>2015-04-30T14:11:14Z</time>
      </trkpt>
      <trkpt lat="43.769" lon="3.52044">
        <ele>657</ele>
        <time>2015-04-30T14:11:26Z</time>
      </trkpt>
      <trkpt lat="43.76887" lon="3.52028">
        <ele>659</ele>
        <time>2015-04-30T14:11:41Z</time>
      </trkpt>
      <trkpt lat="43.76871" lon="3.52026">
        <ele>658</ele>
        <time>2015-04-30T14:11:59Z</time>
      </trkpt>
      <trkpt lat="43.76871" lon="3.52023">
        <ele>658</ele>
        <time>2015-04-30T14:12:26Z</time>
      </trkpt>
      <trkpt lat="43.76867" lon="3.52024">
        <ele>658</ele>
        <time>2015-04-30T14:12:54Z</time>
      </trkpt>
      <trkpt lat="43.76853" lon="3.52024">
        <ele>658</ele>
        <time>2015-04-30T14:13:12Z</time>
      </trkpt>
      <trkpt lat="43.76841" lon="3.52021">
        <ele>658</ele>
        <time>2015-04-30T14:13:28Z</time>
      </trkpt>
      <trkpt lat="43.76834" lon="3.5202">
        <ele>659</ele>
        <time>2015-04-30T14:13:46Z</time>
      </trkpt>
      <trkpt lat="43.7683" lon="3.52019">
        <ele>653</ele>
        <time>2015-04-30T14:14:12Z</time>
      </trkpt>
      <trkpt lat="43.76816" lon="3.52008">
        <ele>653</ele>
        <time>2015-04-30T14:14:32Z</time>
      </trkpt>
      <trkpt lat="43.76803" lon="3.51996">
        <ele>668</ele>
        <time>2015-04-30T14:14:49Z</time>
      </trkpt>
      <trkpt lat="43.76787" lon="3.51991">
        <ele>667</ele>
        <time>2015-04-30T14:15:07Z</time>
      </trkpt>
      <trkpt lat="43.76786" lon="3.5199">
        <ele>667</ele>
        <time>2015-04-30T14:15:18Z</time>
      </trkpt>
      <trkpt lat="43.76785" lon="3.51989">
        <ele>667</ele>
        <time>2015-04-30T14:15:30Z</time>
      </trkpt>
      <trkpt lat="43.7678" lon="3.51985">
        <ele>666</ele>
        <time>2015-04-30T14:15:34Z</time>
      </trkpt>
      <trkpt lat="43.76746" lon="3.51964">
        <ele>659</ele>
        <time>2015-04-30T14:15:44Z</time>
      </trkpt>
      <trkpt lat="43.76732" lon="3.51949">
        <ele>661</ele>
        <time>2015-04-30T14:15:56Z</time>
      </trkpt>
      <trkpt lat="43.76701" lon="3.51928">
        <ele>661</ele>
        <time>2015-04-30T14:16:14Z</time>
      </trkpt>
      <trkpt lat="43.7668" lon="3.51914">
        <ele>672</ele>
        <time>2015-04-30T14:16:27Z</time>
      </trkpt>
      <trkpt lat="43.76647" lon="3.51889">
        <ele>662</ele>
        <time>2015-04-30T14:16:46Z</time>
      </trkpt>
      <trkpt lat="43.76618" lon="3.51855">
        <ele>662</ele>
        <time>2015-04-30T14:17:02Z</time>
      </trkpt>
      <trkpt lat="43.76593" lon="3.51821">
        <ele>668</ele>
        <time>2015-04-30T14:17:11Z</time>
      </trkpt>
      <trkpt lat="43.76582" lon="3.51794">
        <ele>656</ele>
        <time>2015-04-30T14:17:15Z</time>
      </trkpt>
      <trkpt lat="43.76581" lon="3.51787">
        <ele>657</ele>
        <time>2015-04-30T14:17:16Z</time>
      </trkpt>
      <trkpt lat="43.7657" lon="3.51748">
        <ele>670</ele>
        <time>2015-04-30T14:17:24Z</time>
      </trkpt>
      <trkpt lat="43.7654" lon="3.51721">
        <ele>667</ele>
        <time>2015-04-30T14:17:41Z</time>
      </trkpt>
      <trkpt lat="43.76519" lon="3.51687">
        <ele>668</ele>
        <time>2015-04-30T14:17:55Z</time>
      </trkpt>
      <trkpt lat="43.76485" lon="3.51643">
        <ele>665</ele>
        <time>2015-04-30T14:18:05Z</time>
      </trkpt>
      <trkpt lat="43.76477" lon="3.51626">
        <ele>666</ele>
        <time>2015-04-30T14:18:09Z</time>
      </trkpt>
      <trkpt lat="43.76467" lon="3.51575">
        <ele>675</ele>
        <time>2015-04-30T14:18:29Z</time>
      </trkpt>
      <trkpt lat="43.76471" lon="3.51529">
        <ele>677</ele>
        <time>2015-04-30T14:18:50Z</time>
      </trkpt>
      <trkpt lat="43.76479" lon="3.51498">
        <ele>683</ele>
        <time>2015-04-30T14:19:09Z</time>
      </trkpt>
      <trkpt lat="43.76466" lon="3.5148">
        <ele>682</ele>
        <time>2015-04-30T14:19:24Z</time>
      </trkpt>
      <trkpt lat="43.76452" lon="3.51465">
        <ele>682</ele>
        <time>2015-04-30T14:19:37Z</time>
      </trkpt>
      <trkpt lat="43.76442" lon="3.51442">
        <ele>682</ele>
        <time>2015-04-30T14:19:52Z</time>
      </trkpt>
      <trkpt lat="43.76442" lon="3.51441">
        <ele>682</ele>
        <time>2015-04-30T14:19:53Z</time>
      </trkpt>
      <trkpt lat="43.76441" lon="3.51432">
        <ele>682</ele>
        <time>2015-04-30T14:19:59Z</time>
      </trkpt>
      <trkpt lat="43.76437" lon="3.51403">
        <ele>686</ele>
        <time>2015-04-30T14:20:15Z</time>
      </trkpt>
      <trkpt lat="43.76431" lon="3.51369">
        <ele>689</ele>
        <time>2015-04-30T14:20:23Z</time>
      </trkpt>
      <trkpt lat="43.76429" lon="3.51363">
        <ele>689</ele>
        <time>2015-04-30T14:20:27Z</time>
      </trkpt>
      <trkpt lat="43.76421" lon="3.51341">
        <ele>687</ele>
        <time>2015-04-30T14:20:41Z</time>
      </trkpt>
      <trkpt lat="43.76414" lon="3.51312">
        <ele>688</ele>
        <time>2015-04-30T14:21:00Z</time>
      </trkpt>
      <trkpt lat="43.76403" lon="3.51286">
        <ele>690</ele>
        <time>2015-04-30T14:21:16Z</time>
      </trkpt>
      <trkpt lat="43.76394" lon="3.51273">
        <ele>691</ele>
        <time>2015-04-30T14:21:26Z</time>
      </trkpt>
      <trkpt lat="43.76389" lon="3.51257">
        <ele>693</ele>
        <time>2015-04-30T14:21:43Z</time>
      </trkpt>
      <trkpt lat="43.76385" lon="3.51244">
        <ele>704</ele>
        <time>2015-04-30T14:22:04Z</time>
      </trkpt>
      <trkpt lat="43.76375" lon="3.51232">
        <ele>705</ele>
        <time>2015-04-30T14:22:25Z</time>
      </trkpt>
      <trkpt lat="43.76366" lon="3.51223">
        <ele>705</ele>
        <time>2015-04-30T14:22:43Z</time>
      </trkpt>
      <trkpt lat="43.76354" lon="3.51215">
        <ele>705</ele>
        <time>2015-04-30T14:23:00Z</time>
      </trkpt>
      <trkpt lat="43.76347" lon="3.51212">
        <ele>706</ele>
        <time>2015-04-30T14:23:08Z</time>
      </trkpt>
      <trkpt lat="43.76339" lon="3.51209">
        <ele>706</ele>
        <time>2015-04-30T14:23:23Z</time>
      </trkpt>
      <trkpt lat="43.76306" lon="3.512">
        <ele>704</ele>
        <time>2015-04-30T14:23:39Z</time>
      </trkpt>
      <trkpt lat="43.76264" lon="3.51192">
        <ele>705</ele>
        <time>2015-04-30T14:24:00Z</time>
      </trkpt>
      <trkpt lat="43.76233" lon="3.51169">
        <ele>704</ele>
        <time>2015-04-30T14:24:18Z</time>
      </trkpt>
      <trkpt lat="43.76226" lon="3.51138">
        <ele>708</ele>
        <time>2015-04-30T14:24:32Z</time>
      </trkpt>
      <trkpt lat="43.76228" lon="3.51087">
        <ele>711</ele>
        <time>2015-04-30T14:24:48Z</time>
      </trkpt>
      <trkpt lat="43.7623" lon="3.51053">
        <ele>716</ele>
        <time>2015-04-30T14:25:02Z</time>
      </trkpt>
      <trkpt lat="43.76228" lon="3.51033">
        <ele>717</ele>
        <time>2015-04-30T14:25:12Z</time>
      </trkpt>
      <trkpt lat="43.76222" lon="3.51011">
        <ele>718</ele>
        <time>2015-04-30T14:25:26Z</time>
      </trkpt>
      <trkpt lat="43.76216" lon="3.5098">
        <ele>724</ele>
        <time>2015-04-30T14:25:46Z</time>
      </trkpt>
      <trkpt lat="43.76214" lon="3.50953">
        <ele>726</ele>
        <time>2015-04-30T14:26:03Z</time>
      </trkpt>
      <trkpt lat="43.76214" lon="3.50947">
        <ele>726</ele>
        <time>2015-04-30T14:26:07Z</time>
      </trkpt>
      <trkpt lat="43.76208" lon="3.50922">
        <ele>727</ele>
        <time>2015-04-30T14:26:25Z</time>
      </trkpt>
      <trkpt lat="43.76195" lon="3.50901">
        <ele>732</ele>
        <time>2015-04-30T14:26:42Z</time>
      </trkpt>
      <trkpt lat="43.76186" lon="3.50874">
        <ele>733</ele>
        <time>2015-04-30T14:27:00Z</time>
      </trkpt>
      <trkpt lat="43.76186" lon="3.50838">
        <ele>733</ele>
        <time>2015-04-30T14:27:19Z</time>
      </trkpt>
      <trkpt lat="43.76184" lon="3.50806">
        <ele>738</ele>
        <time>2015-04-30T14:27:35Z</time>
      </trkpt>
      <trkpt lat="43.76177" lon="3.50773">
        <ele>740</ele>
        <time>2015-04-30T14:27:50Z</time>
      </trkpt>
      <trkpt lat="43.76167" lon="3.50738">
        <ele>743</ele>
        <time>2015-04-30T14:28:09Z</time>
      </trkpt>
      <trkpt lat="43.76155" lon="3.50706">
        <ele>740</ele>
        <time>2015-04-30T14:28:28Z</time>
      </trkpt>
      <trkpt lat="43.76142" lon="3.50682">
        <ele>741</ele>
        <time>2015-04-30T14:28:44Z</time>
      </trkpt>
      <trkpt lat="43.76123" lon="3.50657">
        <ele>750</ele>
        <time>2015-04-30T14:29:03Z</time>
      </trkpt>
      <trkpt lat="43.76109" lon="3.5064">
        <ele>750</ele>
        <time>2015-04-30T14:29:19Z</time>
      </trkpt>
      <trkpt lat="43.76092" lon="3.5063">
        <ele>751</ele>
        <time>2015-04-30T14:29:32Z</time>
      </trkpt>
      <trkpt lat="43.76072" lon="3.50609">
        <ele>748</ele>
        <time>2015-04-30T14:29:51Z</time>
      </trkpt>
      <trkpt lat="43.76052" lon="3.50585">
        <ele>748</ele>
        <time>2015-04-30T14:30:10Z</time>
      </trkpt>
      <trkpt lat="43.76039" lon="3.50561">
        <ele>758</ele>
        <time>2015-04-30T14:30:26Z</time>
      </trkpt>
      <trkpt lat="43.76026" lon="3.50529">
        <ele>760</ele>
        <time>2015-04-30T14:30:45Z</time>
      </trkpt>
      <trkpt lat="43.76017" lon="3.505">
        <ele>760</ele>
        <time>2015-04-30T14:31:02Z</time>
      </trkpt>
      <trkpt lat="43.7601" lon="3.5047">
        <ele>770</ele>
        <time>2015-04-30T14:31:19Z</time>
      </trkpt>
      <trkpt lat="43.76001" lon="3.5044">
        <ele>773</ele>
        <time>2015-04-30T14:31:37Z</time>
      </trkpt>
      <trkpt lat="43.7598" lon="3.50415">
        <ele>769</ele>
        <time>2015-04-30T14:31:47Z</time>
      </trkpt>
      <trkpt lat="43.75975" lon="3.5041">
        <ele>769</ele>
        <time>2015-04-30T14:31:48Z</time>
      </trkpt>
      <trkpt lat="43.7596" lon="3.50398">
        <ele>767</ele>
        <time>2015-04-30T14:31:51Z</time>
      </trkpt>
      <trkpt lat="43.75943" lon="3.5038">
        <ele>767</ele>
        <time>2015-04-30T14:31:55Z</time>
      </trkpt>
      <trkpt lat="43.75935" lon="3.50363">
        <ele>767</ele>
        <time>2015-04-30T14:32:02Z</time>
      </trkpt>
      <trkpt lat="43.75931" lon="3.50335">
        <ele>767</ele>
        <time>2015-04-30T14:32:17Z</time>
      </trkpt>
      <trkpt lat="43.75922" lon="3.50311">
        <ele>770</ele>
        <time>2015-04-30T14:32:32Z</time>
      </trkpt>
      <trkpt lat="43.75904" lon="3.50278">
        <ele>765</ele>
        <time>2015-04-30T14:32:48Z</time>
      </trkpt>
      <trkpt lat="43.75887" lon="3.50267">
        <ele>764</ele>
        <time>2015-04-30T14:32:54Z</time>
      </trkpt>
      <trkpt lat="43.75874" lon="3.50267">
        <ele>763</ele>
        <time>2015-04-30T14:32:57Z</time>
      </trkpt>
      <trkpt lat="43.75851" lon="3.50255">
        <ele>762</ele>
        <time>2015-04-30T14:33:03Z</time>
      </trkpt>
      <trkpt lat="43.75836" lon="3.50242">
        <ele>760</ele>
        <time>2015-04-30T14:33:10Z</time>
      </trkpt>
      <trkpt lat="43.75832" lon="3.50235">
        <ele>758</ele>
        <time>2015-04-30T14:33:12Z</time>
      </trkpt>
      <trkpt lat="43.75808" lon="3.50229">
        <ele>757</ele>
        <time>2015-04-30T14:33:19Z</time>
      </trkpt>
      <trkpt lat="43.75801" lon="3.50223">
        <ele>756</ele>
        <time>2015-04-30T14:33:21Z</time>
      </trkpt>
      <trkpt lat="43.75791" lon="3.50221">
        <ele>756</ele>
        <time>2015-04-30T14:33:23Z</time>
      </trkpt>
      <trkpt lat="43.75782" lon="3.50224">
        <ele>756</ele>
        <time>2015-04-30T14:33:25Z</time>
      </trkpt>
      <trkpt lat="43.75769" lon="3.50211">
        <ele>755</ele>
        <time>2015-04-30T14:33:30Z</time>
      </trkpt>
      <trkpt lat="43.75765" lon="3.50199">
        <ele>754</ele>
        <time>2015-04-30T14:33:33Z</time>
      </trkpt>
      <trkpt lat="43.75763" lon="3.50195">
        <ele>754</ele>
        <time>2015-04-30T14:33:34Z</time>
      </trkpt>
      <trkpt lat="43.75726" lon="3.50184">
        <ele>751</ele>
        <time>2015-04-30T14:33:41Z</time>
      </trkpt>
      <trkpt lat="43.75707" lon="3.50184">
        <ele>751</ele>
        <time>2015-04-30T14:33:45Z</time>
      </trkpt>
      <trkpt lat="43.75659" lon="3.50188">
        <ele>745</ele>
        <time>2015-04-30T14:34:03Z</time>
      </trkpt>
      <trkpt lat="43.75637" lon="3.50192">
        <ele>744</ele>
        <time>2015-04-30T14:34:10Z</time>
      </trkpt>
      <trkpt lat="43.75634" lon="3.50176">
        <ele>743</ele>
        <time>2015-04-30T14:34:14Z</time>
      </trkpt>
      <trkpt lat="43.75639" lon="3.50121">
        <ele>741</ele>
        <time>2015-04-30T14:34:23Z</time>
      </trkpt>
      <trkpt lat="43.75651" lon="3.5008">
        <ele>738</ele>
        <time>2015-04-30T14:34:31Z</time>
      </trkpt>
      <trkpt lat="43.75643" lon="3.5007">
        <ele>737</ele>
        <time>2015-04-30T14:34:36Z</time>
      </trkpt>
      <trkpt lat="43.75608" lon="3.50079">
        <ele>736</ele>
        <time>2015-04-30T14:34:50Z</time>
      </trkpt>
      <trkpt lat="43.75602" lon="3.50081">
        <ele>736</ele>
        <time>2015-04-30T14:34:52Z</time>
      </trkpt>
      <trkpt lat="43.75598" lon="3.50081">
        <ele>736</ele>
        <time>2015-04-30T14:34:53Z</time>
      </trkpt>
      <trkpt lat="43.75582" lon="3.5008">
        <ele>736</ele>
        <time>2015-04-30T14:34:57Z</time>
      </trkpt>
      <trkpt lat="43.75568" lon="3.50084">
        <ele>734</ele>
        <time>2015-04-30T14:35:01Z</time>
      </trkpt>
      <trkpt lat="43.75561" lon="3.50082">
        <ele>733</ele>
        <time>2015-04-30T14:35:03Z</time>
      </trkpt>
      <trkpt lat="43.75543" lon="3.50069">
        <ele>731</ele>
        <time>2015-04-30T14:35:07Z</time>
      </trkpt>
      <trkpt lat="43.75528" lon="3.50051">
        <ele>730</ele>
        <time>2015-04-30T14:35:10Z</time>
      </trkpt>
      <trkpt lat="43.75487" lon="3.50015">
        <ele>729</ele>
        <time>2015-04-30T14:35:21Z</time>
      </trkpt>
      <trkpt lat="43.75456" lon="3.49995">
        <ele>729</ele>
        <time>2015-04-30T14:35:36Z</time>
      </trkpt>
      <trkpt lat="43.75432" lon="3.49995">
        <ele>730</ele>
        <time>2015-04-30T14:35:52Z</time>
      </trkpt>
      <trkpt lat="43.75412" lon="3.49992">
        <ele>734</ele>
        <time>2015-04-30T14:36:08Z</time>
      </trkpt>
      <trkpt lat="43.75394" lon="3.49982">
        <ele>736</ele>
        <time>2015-04-30T14:36:23Z</time>
      </trkpt>
      <trkpt lat="43.75385" lon="3.49974">
        <ele>736</ele>
        <time>2015-04-30T14:36:32Z</time>
      </trkpt>
      <trkpt lat="43.75384" lon="3.49973">
        <ele>736</ele>
        <time>2015-04-30T14:36:33Z</time>
      </trkpt>
      <trkpt lat="43.75366" lon="3.49963">
        <ele>737</ele>
        <time>2015-04-30T14:36:48Z</time>
      </trkpt>
      <trkpt lat="43.75345" lon="3.49956">
        <ele>739</ele>
        <time>2015-04-30T14:37:05Z</time>
      </trkpt>
      <trkpt lat="43.75335" lon="3.49953">
        <ele>739</ele>
        <time>2015-04-30T14:37:14Z</time>
      </trkpt>
      <trkpt lat="43.75317" lon="3.49975">
        <ele>747</ele>
        <time>2015-04-30T14:37:32Z</time>
      </trkpt>
      <trkpt lat="43.753" lon="3.49979">
        <ele>748</ele>
        <time>2015-04-30T14:37:46Z</time>
      </trkpt>
      <trkpt lat="43.75295" lon="3.49982">
        <ele>749</ele>
        <time>2015-04-30T14:37:50Z</time>
      </trkpt>
      <trkpt lat="43.75291" lon="3.49984">
        <ele>749</ele>
        <time>2015-04-30T14:37:53Z</time>
      </trkpt>
      <trkpt lat="43.75272" lon="3.49979">
        <ele>750</ele>
        <time>2015-04-30T14:38:08Z</time>
      </trkpt>
      <trkpt lat="43.75263" lon="3.49985">
        <ele>751</ele>
        <time>2015-04-30T14:38:15Z</time>
      </trkpt>
      <trkpt lat="43.75248" lon="3.50015">
        <ele>756</ele>
        <time>2015-04-30T14:38:31Z</time>
      </trkpt>
      <trkpt lat="43.75246" lon="3.50015">
        <ele>756</ele>
        <time>2015-04-30T14:38:33Z</time>
      </trkpt>
      <trkpt lat="43.75227" lon="3.5">
        <ele>757</ele>
        <time>2015-04-30T14:38:48Z</time>
      </trkpt>
      <trkpt lat="43.75201" lon="3.49986">
        <ele>759</ele>
        <time>2015-04-30T14:39:07Z</time>
      </trkpt>
      <trkpt lat="43.75179" lon="3.49972">
        <ele>760</ele>
        <time>2015-04-30T14:39:22Z</time>
      </trkpt>
      <trkpt lat="43.75154" lon="3.49955">
        <ele>762</ele>
        <time>2015-04-30T14:39:40Z</time>
      </trkpt>
      <trkpt lat="43.75127" lon="3.49947">
        <ele>762</ele>
        <time>2015-04-30T14:39:56Z</time>
      </trkpt>
      <trkpt lat="43.75107" lon="3.49944">
        <ele>762</ele>
        <time>2015-04-30T14:40:10Z</time>
      </trkpt>
      <trkpt lat="43.75085" lon="3.49947">
        <ele>762</ele>
        <time>2015-04-30T14:40:23Z</time>
      </trkpt>
      <trkpt lat="43.75083" lon="3.49946">
        <ele>763</ele>
        <time>2015-04-30T14:40:24Z</time>
      </trkpt>
      <trkpt lat="43.75076" lon="3.49947">
        <ele>763</ele>
        <time>2015-04-30T14:40:28Z</time>
      </trkpt>
      <trkpt lat="43.75055" lon="3.49978">
        <ele>763</ele>
        <time>2015-04-30T14:40:45Z</time>
      </trkpt>
      <trkpt lat="43.75029" lon="3.49976">
        <ele>763</ele>
        <time>2015-04-30T14:41:00Z</time>
      </trkpt>
      <trkpt lat="43.75004" lon="3.49965">
        <ele>764</ele>
        <time>2015-04-30T14:41:16Z</time>
      </trkpt>
      <trkpt lat="43.74982" lon="3.49937">
        <ele>766</ele>
        <time>2015-04-30T14:41:34Z</time>
      </trkpt>
      <trkpt lat="43.74966" lon="3.49909">
        <ele>769</ele>
        <time>2015-04-30T14:41:50Z</time>
      </trkpt>
      <trkpt lat="43.74952" lon="3.49896">
        <ele>770</ele>
        <time>2015-04-30T14:42:01Z</time>
      </trkpt>
      <trkpt lat="43.74939" lon="3.49884">
        <ele>771</ele>
        <time>2015-04-30T14:42:13Z</time>
      </trkpt>
      <trkpt lat="43.74929" lon="3.49859">
        <ele>773</ele>
        <time>2015-04-30T14:42:29Z</time>
      </trkpt>
      <trkpt lat="43.74915" lon="3.49844">
        <ele>777</ele>
        <time>2015-04-30T14:42:44Z</time>
      </trkpt>
      <trkpt lat="43.74904" lon="3.49818">
        <ele>780</ele>
        <time>2015-04-30T14:43:02Z</time>
      </trkpt>
      <trkpt lat="43.74894" lon="3.49797">
        <ele>781</ele>
        <time>2015-04-30T14:43:17Z</time>
      </trkpt>
      <trkpt lat="43.74881" lon="3.49777">
        <ele>782</ele>
        <time>2015-04-30T14:43:33Z</time>
      </trkpt>
      <trkpt lat="43.74876" lon="3.49762">
        <ele>782</ele>
        <time>2015-04-30T14:43:43Z</time>
      </trkpt>
      <trkpt lat="43.74871" lon="3.49754">
        <ele>782</ele>
        <time>2015-04-30T14:43:49Z</time>
      </trkpt>
      <trkpt lat="43.74861" lon="3.49732">
        <ele>783</ele>
        <time>2015-04-30T14:44:02Z</time>
      </trkpt>
      <trkpt lat="43.74847" lon="3.49698">
        <ele>783</ele>
        <time>2015-04-30T14:44:16Z</time>
      </trkpt>
      <trkpt lat="43.74838" lon="3.49678">
        <ele>783</ele>
        <time>2015-04-30T14:44:20Z</time>
      </trkpt>
      <trkpt lat="43.74812" lon="3.49646">
        <ele>782</ele>
        <time>2015-04-30T14:44:28Z</time>
      </trkpt>
      <trkpt lat="43.74805" lon="3.49625">
        <ele>782</ele>
        <time>2015-04-30T14:44:32Z</time>
      </trkpt>
      <trkpt lat="43.74797" lon="3.49566">
        <ele>783</ele>
        <time>2015-04-30T14:44:46Z</time>
      </trkpt>
      <trkpt lat="43.74799" lon="3.49526">
        <ele>783</ele>
        <time>2015-04-30T14:45:01Z</time>
      </trkpt>
      <trkpt lat="43.74801" lon="3.49483">
        <ele>785</ele>
        <time>2015-04-30T14:45:18Z</time>
      </trkpt>
      <trkpt lat="43.74778" lon="3.49451">
        <ele>785</ele>
        <time>2015-04-30T14:45:33Z</time>
      </trkpt>
      <trkpt lat="43.74757" lon="3.49414">
        <ele>785</ele>
        <time>2015-04-30T14:45:49Z</time>
      </trkpt>
      <trkpt lat="43.74746" lon="3.49386">
        <ele>788</ele>
        <time>2015-04-30T14:46:01Z</time>
      </trkpt>
      <trkpt lat="43.74738" lon="3.49376">
        <ele>789</ele>
        <time>2015-04-30T14:46:06Z</time>
      </trkpt>
      <trkpt lat="43.74718" lon="3.49355">
        <ele>790</ele>
        <time>2015-04-30T14:46:22Z</time>
      </trkpt>
      <trkpt lat="43.74708" lon="3.49331">
        <ele>789</ele>
        <time>2015-04-30T14:46:37Z</time>
      </trkpt>
      <trkpt lat="43.74708" lon="3.49292">
        <ele>789</ele>
        <time>2015-04-30T14:46:54Z</time>
      </trkpt>
      <trkpt lat="43.74702" lon="3.49259">
        <ele>788</ele>
        <time>2015-04-30T14:47:05Z</time>
      </trkpt>
      <trkpt lat="43.7469" lon="3.49246">
        <ele>785</ele>
        <time>2015-04-30T14:47:08Z</time>
      </trkpt>
      <trkpt lat="43.7468" lon="3.49237">
        <ele>786</ele>
        <time>2015-04-30T14:47:10Z</time>
      </trkpt>
      <trkpt lat="43.74625" lon="3.4919">
        <ele>788</ele>
        <time>2015-04-30T14:47:21Z</time>
      </trkpt>
      <trkpt lat="43.74592" lon="3.49151">
        <ele>785</ele>
        <time>2015-04-30T14:47:28Z</time>
      </trkpt>
      <trkpt lat="43.74567" lon="3.49149">
        <ele>787</ele>
        <time>2015-04-30T14:47:37Z</time>
      </trkpt>
      <trkpt lat="43.74537" lon="3.49143">
        <ele>787</ele>
        <time>2015-04-30T14:47:54Z</time>
      </trkpt>
      <trkpt lat="43.74512" lon="3.49134">
        <ele>788</ele>
        <time>2015-04-30T14:48:10Z</time>
      </trkpt>
      <trkpt lat="43.74486" lon="3.49121">
        <ele>789</ele>
        <time>2015-04-30T14:48:27Z</time>
      </trkpt>
      <trkpt lat="43.74474" lon="3.49089">
        <ele>789</ele>
        <time>2015-04-30T14:48:43Z</time>
      </trkpt>
      <trkpt lat="43.7446" lon="3.49057">
        <ele>793</ele>
        <time>2015-04-30T14:49:00Z</time>
      </trkpt>
      <trkpt lat="43.7446" lon="3.49055">
        <ele>793</ele>
        <time>2015-04-30T14:49:01Z</time>
      </trkpt>
      <trkpt lat="43.74449" lon="3.4903">
        <ele>794</ele>
        <time>2015-04-30T14:49:16Z</time>
      </trkpt>
      <trkpt lat="43.74436" lon="3.49002">
        <ele>795</ele>
        <time>2015-04-30T14:49:34Z</time>
      </trkpt>
      <trkpt lat="43.74423" lon="3.48987">
        <ele>798</ele>
        <time>2015-04-30T14:49:48Z</time>
      </trkpt>
      <trkpt lat="43.74408" lon="3.48966">
        <ele>798</ele>
        <time>2015-04-30T14:50:07Z</time>
      </trkpt>
      <trkpt lat="43.74407" lon="3.48961">
        <ele>798</ele>
        <time>2015-04-30T14:50:10Z</time>
      </trkpt>
      <trkpt lat="43.74405" lon="3.48954">
        <ele>798</ele>
        <time>2015-04-30T14:50:14Z</time>
      </trkpt>
      <trkpt lat="43.74401" lon="3.48946">
        <ele>799</ele>
        <time>2015-04-30T14:50:20Z</time>
      </trkpt>
      <trkpt lat="43.74393" lon="3.4893">
        <ele>799</ele>
        <time>2015-04-30T14:50:32Z</time>
      </trkpt>
      <trkpt lat="43.74381" lon="3.48911">
        <ele>802</ele>
        <time>2015-04-30T14:50:49Z</time>
      </trkpt>
      <trkpt lat="43.74378" lon="3.48906">
        <ele>802</ele>
        <time>2015-04-30T14:50:53Z</time>
      </trkpt>
      <trkpt lat="43.74365" lon="3.48884">
        <ele>802</ele>
        <time>2015-04-30T14:51:11Z</time>
      </trkpt>
      <trkpt lat="43.74356" lon="3.48864">
        <ele>803</ele>
        <time>2015-04-30T14:51:26Z</time>
      </trkpt>
      <trkpt lat="43.74357" lon="3.48863">
        <ele>803</ele>
        <time>2015-04-30T14:51:45Z</time>
      </trkpt>
      <trkpt lat="43.74358" lon="3.48862">
        <ele>803</ele>
        <time>2015-04-30T14:51:56Z</time>
      </trkpt>
      <trkpt lat="43.74365" lon="3.48837">
        <ele>803</ele>
        <time>2015-04-30T14:52:08Z</time>
      </trkpt>
      <trkpt lat="43.74367" lon="3.48835">
        <ele>803</ele>
        <time>2015-04-30T14:52:09Z</time>
      </trkpt>
      <trkpt lat="43.74371" lon="3.48829">
        <ele>808</ele>
        <time>2015-04-30T14:52:11Z</time>
      </trkpt>
      <trkpt lat="43.74377" lon="3.48825">
        <ele>808</ele>
        <time>2015-04-30T14:52:13Z</time>
      </trkpt>
      <trkpt lat="43.74417" lon="3.48807">
        <ele>812</ele>
        <time>2015-04-30T14:52:27Z</time>
      </trkpt>
      <trkpt lat="43.7444" lon="3.48785">
        <ele>813</ele>
        <time>2015-04-30T14:52:43Z</time>
      </trkpt>
      <trkpt lat="43.74452" lon="3.48783">
        <ele>813</ele>
        <time>2015-04-30T14:52:51Z</time>
      </trkpt>
      <trkpt lat="43.74474" lon="3.48778">
        <ele>814</ele>
        <time>2015-04-30T14:53:07Z</time>
      </trkpt>
      <trkpt lat="43.745" lon="3.48772">
        <ele>813</ele>
        <time>2015-04-30T14:53:23Z</time>
      </trkpt>
      <trkpt lat="43.74516" lon="3.48731">
        <ele>812</ele>
        <time>2015-04-30T14:53:37Z</time>
      </trkpt>
      <trkpt lat="43.74512" lon="3.48688">
        <ele>811</ele>
        <time>2015-04-30T14:53:51Z</time>
      </trkpt>
      <trkpt lat="43.74496" lon="3.48662">
        <ele>814</ele>
        <time>2015-04-30T14:54:04Z</time>
      </trkpt>
      <trkpt lat="43.74469" lon="3.4864">
        <ele>817</ele>
        <time>2015-04-30T14:54:20Z</time>
      </trkpt>
      <trkpt lat="43.74454" lon="3.4863">
        <ele>817</ele>
        <time>2015-04-30T14:54:30Z</time>
      </trkpt>
      <trkpt lat="43.7445" lon="3.48603">
        <ele>818</ele>
        <time>2015-04-30T14:54:45Z</time>
      </trkpt>
      <trkpt lat="43.74448" lon="3.48578">
        <ele>812</ele>
        <time>2015-04-30T14:54:59Z</time>
      </trkpt>
      <trkpt lat="43.7443" lon="3.48576">
        <ele>815</ele>
        <time>2015-04-30T14:55:10Z</time>
      </trkpt>
      <trkpt lat="43.7441" lon="3.48577">
        <ele>817</ele>
        <time>2015-04-30T14:55:25Z</time>
      </trkpt>
      <trkpt lat="43.7439" lon="3.48575">
        <ele>815</ele>
        <time>2015-04-30T14:55:41Z</time>
      </trkpt>
      <trkpt lat="43.74371" lon="3.48583">
        <ele>816</ele>
        <time>2015-04-30T14:55:57Z</time>
      </trkpt>
      <trkpt lat="43.74366" lon="3.48587">
        <ele>825</ele>
        <time>2015-04-30T14:56:02Z</time>
      </trkpt>
      <trkpt lat="43.74362" lon="3.48591">
        <ele>825</ele>
        <time>2015-04-30T14:56:06Z</time>
      </trkpt>
      <trkpt lat="43.74357" lon="3.48594">
        <ele>825</ele>
        <time>2015-04-30T14:56:11Z</time>
      </trkpt>
      <trkpt lat="43.74348" lon="3.48599">
        <ele>826</ele>
        <time>2015-04-30T14:56:19Z</time>
      </trkpt>
      <trkpt lat="43.74341" lon="3.48601">
        <ele>826</ele>
        <time>2015-04-30T14:56:25Z</time>
      </trkpt>
      <trkpt lat="43.74337" lon="3.48601">
        <ele>826</ele>
        <time>2015-04-30T14:56:28Z</time>
      </trkpt>
      <trkpt lat="43.74327" lon="3.48602">
        <ele>828</ele>
        <time>2015-04-30T14:56:37Z</time>
      </trkpt>
      <trkpt lat="43.7431" lon="3.48611">
        <ele>829</ele>
        <time>2015-04-30T14:56:52Z</time>
      </trkpt>
      <trkpt lat="43.74294" lon="3.48616">
        <ele>829</ele>
        <time>2015-04-30T14:57:05Z</time>
      </trkpt>
      <trkpt lat="43.74291" lon="3.48627">
        <ele>828</ele>
        <time>2015-04-30T14:57:11Z</time>
      </trkpt>
      <trkpt lat="43.74267" lon="3.48623">
        <ele>829</ele>
        <time>2015-04-30T14:57:23Z</time>
      </trkpt>
      <trkpt lat="43.74265" lon="3.48624">
        <ele>828</ele>
        <time>2015-04-30T14:57:35Z</time>
      </trkpt>
      <trkpt lat="43.74265" lon="3.48621">
        <ele>829</ele>
        <time>2015-04-30T14:58:18Z</time>
      </trkpt>
      <trkpt lat="43.74264" lon="3.48624">
        <ele>828</ele>
        <time>2015-04-30T14:59:01Z</time>
      </trkpt>
      <trkpt lat="43.74259" lon="3.48614">
        <ele>830</ele>
        <time>2015-04-30T14:59:47Z</time>
      </trkpt>
      <trkpt lat="43.74256" lon="3.48618">
        <ele>829</ele>
        <time>2015-04-30T15:00:27Z</time>
      </trkpt>
      <trkpt lat="43.74254" lon="3.48616">
        <ele>830</ele>
        <time>2015-04-30T15:01:04Z</time>
      </trkpt>
      <trkpt lat="43.74256" lon="3.48624">
        <ele>829</ele>
        <time>2015-04-30T15:01:47Z</time>
      </trkpt>
      <trkpt lat="43.74256" lon="3.48617">
        <ele>829</ele>
        <time>2015-04-30T15:02:31Z</time>
      </trkpt>
      <trkpt lat="43.74252" lon="3.48618">
        <ele>829</ele>
        <time>2015-04-30T15:03:08Z</time>
      </trkpt>
      <trkpt lat="43.74266" lon="3.48621">
        <ele>829</ele>
        <time>2015-04-30T15:03:52Z</time>
      </trkpt>
      <trkpt lat="43.74262" lon="3.48615">
        <ele>830</ele>
        <time>2015-04-30T15:04:29Z</time>
      </trkpt>
      <trkpt lat="43.7426" lon="3.48621">
        <ele>829</ele>
        <time>2015-04-30T15:05:12Z</time>
      </trkpt>
      <trkpt lat="43.74269" lon="3.48618">
        <ele>829</ele>
        <time>2015-04-30T15:05:49Z</time>
      </trkpt>
      <trkpt lat="43.74266" lon="3.48622">
        <ele>829</ele>
        <time>2015-04-30T15:06:24Z</time>
      </trkpt>
      <trkpt lat="43.74262" lon="3.48625">
        <ele>828</ele>
        <time>2015-04-30T15:06:59Z</time>
      </trkpt>
      <trkpt lat="43.74264" lon="3.48622">
        <ele>829</ele>
        <time>2015-04-30T15:07:33Z</time>
      </trkpt>
      <trkpt lat="43.74263" lon="3.48621">
        <ele>829</ele>
        <time>2015-04-30T15:07:58Z</time>
      </trkpt>
      <trkpt lat="43.74262" lon="3.48617">
        <ele>829</ele>
        <time>2015-04-30T15:08:34Z</time>
      </trkpt>
      <trkpt lat="43.74264" lon="3.48617">
        <ele>829</ele>
        <time>2015-04-30T15:09:03Z</time>
      </trkpt>
      <trkpt lat="43.74274" lon="3.48621">
        <ele>829</ele>
        <time>2015-04-30T15:09:15Z</time>
      </trkpt>
      <trkpt lat="43.74276" lon="3.48621">
        <ele>829</ele>
        <time>2015-04-30T15:09:31Z</time>
      </trkpt>
      <trkpt lat="43.74286" lon="3.48626">
        <ele>828</ele>
        <time>2015-04-30T15:09:46Z</time>
      </trkpt>
      <trkpt lat="43.74293" lon="3.48623">
        <ele>829</ele>
        <time>2015-04-30T15:10:03Z</time>
      </trkpt>
      <trkpt lat="43.74293" lon="3.48623">
        <ele>829</ele>
        <time>2015-04-30T15:10:04Z</time>
      </trkpt>
      <trkpt lat="43.74296" lon="3.48615">
        <ele>829</ele>
        <time>2015-04-30T15:10:09Z</time>
      </trkpt>
      <trkpt lat="43.74307" lon="3.48607">
        <ele>829</ele>
        <time>2015-04-30T15:10:18Z</time>
      </trkpt>
      <trkpt lat="43.74332" lon="3.48599">
        <ele>828</ele>
        <time>2015-04-30T15:10:32Z</time>
      </trkpt>
      <trkpt lat="43.7435" lon="3.48593">
        <ele>826</ele>
        <time>2015-04-30T15:10:43Z</time>
      </trkpt>
      <trkpt lat="43.74371" lon="3.48578">
        <ele>816</ele>
        <time>2015-04-30T15:10:51Z</time>
      </trkpt>
      <trkpt lat="43.74398" lon="3.4857">
        <ele>815</ele>
        <time>2015-04-30T15:11:00Z</time>
      </trkpt>
      <trkpt lat="43.74411" lon="3.48574">
        <ele>817</ele>
        <time>2015-04-30T15:11:04Z</time>
      </trkpt>
      <trkpt lat="43.74436" lon="3.48573">
        <ele>813</ele>
        <time>2015-04-30T15:11:11Z</time>
      </trkpt>
      <trkpt lat="43.74441" lon="3.4857">
        <ele>812</ele>
        <time>2015-04-30T15:11:13Z</time>
      </trkpt>
      <trkpt lat="43.7445" lon="3.48562">
        <ele>811</ele>
        <time>2015-04-30T15:11:16Z</time>
      </trkpt>
      <trkpt lat="43.74467" lon="3.48534">
        <ele>808</ele>
        <time>2015-04-30T15:11:22Z</time>
      </trkpt>
      <trkpt lat="43.7448" lon="3.48524">
        <ele>807</ele>
        <time>2015-04-30T15:11:26Z</time>
      </trkpt>
      <trkpt lat="43.74497" lon="3.48527">
        <ele>807</ele>
        <time>2015-04-30T15:11:30Z</time>
      </trkpt>
      <trkpt lat="43.74524" lon="3.48545">
        <ele>804</ele>
        <time>2015-04-30T15:11:38Z</time>
      </trkpt>
      <trkpt lat="43.74543" lon="3.48561">
        <ele>803</ele>
        <time>2015-04-30T15:11:51Z</time>
      </trkpt>
      <trkpt lat="43.74558" lon="3.48567">
        <ele>802</ele>
        <time>2015-04-30T15:12:00Z</time>
      </trkpt>
      <trkpt lat="43.74561" lon="3.48564">
        <ele>802</ele>
        <time>2015-04-30T15:12:13Z</time>
      </trkpt>
      <trkpt lat="43.74563" lon="3.48565">
        <ele>802</ele>
      </trkpt>
      <trkpt lat="43.74625" lon="3.48583">
        <ele>796</ele>
      </trkpt>
      <trkpt lat="43.74655" lon="3.48628">
        <ele>795</ele>
      </trkpt>
      <trkpt lat="43.74701" lon="3.48647">
        <ele>781</ele>
      </trkpt>
      <trkpt lat="43.74717" lon="3.48715">
        <ele>786</ele>
      </trkpt>
      <trkpt lat="43.74784" lon="3.48767">
        <ele>780</ele>
      </trkpt>
      <trkpt lat="43.74876" lon="3.48771">
        <ele>766</ele>
      </trkpt>
      <trkpt lat="43.74932" lon="3.48741">
        <ele>753</ele>
      </trkpt>
      <trkpt lat="43.74992" lon="3.48662">
        <ele>739</ele>
      </trkpt>
      <trkpt lat="43.75081" lon="3.48688">
        <ele>737</ele>
      </trkpt>
      <trkpt lat="43.7514" lon="3.48628">
        <ele>723</ele>
      </trkpt>
      <trkpt lat="43.7524" lon="3.48602">
        <ele>717</ele>
      </trkpt>
      <trkpt lat="43.75283" lon="3.48651">
        <ele>710</ele>
      </trkpt>
      <trkpt lat="43.75331" lon="3.48632">
        <ele>707</ele>
      </trkpt>
      <trkpt lat="43.75369" lon="3.4858">
        <ele>696</ele>
      </trkpt>
      <trkpt lat="43.75347" lon="3.48482">
        <ele>692</ele>
      </trkpt>
      <trkpt lat="43.75302" lon="3.48389">
        <ele>689</ele>
      </trkpt>
      <trkpt lat="43.75269" lon="3.48329">
        <ele>684</ele>
      </trkpt>
      <trkpt lat="43.75218" lon="3.48291">
        <ele>686</ele>
      </trkpt>
      <trkpt lat="43.75194" lon="3.48254">
        <ele>686</ele>
      </trkpt>
      <trkpt lat="43.75218" lon="3.4819">
        <ele>684</ele>
      </trkpt>
      <trkpt lat="43.75294" lon="3.48115">
        <ele>683</ele>
      </trkpt>
      <trkpt lat="43.75323" lon="3.4798">
        <ele>680</ele>
      </trkpt>
      <trkpt lat="43.75342" lon="3.47909">
        <ele>679</ele>
      </trkpt>
      <trkpt lat="43.75338" lon="3.47917">
        <ele>679</ele>
        <time>2015-04-30T15:33:12Z</time>
      </trkpt>
      <trkpt lat="43.7534" lon="3.47876">
        <ele>679</ele>
        <time>2015-04-30T15:33:35Z</time>
      </trkpt>
      <trkpt lat="43.75339" lon="3.47867">
        <ele>679</ele>
        <time>2015-04-30T15:33:51Z</time>
      </trkpt>
      <trkpt lat="43.75337" lon="3.47826">
        <ele>679</ele>
        <time>2015-04-30T15:34:14Z</time>
      </trkpt>
      <trkpt lat="43.75336" lon="3.47782">
        <ele>678</ele>
        <time>2015-04-30T15:34:38Z</time>
      </trkpt>
      <trkpt lat="43.75336" lon="3.47752">
        <ele>677</ele>
        <time>2015-04-30T15:34:57Z</time>
      </trkpt>
      <trkpt lat="43.75335" lon="3.47744">
        <ele>677</ele>
        <time>2015-04-30T15:35:02Z</time>
      </trkpt>
      <trkpt lat="43.75333" lon="3.47675">
        <ele>675</ele>
        <time>2015-04-30T15:35:16Z</time>
      </trkpt>
      <trkpt lat="43.75331" lon="3.47557">
        <ele>675</ele>
        <time>2015-04-30T15:35:35Z</time>
      </trkpt>
      <trkpt lat="43.7533" lon="3.47529">
        <ele>675</ele>
        <time>2015-04-30T15:35:47Z</time>
      </trkpt>
      <trkpt lat="43.75329" lon="3.47491">
        <ele>675</ele>
        <time>2015-04-30T15:36:08Z</time>
      </trkpt>
      <trkpt lat="43.75328" lon="3.47449">
        <ele>676</ele>
        <time>2015-04-30T15:36:33Z</time>
      </trkpt>
      <trkpt lat="43.75328" lon="3.47436">
        <ele>676</ele>
        <time>2015-04-30T15:36:44Z</time>
      </trkpt>
      <trkpt lat="43.75326" lon="3.47398">
        <ele>677</ele>
        <time>2015-04-30T15:37:06Z</time>
      </trkpt>
      <trkpt lat="43.75325" lon="3.47357">
        <ele>678</ele>
        <time>2015-04-30T15:37:30Z</time>
      </trkpt>
      <trkpt lat="43.75324" lon="3.4731">
        <ele>679</ele>
        <time>2015-04-30T15:37:57Z</time>
      </trkpt>
      <trkpt lat="43.75322" lon="3.47286">
        <ele>679</ele>
        <time>2015-04-30T15:38:17Z</time>
      </trkpt>
      <trkpt lat="43.75324" lon="3.47284">
        <ele>679</ele>
        <time>2015-04-30T15:38:37Z</time>
      </trkpt>
      <trkpt lat="43.75323" lon="3.47282">
        <ele>679</ele>
        <time>2015-04-30T15:38:54Z</time>
      </trkpt>
      <trkpt lat="43.75322" lon="3.47258">
        <ele>678</ele>
        <time>2015-04-30T15:39:10Z</time>
      </trkpt>
      <trkpt lat="43.7532" lon="3.47218">
        <ele>679</ele>
        <time>2015-04-30T15:39:34Z</time>
      </trkpt>
      <trkpt lat="43.75319" lon="3.47177">
        <ele>679</ele>
        <time>2015-04-30T15:39:57Z</time>
      </trkpt>
      <trkpt lat="43.75317" lon="3.47141">
        <ele>680</ele>
        <time>2015-04-30T15:40:18Z</time>
      </trkpt>
      <trkpt lat="43.75317" lon="3.47105">
        <ele>681</ele>
        <time>2015-04-30T15:40:38Z</time>
      </trkpt>
      <trkpt lat="43.75317" lon="3.47074">
        <ele>683</ele>
        <time>2015-04-30T15:40:57Z</time>
      </trkpt>
      <trkpt lat="43.75315" lon="3.4703">
        <ele>684</ele>
        <time>2015-04-30T15:41:23Z</time>
      </trkpt>
      <trkpt lat="43.75313" lon="3.46996">
        <ele>685</ele>
        <time>2015-04-30T15:41:44Z</time>
      </trkpt>
      <trkpt lat="43.75314" lon="3.46987">
        <ele>685</ele>
        <time>2015-04-30T15:42:06Z</time>
      </trkpt>
      <trkpt lat="43.75312" lon="3.46954">
        <ele>686</ele>
        <time>2015-04-30T15:42:29Z</time>
      </trkpt>
      <trkpt lat="43.75314" lon="3.46944">
        <ele>686</ele>
        <time>2015-04-30T15:42:46Z</time>
      </trkpt>
      <trkpt lat="43.75313" lon="3.46945">
        <ele>686</ele>
        <time>2015-04-30T15:43:19Z</time>
      </trkpt>
      <trkpt lat="43.75312" lon="3.46942">
        <ele>686</ele>
        <time>2015-04-30T15:43:41Z</time>
      </trkpt>
      <trkpt lat="43.75313" lon="3.46942">
        <ele>686</ele>
        <time>2015-04-30T15:44:11Z</time>
      </trkpt>
      <trkpt lat="43.75314" lon="3.46942">
        <ele>686</ele>
        <time>2015-04-30T15:44:55Z</time>
      </trkpt>
      <trkpt lat="43.75314" lon="3.46941">
        <ele>686</ele>
        <time>2015-04-30T15:45:34Z</time>
      </trkpt>
      <trkpt lat="43.75315" lon="3.46942">
        <ele>686</ele>
        <time>2015-04-30T15:46:16Z</time>
      </trkpt>
      <trkpt lat="43.75316" lon="3.46942">
        <ele>686</ele>
        <time>2015-04-30T15:46:51Z</time>
      </trkpt>
      <trkpt lat="43.75316" lon="3.46943">
        <ele>686</ele>
        <time>2015-04-30T15:47:26Z</time>
      </trkpt>
      <trkpt lat="43.75314" lon="3.46942">
        <ele>686</ele>
        <time>2015-04-30T15:48:00Z</time>
      </trkpt>
      <trkpt lat="43.75314" lon="3.46941">
        <ele>686</ele>
        <time>2015-04-30T15:48:39Z</time>
      </trkpt>
      <trkpt lat="43.75313" lon="3.46942">
        <ele>686</ele>
        <time>2015-04-30T15:49:13Z</time>
      </trkpt>
      <trkpt lat="43.75314" lon="3.46941">
        <ele>686</ele>
        <time>2015-04-30T15:49:46Z</time>
      </trkpt>
      <trkpt lat="43.75314" lon="3.46942">
        <ele>686</ele>
        <time>2015-04-30T15:50:27Z</time>
      </trkpt>
      <trkpt lat="43.75314" lon="3.46943">
        <ele>686</ele>
        <time>2015-04-30T15:51:04Z</time>
      </trkpt>
      <trkpt lat="43.75314" lon="3.46942">
        <ele>686</ele>
        <time>2015-04-30T15:51:49Z</time>
      </trkpt>
      <trkpt lat="43.75313" lon="3.46943">
        <ele>686</ele>
        <time>2015-04-30T15:52:27Z</time>
      </trkpt>
      <trkpt lat="43.75311" lon="3.46942">
        <ele>686</ele>
        <time>2015-04-30T15:53:10Z</time>
      </trkpt>
      <trkpt lat="43.75314" lon="3.46942">
        <ele>686</ele>
        <time>2015-04-30T15:53:48Z</time>
      </trkpt>
      <trkpt lat="43.75314" lon="3.46943">
        <ele>686</ele>
        <time>2015-04-30T15:54:32Z</time>
      </trkpt>
      <trkpt lat="43.75313" lon="3.46944">
        <ele>686</ele>
        <time>2015-04-30T15:55:17Z</time>
      </trkpt>
      <trkpt lat="43.75314" lon="3.46942">
        <ele>686</ele>
        <time>2015-04-30T15:56:03Z</time>
      </trkpt>
      <trkpt lat="43.75311" lon="3.46941">
        <ele>686</ele>
        <time>2015-04-30T15:56:42Z</time>
      </trkpt>
      <trkpt lat="43.75313" lon="3.46941">
        <ele>686</ele>
        <time>2015-04-30T15:57:25Z</time>
      </trkpt>
      <trkpt lat="43.75314" lon="3.46941">
        <ele>686</ele>
        <time>2015-04-30T15:57:59Z</time>
      </trkpt>
      <trkpt lat="43.75312" lon="3.46943">
        <ele>686</ele>
        <time>2015-04-30T15:58:31Z</time>
      </trkpt>
      <trkpt lat="43.75313" lon="3.46942">
        <ele>686</ele>
        <time>2015-04-30T15:59:13Z</time>
      </trkpt>
      <trkpt lat="43.75311" lon="3.46942">
        <ele>686</ele>
        <time>2015-04-30T15:59:53Z</time>
      </trkpt>
      <trkpt lat="43.75311" lon="3.46941">
        <ele>686</ele>
        <time>2015-04-30T16:00:36Z</time>
      </trkpt>
      <trkpt lat="43.75311" lon="3.46942">
        <ele>686</ele>
        <time>2015-04-30T16:01:16Z</time>
      </trkpt>
      <trkpt lat="43.75312" lon="3.46941">
        <ele>686</ele>
        <time>2015-04-30T16:01:57Z</time>
      </trkpt>
      <trkpt lat="43.75311" lon="3.46941">
        <ele>686</ele>
        <time>2015-04-30T16:02:41Z</time>
      </trkpt>
      <trkpt lat="43.7531" lon="3.46943">
        <ele>686</ele>
        <time>2015-04-30T16:03:21Z</time>
      </trkpt>
      <trkpt lat="43.75311" lon="3.46943">
        <ele>686</ele>
        <time>2015-04-30T16:04:00Z</time>
      </trkpt>
      <trkpt lat="43.75313" lon="3.46943">
        <ele>686</ele>
        <time>2015-04-30T16:04:42Z</time>
      </trkpt>
      <trkpt lat="43.75313" lon="3.46943">
        <ele>686</ele>
        <time>2015-04-30T16:05:16Z</time>
      </trkpt>
      <trkpt lat="43.75311" lon="3.46942">
        <ele>686</ele>
        <time>2015-04-30T16:05:56Z</time>
      </trkpt>
      <trkpt lat="43.75311" lon="3.46941">
        <ele>686</ele>
        <time>2015-04-30T16:06:36Z</time>
      </trkpt>
      <trkpt lat="43.75309" lon="3.46944">
        <ele>686</ele>
        <time>2015-04-30T16:07:18Z</time>
      </trkpt>
      <trkpt lat="43.75312" lon="3.46943">
        <ele>686</ele>
        <time>2015-04-30T16:08:00Z</time>
      </trkpt>
      <trkpt lat="43.75311" lon="3.46944">
        <ele>686</ele>
        <time>2015-04-30T16:08:43Z</time>
      </trkpt>
      <trkpt lat="43.75311" lon="3.46943">
        <ele>686</ele>
        <time>2015-04-30T16:09:22Z</time>
      </trkpt>
      <trkpt lat="43.75312" lon="3.46942">
        <ele>686</ele>
        <time>2015-04-30T16:10:01Z</time>
      </trkpt>
      <trkpt lat="43.75313" lon="3.46942">
        <ele>686</ele>
        <time>2015-04-30T16:10:39Z</time>
      </trkpt>
      <trkpt lat="43.75314" lon="3.46946">
        <ele>686</ele>
        <time>2015-04-30T16:11:21Z</time>
      </trkpt>
      <trkpt lat="43.75311" lon="3.46944">
        <ele>686</ele>
        <time>2015-04-30T16:12:09Z</time>
      </trkpt>
      <trkpt lat="43.75312" lon="3.46942">
        <ele>686</ele>
        <time>2015-04-30T16:12:54Z</time>
      </trkpt>
      <trkpt lat="43.75314" lon="3.46943">
        <ele>686</ele>
        <time>2015-04-30T16:13:33Z</time>
      </trkpt>
      <trkpt lat="43.75312" lon="3.46943">
        <ele>686</ele>
        <time>2015-04-30T16:14:06Z</time>
      </trkpt>
      <trkpt lat="43.75311" lon="3.46942">
        <ele>686</ele>
        <time>2015-04-30T16:14:47Z</time>
      </trkpt>
      <trkpt lat="43.75312" lon="3.46943">
        <ele>686</ele>
        <time>2015-04-30T16:15:29Z</time>
      </trkpt>
      <trkpt lat="43.75313" lon="3.46941">
        <ele>686</ele>
        <time>2015-04-30T16:16:16Z</time>
      </trkpt>
      <trkpt lat="43.7531" lon="3.46943">
        <ele>686</ele>
        <time>2015-04-30T16:16:47Z</time>
      </trkpt>
      <trkpt lat="43.75313" lon="3.46943">
        <ele>686</ele>
        <time>2015-04-30T16:17:31Z</time>
      </trkpt>
      <trkpt lat="43.75313" lon="3.46944">
        <ele>686</ele>
        <time>2015-04-30T16:18:13Z</time>
      </trkpt>
      <trkpt lat="43.75312" lon="3.46944">
        <ele>686</ele>
        <time>2015-04-30T16:18:50Z</time>
      </trkpt>
      <trkpt lat="43.75311" lon="3.46944">
        <ele>686</ele>
        <time>2015-04-30T16:19:31Z</time>
      </trkpt>
      <trkpt lat="43.75311" lon="3.46943">
        <ele>686</ele>
        <time>2015-04-30T16:20:06Z</time>
      </trkpt>
      <trkpt lat="43.75312" lon="3.46944">
        <ele>686</ele>
        <time>2015-04-30T16:20:44Z</time>
      </trkpt>
      <trkpt lat="43.7531" lon="3.46944">
        <ele>686</ele>
        <time>2015-04-30T16:21:17Z</time>
      </trkpt>
      <trkpt lat="43.75309" lon="3.46944">
        <ele>686</ele>
        <time>2015-04-30T16:21:45Z</time>
      </trkpt>
      <trkpt lat="43.75308" lon="3.46944">
        <ele>686</ele>
        <time>2015-04-30T16:22:22Z</time>
      </trkpt>
      <trkpt lat="43.75309" lon="3.46944">
        <ele>686</ele>
        <time>2015-04-30T16:22:40Z</time>
      </trkpt>
      <trkpt lat="43.75308" lon="3.46944">
        <ele>686</ele>
        <time>2015-04-30T16:23:08Z</time>
      </trkpt>
      <trkpt lat="43.75309" lon="3.46944">
        <ele>686</ele>
        <time>2015-04-30T16:23:32Z</time>
      </trkpt>
      <trkpt lat="43.75312" lon="3.46944">
        <ele>686</ele>
        <time>2015-04-30T16:24:05Z</time>
      </trkpt>
      <trkpt lat="43.75314" lon="3.46944">
        <ele>686</ele>
        <time>2015-04-30T16:24:43Z</time>
      </trkpt>
      <trkpt lat="43.75312" lon="3.46944">
        <ele>686</ele>
        <time>2015-04-30T16:25:18Z</time>
      </trkpt>
      <trkpt lat="43.75313" lon="3.46944">
        <ele>686</ele>
        <time>2015-04-30T16:25:48Z</time>
      </trkpt>
      <trkpt lat="43.75312" lon="3.46942">
        <ele>686</ele>
        <time>2015-04-30T16:26:07Z</time>
      </trkpt>
      <trkpt lat="43.75314" lon="3.46941">
        <ele>686</ele>
        <time>2015-04-30T16:26:34Z</time>
      </trkpt>
      <trkpt lat="43.75312" lon="3.4694">
        <ele>686</ele>
        <time>2015-04-30T16:27:05Z</time>
      </trkpt>
      <trkpt lat="43.75312" lon="3.46939">
        <ele>686</ele>
        <time>2015-04-30T16:27:36Z</time>
      </trkpt>
      <trkpt lat="43.75311" lon="3.46942">
        <ele>686</ele>
        <time>2015-04-30T16:28:07Z</time>
      </trkpt>
      <trkpt lat="43.7531" lon="3.46945">
        <ele>686</ele>
        <time>2015-04-30T16:28:36Z</time>
      </trkpt>
      <trkpt lat="43.75311" lon="3.46943">
        <ele>686</ele>
        <time>2015-04-30T16:29:05Z</time>
      </trkpt>
      <trkpt lat="43.75311" lon="3.46941">
        <ele>686</ele>
        <time>2015-04-30T16:29:33Z</time>
      </trkpt>
      <trkpt lat="43.7531" lon="3.46941">
        <ele>686</ele>
        <time>2015-04-30T16:30:08Z</time>
      </trkpt>
      <trkpt lat="43.75309" lon="3.46943">
        <ele>686</ele>
        <time>2015-04-30T16:30:39Z</time>
      </trkpt>
      <trkpt lat="43.75309" lon="3.46943">
        <ele>686</ele>
        <time>2015-04-30T16:31:16Z</time>
      </trkpt>
      <trkpt lat="43.75312" lon="3.46944">
        <ele>686</ele>
        <time>2015-04-30T16:31:51Z</time>
      </trkpt>
      <trkpt lat="43.75312" lon="3.46943">
        <ele>686</ele>
        <time>2015-04-30T16:32:16Z</time>
      </trkpt>
      <trkpt lat="43.75313" lon="3.46941">
        <ele>686</ele>
        <time>2015-04-30T16:32:43Z</time>
      </trkpt>
      <trkpt lat="43.75313" lon="3.46942">
        <ele>686</ele>
        <time>2015-04-30T16:33:11Z</time>
      </trkpt>
      <trkpt lat="43.75312" lon="3.46943">
        <ele>686</ele>
        <time>2015-04-30T16:33:41Z</time>
      </trkpt>
      <trkpt lat="43.75312" lon="3.46944">
        <ele>686</ele>
        <time>2015-04-30T16:34:09Z</time>
      </trkpt>
      <trkpt lat="43.75313" lon="3.46943">
        <ele>686</ele>
        <time>2015-04-30T16:34:38Z</time>
      </trkpt>
      <trkpt lat="43.75311" lon="3.46944">
        <ele>686</ele>
        <time>2015-04-30T16:35:04Z</time>
      </trkpt>
      <trkpt lat="43.75311" lon="3.46943">
        <ele>686</ele>
        <time>2015-04-30T16:35:35Z</time>
      </trkpt>
      <trkpt lat="43.75311" lon="3.46944">
        <ele>686</ele>
        <time>2015-04-30T16:36:06Z</time>
      </trkpt>
      <trkpt lat="43.75312" lon="3.46942">
        <ele>686</ele>
        <time>2015-04-30T16:36:42Z</time>
      </trkpt>
      <trkpt lat="43.75313" lon="3.46942">
        <ele>686</ele>
        <time>2015-04-30T16:37:14Z</time>
      </trkpt>
      <trkpt lat="43.75312" lon="3.46943">
        <ele>686</ele>
        <time>2015-04-30T16:37:53Z</time>
      </trkpt>
      <trkpt lat="43.75312" lon="3.46944">
        <ele>686</ele>
        <time>2015-04-30T16:38:25Z</time>
      </trkpt>
      <trkpt lat="43.75312" lon="3.46942">
        <ele>686</ele>
        <time>2015-04-30T16:39:03Z</time>
      </trkpt>
      <trkpt lat="43.75313" lon="3.46943">
        <ele>686</ele>
        <time>2015-04-30T16:39:30Z</time>
      </trkpt>
      <trkpt lat="43.75311" lon="3.46941">
        <ele>686</ele>
        <time>2015-04-30T16:39:55Z</time>
      </trkpt>
      <trkpt lat="43.7531" lon="3.46912">
        <ele>687</ele>
        <time>2015-04-30T16:40:08Z</time>
      </trkpt>
      <trkpt lat="43.75308" lon="3.46875">
        <ele>688</ele>
        <time>2015-04-30T16:40:22Z</time>
      </trkpt>
      <trkpt lat="43.75309" lon="3.46843">
        <ele>688</ele>
        <time>2015-04-30T16:40:38Z</time>
      </trkpt>
      <trkpt lat="43.75307" lon="3.46829">
        <ele>689</ele>
        <time>2015-04-30T16:40:46Z</time>
      </trkpt>
      <trkpt lat="43.75305" lon="3.46817">
        <ele>690</ele>
        <time>2015-04-30T16:40:56Z</time>
      </trkpt>
      <trkpt lat="43.75309" lon="3.46833">
        <ele>689</ele>
        <time>2015-04-30T16:41:01Z</time>
      </trkpt>
      <trkpt lat="43.75311" lon="3.46892">
        <ele>687</ele>
        <time>2015-04-30T16:41:13Z</time>
      </trkpt>
      <trkpt lat="43.75311" lon="3.46941">
        <ele>686</ele>
        <time>2015-04-30T16:41:27Z</time>
      </trkpt>
      <trkpt lat="43.75313" lon="3.46983">
        <ele>685</ele>
        <time>2015-04-30T16:41:40Z</time>
      </trkpt>
      <trkpt lat="43.75312" lon="3.46985">
        <ele>685</ele>
        <time>2015-04-30T16:41:41Z</time>
      </trkpt>
      <trkpt lat="43.75313" lon="3.46987">
        <ele>685</ele>
        <time>2015-04-30T16:41:43Z</time>
      </trkpt>
      <trkpt lat="43.75313" lon="3.4697">
        <ele>685</ele>
        <time>2015-04-30T16:41:51Z</time>
      </trkpt>
      <trkpt lat="43.75311" lon="3.46936">
        <ele>686</ele>
        <time>2015-04-30T16:42:10Z</time>
      </trkpt>
      <trkpt lat="43.75311" lon="3.46908">
        <ele>687</ele>
        <time>2015-04-30T16:42:25Z</time>
      </trkpt>
      <trkpt lat="43.75309" lon="3.46875">
        <ele>688</ele>
        <time>2015-04-30T16:42:41Z</time>
      </trkpt>
      <trkpt lat="43.75308" lon="3.46847">
        <ele>688</ele>
        <time>2015-04-30T16:42:56Z</time>
      </trkpt>
      <trkpt lat="43.75307" lon="3.46823">
        <ele>689</ele>
        <time>2015-04-30T16:43:10Z</time>
      </trkpt>
      <trkpt lat="43.75306" lon="3.46819">
        <ele>690</ele>
        <time>2015-04-30T16:43:12Z</time>
      </trkpt>
      <trkpt lat="43.75306" lon="3.46793">
        <ele>690</ele>
        <time>2015-04-30T16:43:27Z</time>
      </trkpt>
      <trkpt lat="43.75307" lon="3.46783">
        <ele>691</ele>
        <time>2015-04-30T16:43:32Z</time>
      </trkpt>
      <trkpt lat="43.75308" lon="3.46791">
        <ele>690</ele>
        <time>2015-04-30T16:43:39Z</time>
      </trkpt>
      <trkpt lat="43.7531" lon="3.46856">
        <ele>688</ele>
        <time>2015-04-30T16:43:52Z</time>
      </trkpt>
      <trkpt lat="43.75312" lon="3.46931">
        <ele>686</ele>
        <time>2015-04-30T16:44:07Z</time>
      </trkpt>
      <trkpt lat="43.75311" lon="3.46937">
        <ele>686</ele>
        <time>2015-04-30T16:44:18Z</time>
      </trkpt>
      <trkpt lat="43.75311" lon="3.46937">
        <ele>686</ele>
        <time>2015-04-30T16:44:37Z</time>
      </trkpt>
      <trkpt lat="43.75315" lon="3.46942">
        <ele>686</ele>
        <time>2015-04-30T16:45:03Z</time>
      </trkpt>
      <trkpt lat="43.75315" lon="3.46938">
        <ele>686</ele>
        <time>2015-04-30T16:45:36Z</time>
      </trkpt>
      <trkpt lat="43.75315" lon="3.4694">
        <ele>686</ele>
        <time>2015-04-30T16:46:20Z</time>
      </trkpt>
      <trkpt lat="43.75316" lon="3.46941">
        <ele>686</ele>
        <time>2015-04-30T16:47:01Z</time>
      </trkpt>
      <trkpt lat="43.75313" lon="3.46939">
        <ele>686</ele>
        <time>2015-04-30T16:47:12Z</time>
      </trkpt>
      <trkpt lat="43.75313" lon="3.46943">
        <ele>686</ele>
        <time>2015-04-30T16:47:28Z</time>
      </trkpt>
      <trkpt lat="43.75316" lon="3.46945">
        <ele>686</ele>
        <time>2015-04-30T16:47:48Z</time>
      </trkpt>
      <trkpt lat="43.75318" lon="3.46945">
        <ele>686</ele>
        <time>2015-04-30T16:48:33Z</time>
      </trkpt>
      <trkpt lat="43.75318" lon="3.46944">
        <ele>686</ele>
        <time>2015-04-30T16:49:07Z</time>
      </trkpt>
      <trkpt lat="43.75317" lon="3.46945">
        <ele>686</ele>
        <time>2015-04-30T16:49:38Z</time>
      </trkpt>
      <trkpt lat="43.75316" lon="3.46945">
        <ele>686</ele>
        <time>2015-04-30T16:50:11Z</time>
      </trkpt>
      <trkpt lat="43.75315" lon="3.46945">
        <ele>686</ele>
        <time>2015-04-30T16:50:45Z</time>
      </trkpt>
      <trkpt lat="43.75315" lon="3.46945">
        <ele>686</ele>
        <time>2015-04-30T16:51:27Z</time>
      </trkpt>
      <trkpt lat="43.7531" lon="3.46941">
        <ele>686</ele>
        <time>2015-04-30T16:51:40Z</time>
      </trkpt>
      <trkpt lat="43.7531" lon="3.46936">
        <ele>686</ele>
        <time>2015-04-30T16:51:51Z</time>
      </trkpt>
      <trkpt lat="43.75311" lon="3.46933">
        <ele>686</ele>
        <time>2015-04-30T16:52:11Z</time>
      </trkpt>
      <trkpt lat="43.75309" lon="3.46898">
        <ele>687</ele>
        <time>2015-04-30T16:52:24Z</time>
      </trkpt>
      <trkpt lat="43.75309" lon="3.46839">
        <ele>688</ele>
        <time>2015-04-30T16:52:42Z</time>
      </trkpt>
      <trkpt lat="43.75308" lon="3.46787">
        <ele>690</ele>
        <time>2015-04-30T16:52:59Z</time>
      </trkpt>
      <trkpt lat="43.75304" lon="3.46728">
        <ele>694</ele>
        <time>2015-04-30T16:53:18Z</time>
      </trkpt>
      <trkpt lat="43.75296" lon="3.46673">
        <ele>695</ele>
        <time>2015-04-30T16:53:37Z</time>
      </trkpt>
      <trkpt lat="43.7529" lon="3.4663">
        <ele>697</ele>
        <time>2015-04-30T16:53:55Z</time>
      </trkpt>
      <trkpt lat="43.75279" lon="3.46563">
        <ele>697</ele>
        <time>2015-04-30T16:54:07Z</time>
      </trkpt>
      <trkpt lat="43.75265" lon="3.46468">
        <ele>697</ele>
        <time>2015-04-30T16:54:21Z</time>
      </trkpt>
      <trkpt lat="43.75255" lon="3.46421">
        <ele>698</ele>
        <time>2015-04-30T16:54:36Z</time>
      </trkpt>
      <trkpt lat="43.75225" lon="3.46405">
        <ele>699</ele>
        <time>2015-04-30T16:54:48Z</time>
      </trkpt>
      <trkpt lat="43.7517" lon="3.46392">
        <ele>699</ele>
        <time>2015-04-30T16:55:08Z</time>
      </trkpt>
      <trkpt lat="43.7511" lon="3.46358">
        <ele>702</ele>
        <time>2015-04-30T16:55:27Z</time>
      </trkpt>
      <trkpt lat="43.75064" lon="3.4635">
        <ele>704</ele>
        <time>2015-04-30T16:55:40Z</time>
      </trkpt>
      <trkpt lat="43.75029" lon="3.46373">
        <ele>704</ele>
        <time>2015-04-30T16:55:52Z</time>
      </trkpt>
      <trkpt lat="43.75015" lon="3.46366">
        <ele>705</ele>
        <time>2015-04-30T16:56:06Z</time>
      </trkpt>
      <trkpt lat="43.75013" lon="3.46361">
        <ele>705</ele>
        <time>2015-04-30T16:56:37Z</time>
      </trkpt>
      <trkpt lat="43.75013" lon="3.46362">
        <ele>705</ele>
        <time>2015-04-30T16:57:09Z</time>
      </trkpt>
      <trkpt lat="43.75012" lon="3.46362">
        <ele>705</ele>
        <time>2015-04-30T16:57:24Z</time>
      </trkpt>
      <trkpt lat="43.7499" lon="3.46356">
        <ele>705</ele>
        <time>2015-04-30T16:57:37Z</time>
      </trkpt>
      <trkpt lat="43.7499" lon="3.46361">
        <ele>704</ele>
        <time>2015-04-30T16:57:50Z</time>
      </trkpt>
      <trkpt lat="43.74985" lon="3.46366">
        <ele>704</ele>
        <time>2015-04-30T16:58:20Z</time>
      </trkpt>
      <trkpt lat="43.74985" lon="3.46366">
        <ele>704</ele>
        <time>2015-04-30T16:59:06Z</time>
      </trkpt>
      <trkpt lat="43.74982" lon="3.46372">
        <ele>704</ele>
        <time>2015-04-30T16:59:32Z</time>
      </trkpt>
      <trkpt lat="43.74983" lon="3.46371">
        <ele>704</ele>
        <time>2015-04-30T17:00:02Z</time>
      </trkpt>
      <trkpt lat="43.74984" lon="3.46374">
        <ele>704</ele>
        <time>2015-04-30T17:00:29Z</time>
      </trkpt>
      <trkpt lat="43.74993" lon="3.46363">
        <ele>704</ele>
        <time>2015-04-30T17:00:58Z</time>
      </trkpt>
      <trkpt lat="43.74993" lon="3.46365">
        <ele>704</ele>
        <time>2015-04-30T17:01:35Z</time>
      </trkpt>
      <trkpt lat="43.74982" lon="3.46366">
        <ele>704</ele>
        <time>2015-04-30T17:01:56Z</time>
      </trkpt>
      <trkpt lat="43.74972" lon="3.46354">
        <ele>704</ele>
        <time>2015-04-30T17:02:02Z</time>
      </trkpt>
      <trkpt lat="43.74928" lon="3.46317">
        <ele>705</ele>
        <time>2015-04-30T17:02:17Z</time>
      </trkpt>
      <trkpt lat="43.74918" lon="3.4631">
        <ele>705</ele>
        <time>2015-04-30T17:02:20Z</time>
      </trkpt>
      <trkpt lat="43.74882" lon="3.46304">
        <ele>703</ele>
        <time>2015-04-30T17:02:29Z</time>
      </trkpt>
      <trkpt lat="43.74868" lon="3.46295">
        <ele>703</ele>
        <time>2015-04-30T17:02:33Z</time>
      </trkpt>
      <trkpt lat="43.74825" lon="3.4625">
        <ele>705</ele>
        <time>2015-04-30T17:02:46Z</time>
      </trkpt>
      <trkpt lat="43.74795" lon="3.46239">
        <ele>710</ele>
        <time>2015-04-30T17:02:53Z</time>
      </trkpt>
      <trkpt lat="43.74751" lon="3.46244">
        <ele>706</ele>
        <time>2015-04-30T17:03:03Z</time>
      </trkpt>
      <trkpt lat="43.74677" lon="3.46218">
        <ele>707</ele>
        <time>2015-04-30T17:03:21Z</time>
      </trkpt>
      <trkpt lat="43.74643" lon="3.46199">
        <ele>705</ele>
        <time>2015-04-30T17:03:30Z</time>
      </trkpt>
      <trkpt lat="43.74619" lon="3.46167">
        <ele>704</ele>
        <time>2015-04-30T17:03:38Z</time>
      </trkpt>
      <trkpt lat="43.74586" lon="3.46102">
        <ele>711</ele>
        <time>2015-04-30T17:03:52Z</time>
      </trkpt>
      <trkpt lat="43.74572" lon="3.46078">
        <ele>711</ele>
        <time>2015-04-30T17:03:57Z</time>
      </trkpt>
      <trkpt lat="43.74562" lon="3.46058">
        <ele>710</ele>
        <time>2015-04-30T17:04:01Z</time>
      </trkpt>
      <trkpt lat="43.74514" lon="3.45972">
        <ele>713</ele>
        <time>2015-04-30T17:04:20Z</time>
      </trkpt>
      <trkpt lat="43.74497" lon="3.45883">
        <ele>710</ele>
        <time>2015-04-30T17:04:37Z</time>
      </trkpt>
      <trkpt lat="43.74487" lon="3.45857">
        <ele>707</ele>
        <time>2015-04-30T17:04:41Z</time>
      </trkpt>
      <trkpt lat="43.74464" lon="3.45826">
        <ele>693</ele>
        <time>2015-04-30T17:04:47Z</time>
      </trkpt>
      <trkpt lat="43.74451" lon="3.45817">
        <ele>692</ele>
        <time>2015-04-30T17:04:50Z</time>
      </trkpt>
      <trkpt lat="43.74414" lon="3.45803">
        <ele>695</ele>
        <time>2015-04-30T17:04:58Z</time>
      </trkpt>
      <trkpt lat="43.74378" lon="3.45808">
        <ele>696</ele>
        <time>2015-04-30T17:05:05Z</time>
      </trkpt>
      <trkpt lat="43.74333" lon="3.45785">
        <ele>704</ele>
        <time>2015-04-30T17:05:17Z</time>
      </trkpt>
      <trkpt lat="43.74301" lon="3.4575">
        <ele>684</ele>
        <time>2015-04-30T17:05:29Z</time>
      </trkpt>
      <trkpt lat="43.74295" lon="3.45749">
        <ele>686</ele>
        <time>2015-04-30T17:05:41Z</time>
      </trkpt>
      <trkpt lat="43.74291" lon="3.45746">
        <ele>687</ele>
        <time>2015-04-30T17:06:01Z</time>
      </trkpt>
      <trkpt lat="43.74291" lon="3.45746">
        <ele>687</ele>
        <time>2015-04-30T17:06:37Z</time>
      </trkpt>
      <trkpt lat="43.74292" lon="3.4574">
        <ele>686</ele>
        <time>2015-04-30T17:07:13Z</time>
      </trkpt>
      <trkpt lat="43.74294" lon="3.45744">
        <ele>686</ele>
        <time>2015-04-30T17:07:45Z</time>
      </trkpt>
      <trkpt lat="43.74292" lon="3.45745">
        <ele>686</ele>
        <time>2015-04-30T17:08:10Z</time>
      </trkpt>
      <trkpt lat="43.74276" lon="3.4573">
        <ele>689</ele>
        <time>2015-04-30T17:08:23Z</time>
      </trkpt>
      <trkpt lat="43.7423" lon="3.45665">
        <ele>673</ele>
        <time>2015-04-30T17:08:34Z</time>
      </trkpt>
      <trkpt lat="43.74226" lon="3.45659">
        <ele>673</ele>
        <time>2015-04-30T17:08:35Z</time>
      </trkpt>
      <trkpt lat="43.74209" lon="3.45643">
        <ele>673</ele>
        <time>2015-04-30T17:08:39Z</time>
      </trkpt>
      <trkpt lat="43.74199" lon="3.45637">
        <ele>673</ele>
        <time>2015-04-30T17:08:41Z</time>
      </trkpt>
      <trkpt lat="43.74165" lon="3.45636">
        <ele>676</ele>
        <time>2015-04-30T17:08:47Z</time>
      </trkpt>
      <trkpt lat="43.74107" lon="3.45648">
        <ele>674</ele>
        <time>2015-04-30T17:08:59Z</time>
      </trkpt>
      <trkpt lat="43.74097" lon="3.4565">
        <ele>675</ele>
        <time>2015-04-30T17:09:03Z</time>
      </trkpt>
      <trkpt lat="43.741" lon="3.45637">
        <ele>672</ele>
        <time>2015-04-30T17:09:14Z</time>
      </trkpt>
      <trkpt lat="43.74099" lon="3.45637">
        <ele>672</ele>
        <time>2015-04-30T17:09:43Z</time>
      </trkpt>
      <trkpt lat="43.74098" lon="3.45635">
        <ele>671</ele>
        <time>2015-04-30T17:10:02Z</time>
      </trkpt>
      <trkpt lat="43.74124" lon="3.45632">
        <ele>672</ele>
        <time>2015-04-30T17:10:10Z</time>
      </trkpt>
      <trkpt lat="43.74172" lon="3.45605">
        <ele>668</ele>
        <time>2015-04-30T17:10:24Z</time>
      </trkpt>
      <trkpt lat="43.7418" lon="3.45598">
        <ele>666</ele>
        <time>2015-04-30T17:10:29Z</time>
      </trkpt>
      <trkpt lat="43.74174" lon="3.45598">
        <ele>666</ele>
        <time>2015-04-30T17:10:33Z</time>
      </trkpt>
      <trkpt lat="43.74165" lon="3.456">
        <ele>666</ele>
        <time>2015-04-30T17:10:37Z</time>
      </trkpt>
      <trkpt lat="43.7416" lon="3.45602">
        <ele>667</ele>
        <time>2015-04-30T17:10:40Z</time>
      </trkpt>
      <trkpt lat="43.74157" lon="3.45605">
        <ele>667</ele>
        <time>2015-04-30T17:10:43Z</time>
      </trkpt>
      <trkpt lat="43.74147" lon="3.4561">
        <ele>668</ele>
        <time>2015-04-30T17:10:48Z</time>
      </trkpt>
      <trkpt lat="43.74122" lon="3.45612">
        <ele>667</ele>
        <time>2015-04-30T17:10:55Z</time>
      </trkpt>
      <trkpt lat="43.74118" lon="3.45614">
        <ele>668</ele>
        <time>2015-04-30T17:10:57Z</time>
      </trkpt>
      <trkpt lat="43.74079" lon="3.45617">
        <ele>658</ele>
        <time>2015-04-30T17:11:12Z</time>
      </trkpt>
      <trkpt lat="43.74063" lon="3.45622">
        <ele>659</ele>
        <time>2015-04-30T17:11:19Z</time>
      </trkpt>
      <trkpt lat="43.74033" lon="3.45625">
        <ele>658</ele>
        <time>2015-04-30T17:11:29Z</time>
      </trkpt>
      <trkpt lat="43.74017" lon="3.45629">
        <ele>658</ele>
        <time>2015-04-30T17:11:34Z</time>
      </trkpt>
      <trkpt lat="43.74007" lon="3.45632">
        <ele>658</ele>
        <time>2015-04-30T17:11:39Z</time>
      </trkpt>
      <trkpt lat="43.73978" lon="3.4562">
        <ele>653</ele>
        <time>2015-04-30T17:11:46Z</time>
      </trkpt>
      <trkpt lat="43.73945" lon="3.45604">
        <ele>651</ele>
        <time>2015-04-30T17:11:57Z</time>
      </trkpt>
      <trkpt lat="43.73917" lon="3.45587">
        <ele>640</ele>
        <time>2015-04-30T17:12:11Z</time>
      </trkpt>
      <trkpt lat="43.7389" lon="3.45577">
        <ele>629</ele>
        <time>2015-04-30T17:12:20Z</time>
      </trkpt>
      <trkpt lat="43.73862" lon="3.45558">
        <ele>626</ele>
        <time>2015-04-30T17:12:33Z</time>
      </trkpt>
      <trkpt lat="43.73858" lon="3.45555">
        <ele>626</ele>
        <time>2015-04-30T17:12:34Z</time>
      </trkpt>
      <trkpt lat="43.7385" lon="3.45552">
        <ele>626</ele>
        <time>2015-04-30T17:12:36Z</time>
      </trkpt>
      <trkpt lat="43.73841" lon="3.45548">
        <ele>625</ele>
        <time>2015-04-30T17:12:38Z</time>
      </trkpt>
      <trkpt lat="43.7383" lon="3.45544">
        <ele>622</ele>
        <time>2015-04-30T17:12:41Z</time>
      </trkpt>
      <trkpt lat="43.73798" lon="3.45535">
        <ele>619</ele>
        <time>2015-04-30T17:12:50Z</time>
      </trkpt>
      <trkpt lat="43.73771" lon="3.45524">
        <ele>616</ele>
        <time>2015-04-30T17:12:58Z</time>
      </trkpt>
      <trkpt lat="43.73756" lon="3.45546">
        <ele>618</ele>
        <time>2015-04-30T17:13:07Z</time>
      </trkpt>
      <trkpt lat="43.73748" lon="3.45581">
        <ele>617</ele>
        <time>2015-04-30T17:13:15Z</time>
      </trkpt>
      <trkpt lat="43.73747" lon="3.45585">
        <ele>617</ele>
        <time>2015-04-30T17:13:16Z</time>
      </trkpt>
      <trkpt lat="43.73742" lon="3.45615">
        <ele>609</ele>
        <time>2015-04-30T17:13:22Z</time>
      </trkpt>
      <trkpt lat="43.73737" lon="3.45647">
        <ele>611</ele>
        <time>2015-04-30T17:13:29Z</time>
      </trkpt>
      <trkpt lat="43.73732" lon="3.45691">
        <ele>608</ele>
        <time>2015-04-30T17:13:38Z</time>
      </trkpt>
      <trkpt lat="43.73731" lon="3.45723">
        <ele>606</ele>
        <time>2015-04-30T17:13:44Z</time>
      </trkpt>
      <trkpt lat="43.73734" lon="3.45755">
        <ele>607</ele>
        <time>2015-04-30T17:13:50Z</time>
      </trkpt>
      <trkpt lat="43.73739" lon="3.45803">
        <ele>601</ele>
        <time>2015-04-30T17:14:00Z</time>
      </trkpt>
      <trkpt lat="43.73737" lon="3.45848">
        <ele>601</ele>
        <time>2015-04-30T17:14:10Z</time>
      </trkpt>
      <trkpt lat="43.73732" lon="3.4587">
        <ele>596</ele>
        <time>2015-04-30T17:14:15Z</time>
      </trkpt>
      <trkpt lat="43.73727" lon="3.45911">
        <ele>598</ele>
        <time>2015-04-30T17:14:25Z</time>
      </trkpt>
      <trkpt lat="43.7372" lon="3.45923">
        <ele>594</ele>
        <time>2015-04-30T17:14:35Z</time>
      </trkpt>
      <trkpt lat="43.73714" lon="3.4595">
        <ele>591</ele>
        <time>2015-04-30T17:14:45Z</time>
      </trkpt>
      <trkpt lat="43.7371" lon="3.45989">
        <ele>591</ele>
        <time>2015-04-30T17:14:53Z</time>
      </trkpt>
      <trkpt lat="43.73709" lon="3.45994">
        <ele>590</ele>
        <time>2015-04-30T17:14:54Z</time>
      </trkpt>
      <trkpt lat="43.73695" lon="3.46032">
        <ele>590</ele>
        <time>2015-04-30T17:15:01Z</time>
      </trkpt>
      <trkpt lat="43.73692" lon="3.46044">
        <ele>590</ele>
        <time>2015-04-30T17:15:03Z</time>
      </trkpt>
      <trkpt lat="43.73685" lon="3.4607">
        <ele>587</ele>
        <time>2015-04-30T17:15:08Z</time>
      </trkpt>
      <trkpt lat="43.73661" lon="3.46117">
        <ele>573</ele>
        <time>2015-04-30T17:15:18Z</time>
      </trkpt>
      <trkpt lat="43.73645" lon="3.4614">
        <ele>574</ele>
        <time>2015-04-30T17:15:26Z</time>
      </trkpt>
      <trkpt lat="43.73636" lon="3.46157">
        <ele>574</ele>
        <time>2015-04-30T17:15:32Z</time>
      </trkpt>
      <trkpt lat="43.73617" lon="3.46179">
        <ele>587</ele>
        <time>2015-04-30T17:15:43Z</time>
      </trkpt>
      <trkpt lat="43.73615" lon="3.4618">
        <ele>587</ele>
        <time>2015-04-30T17:15:44Z</time>
      </trkpt>
      <trkpt lat="43.73585" lon="3.46178">
        <ele>577</ele>
        <time>2015-04-30T17:15:56Z</time>
      </trkpt>
      <trkpt lat="43.7356" lon="3.46157">
        <ele>557</ele>
        <time>2015-04-30T17:16:04Z</time>
      </trkpt>
      <trkpt lat="43.73538" lon="3.46135">
        <ele>551</ele>
        <time>2015-04-30T17:16:15Z</time>
      </trkpt>
      <trkpt lat="43.73515" lon="3.46135">
        <ele>551</ele>
        <time>2015-04-30T17:16:27Z</time>
      </trkpt>
      <trkpt lat="43.73493" lon="3.46145">
        <ele>547</ele>
        <time>2015-04-30T17:16:36Z</time>
      </trkpt>
      <trkpt lat="43.73463" lon="3.46154">
        <ele>543</ele>
        <time>2015-04-30T17:16:46Z</time>
      </trkpt>
      <trkpt lat="43.73442" lon="3.46158">
        <ele>542</ele>
        <time>2015-04-30T17:16:52Z</time>
      </trkpt>
      <trkpt lat="43.73439" lon="3.46159">
        <ele>542</ele>
        <time>2015-04-30T17:16:53Z</time>
      </trkpt>
      <trkpt lat="43.73415" lon="3.46158">
        <ele>541</ele>
        <time>2015-04-30T17:17:00Z</time>
      </trkpt>
      <trkpt lat="43.73389" lon="3.46159">
        <ele>531</ele>
        <time>2015-04-30T17:17:08Z</time>
      </trkpt>
      <trkpt lat="43.7336" lon="3.46164">
        <ele>528</ele>
        <time>2015-04-30T17:17:19Z</time>
      </trkpt>
      <trkpt lat="43.73331" lon="3.46171">
        <ele>534</ele>
        <time>2015-04-30T17:17:28Z</time>
      </trkpt>
      <trkpt lat="43.73293" lon="3.46178">
        <ele>534</ele>
        <time>2015-04-30T17:17:38Z</time>
      </trkpt>
      <trkpt lat="43.73257" lon="3.46171">
        <ele>528</ele>
        <time>2015-04-30T17:17:48Z</time>
      </trkpt>
      <trkpt lat="43.73253" lon="3.46169">
        <ele>527</ele>
        <time>2015-04-30T17:17:50Z</time>
      </trkpt>
      <trkpt lat="43.73242" lon="3.46163">
        <ele>519</ele>
        <time>2015-04-30T17:17:55Z</time>
      </trkpt>
      <trkpt lat="43.7322" lon="3.46151">
        <ele>510</ele>
        <time>2015-04-30T17:18:06Z</time>
      </trkpt>
      <trkpt lat="43.73203" lon="3.46142">
        <ele>507</ele>
        <time>2015-04-30T17:18:18Z</time>
      </trkpt>
      <trkpt lat="43.73201" lon="3.46138">
        <ele>506</ele>
        <time>2015-04-30T17:18:32Z</time>
      </trkpt>
      <trkpt lat="43.73201" lon="3.46136">
        <ele>506</ele>
        <time>2015-04-30T17:18:46Z</time>
      </trkpt>
      <trkpt lat="43.73191" lon="3.46133">
        <ele>505</ele>
        <time>2015-04-30T17:19:00Z</time>
      </trkpt>
      <trkpt lat="43.73171" lon="3.46127">
        <ele>504</ele>
        <time>2015-04-30T17:19:11Z</time>
      </trkpt>
      <trkpt lat="43.73147" lon="3.46145">
        <ele>499</ele>
        <time>2015-04-30T17:19:22Z</time>
      </trkpt>
      <trkpt lat="43.73152" lon="3.46181">
        <ele>499</ele>
        <time>2015-04-30T17:19:32Z</time>
      </trkpt>
      <trkpt lat="43.73162" lon="3.46216">
        <ele>494</ele>
        <time>2015-04-30T17:19:41Z</time>
      </trkpt>
      <trkpt lat="43.73167" lon="3.46233">
        <ele>494</ele>
        <time>2015-04-30T17:19:45Z</time>
      </trkpt>
      <trkpt lat="43.73179" lon="3.46269">
        <ele>501</ele>
        <time>2015-04-30T17:19:53Z</time>
      </trkpt>
      <trkpt lat="43.73194" lon="3.46297">
        <ele>501</ele>
        <time>2015-04-30T17:20:00Z</time>
      </trkpt>
      <trkpt lat="43.73211" lon="3.46322">
        <ele>502</ele>
        <time>2015-04-30T17:20:08Z</time>
      </trkpt>
      <trkpt lat="43.73229" lon="3.46353">
        <ele>491</ele>
        <time>2015-04-30T17:20:15Z</time>
      </trkpt>
      <trkpt lat="43.73241" lon="3.46389">
        <ele>486</ele>
        <time>2015-04-30T17:20:23Z</time>
      </trkpt>
      <trkpt lat="43.73245" lon="3.46397">
        <ele>486</ele>
        <time>2015-04-30T17:20:25Z</time>
      </trkpt>
      <trkpt lat="43.73263" lon="3.46435">
        <ele>496</ele>
        <time>2015-04-30T17:20:36Z</time>
      </trkpt>
      <trkpt lat="43.73266" lon="3.46457">
        <ele>497</ele>
        <time>2015-04-30T17:20:41Z</time>
      </trkpt>
      <trkpt lat="43.73272" lon="3.465">
        <ele>493</ele>
        <time>2015-04-30T17:20:50Z</time>
      </trkpt>
      <trkpt lat="43.73265" lon="3.46533">
        <ele>497</ele>
        <time>2015-04-30T17:21:02Z</time>
      </trkpt>
      <trkpt lat="43.73258" lon="3.46533">
        <ele>496</ele>
        <time>2015-04-30T17:21:15Z</time>
      </trkpt>
      <trkpt lat="43.73254" lon="3.46538">
        <ele>497</ele>
        <time>2015-04-30T17:21:28Z</time>
      </trkpt>
      <trkpt lat="43.73247" lon="3.46542">
        <ele>479</ele>
        <time>2015-04-30T17:21:33Z</time>
      </trkpt>
      <trkpt lat="43.73222" lon="3.46546">
        <ele>477</ele>
        <time>2015-04-30T17:21:43Z</time>
      </trkpt>
      <trkpt lat="43.73203" lon="3.46553">
        <ele>474</ele>
        <time>2015-04-30T17:21:52Z</time>
      </trkpt>
      <trkpt lat="43.73196" lon="3.46557">
        <ele>473</ele>
        <time>2015-04-30T17:21:55Z</time>
      </trkpt>
      <trkpt lat="43.73174" lon="3.4657">
        <ele>471</ele>
        <time>2015-04-30T17:22:05Z</time>
      </trkpt>
      <trkpt lat="43.73154" lon="3.46582">
        <ele>460</ele>
        <time>2015-04-30T17:22:15Z</time>
      </trkpt>
      <trkpt lat="43.73129" lon="3.46599">
        <ele>462</ele>
        <time>2015-04-30T17:22:24Z</time>
      </trkpt>
      <trkpt lat="43.7311" lon="3.46623">
        <ele>461</ele>
        <time>2015-04-30T17:22:35Z</time>
      </trkpt>
      <trkpt lat="43.73086" lon="3.4664">
        <ele>460</ele>
        <time>2015-04-30T17:22:43Z</time>
      </trkpt>
      <trkpt lat="43.73064" lon="3.46652">
        <ele>443</ele>
        <time>2015-04-30T17:22:52Z</time>
      </trkpt>
      <trkpt lat="43.73047" lon="3.46663">
        <ele>440</ele>
        <time>2015-04-30T17:23:01Z</time>
      </trkpt>
      <trkpt lat="43.73022" lon="3.4667">
        <ele>438</ele>
        <time>2015-04-30T17:23:11Z</time>
      </trkpt>
      <trkpt lat="43.73019" lon="3.4667">
        <ele>437</ele>
        <time>2015-04-30T17:23:12Z</time>
      </trkpt>
      <trkpt lat="43.72996" lon="3.46681">
        <ele>425</ele>
        <time>2015-04-30T17:23:21Z</time>
      </trkpt>
      <trkpt lat="43.72991" lon="3.46699">
        <ele>422</ele>
        <time>2015-04-30T17:23:26Z</time>
      </trkpt>
      <trkpt lat="43.73006" lon="3.46723">
        <ele>437</ele>
        <time>2015-04-30T17:23:31Z</time>
      </trkpt>
      <trkpt lat="43.7304" lon="3.46766">
        <ele>445</ele>
        <time>2015-04-30T17:23:44Z</time>
      </trkpt>
      <trkpt lat="43.73048" lon="3.46789">
        <ele>448</ele>
        <time>2015-04-30T17:23:51Z</time>
      </trkpt>
      <trkpt lat="43.73037" lon="3.46792">
        <ele>446</ele>
        <time>2015-04-30T17:24:02Z</time>
      </trkpt>
      <trkpt lat="43.7303" lon="3.4679">
        <ele>445</ele>
        <time>2015-04-30T17:24:11Z</time>
      </trkpt>
      <trkpt lat="43.73017" lon="3.46789">
        <ele>444</ele>
        <time>2015-04-30T17:24:27Z</time>
      </trkpt>
      <trkpt lat="43.73011" lon="3.46786">
        <ele>443</ele>
        <time>2015-04-30T17:24:39Z</time>
      </trkpt>
      <trkpt lat="43.73001" lon="3.46788">
        <ele>442</ele>
        <time>2015-04-30T17:24:55Z</time>
      </trkpt>
      <trkpt lat="43.7298" lon="3.46786">
        <ele>429</ele>
        <time>2015-04-30T17:25:06Z</time>
      </trkpt>
      <trkpt lat="43.72969" lon="3.46787">
        <ele>429</ele>
        <time>2015-04-30T17:25:10Z</time>
      </trkpt>
      <trkpt lat="43.72958" lon="3.46789">
        <ele>428</ele>
        <time>2015-04-30T17:25:14Z</time>
      </trkpt>
      <trkpt lat="43.72934" lon="3.46788">
        <ele>426</ele>
        <time>2015-04-30T17:25:22Z</time>
      </trkpt>
      <trkpt lat="43.72917" lon="3.46789">
        <ele>425</ele>
        <time>2015-04-30T17:25:27Z</time>
      </trkpt>
      <trkpt lat="43.72894" lon="3.46784">
        <ele>415</ele>
        <time>2015-04-30T17:25:36Z</time>
      </trkpt>
      <trkpt lat="43.72891" lon="3.46781">
        <ele>414</ele>
        <time>2015-04-30T17:25:38Z</time>
      </trkpt>
      <trkpt lat="43.72876" lon="3.4678">
        <ele>413</ele>
        <time>2015-04-30T17:25:44Z</time>
      </trkpt>
      <trkpt lat="43.72847" lon="3.46777">
        <ele>410</ele>
        <time>2015-04-30T17:25:56Z</time>
      </trkpt>
      <trkpt lat="43.72823" lon="3.46784">
        <ele>404</ele>
        <time>2015-04-30T17:26:07Z</time>
      </trkpt>
      <trkpt lat="43.7281" lon="3.46782">
        <ele>403</ele>
        <time>2015-04-30T17:26:18Z</time>
      </trkpt>
      <trkpt lat="43.72812" lon="3.46779">
        <ele>403</ele>
        <time>2015-04-30T17:26:38Z</time>
      </trkpt>
      <trkpt lat="43.72812" lon="3.46772">
        <ele>403</ele>
        <time>2015-04-30T17:26:54Z</time>
      </trkpt>
      <trkpt lat="43.72813" lon="3.46771">
        <ele>403</ele>
        <time>2015-04-30T17:26:57Z</time>
      </trkpt>
      <trkpt lat="43.72788" lon="3.4675">
        <ele>399</ele>
        <time>2015-04-30T17:27:09Z</time>
      </trkpt>
      <trkpt lat="43.72728" lon="3.467">
        <ele>402</ele>
        <time>2015-04-30T17:27:27Z</time>
      </trkpt>
      <trkpt lat="43.72708" lon="3.46706">
        <ele>403</ele>
        <time>2015-04-30T17:27:57Z</time>
      </trkpt>
      <trkpt lat="43.7269" lon="3.46754">
        <ele>406</ele>
        <time>2015-04-30T17:28:09Z</time>
      </trkpt>
      <trkpt lat="43.72688" lon="3.46785">
        <ele>405</ele>
        <time>2015-04-30T17:28:16Z</time>
      </trkpt>
      <trkpt lat="43.72691" lon="3.46796">
        <ele>405</ele>
        <time>2015-04-30T17:28:18Z</time>
      </trkpt>
      <trkpt lat="43.72691" lon="3.46829">
        <ele>405</ele>
        <time>2015-04-30T17:28:23Z</time>
      </trkpt>
      <trkpt lat="43.72669" lon="3.46869">
        <ele>401</ele>
        <time>2015-04-30T17:28:34Z</time>
      </trkpt>
      <trkpt lat="43.7263" lon="3.46912">
        <ele>412</ele>
        <time>2015-04-30T17:28:49Z</time>
      </trkpt>
      <trkpt lat="43.72602" lon="3.4697">
        <ele>405</ele>
        <time>2015-04-30T17:29:03Z</time>
      </trkpt>
      <trkpt lat="43.72568" lon="3.47003">
        <ele>405</ele>
        <time>2015-04-30T17:29:17Z</time>
      </trkpt>
      <trkpt lat="43.72529" lon="3.47019">
        <ele>407</ele>
        <time>2015-04-30T17:29:30Z</time>
      </trkpt>
      <trkpt lat="43.72494" lon="3.47049">
        <ele>412</ele>
        <time>2015-04-30T17:29:44Z</time>
      </trkpt>
      <trkpt lat="43.72456" lon="3.47086">
        <ele>402</ele>
        <time>2015-04-30T17:29:55Z</time>
      </trkpt>
      <trkpt lat="43.7244" lon="3.47096">
        <ele>404</ele>
        <time>2015-04-30T17:29:59Z</time>
      </trkpt>
      <trkpt lat="43.72395" lon="3.47111">
        <ele>408</ele>
        <time>2015-04-30T17:30:11Z</time>
      </trkpt>
      <trkpt lat="43.72345" lon="3.47131">
        <ele>408</ele>
        <time>2015-04-30T17:30:21Z</time>
      </trkpt>
      <trkpt lat="43.72292" lon="3.47191">
        <ele>407</ele>
        <time>2015-04-30T17:30:34Z</time>
      </trkpt>
      <trkpt lat="43.72267" lon="3.47221">
        <ele>406</ele>
        <time>2015-04-30T17:30:39Z</time>
      </trkpt>
      <trkpt lat="43.72247" lon="3.47243">
        <ele>409</ele>
        <time>2015-04-30T17:30:43Z</time>
      </trkpt>
      <trkpt lat="43.72244" lon="3.47247">
        <ele>409</ele>
        <time>2015-04-30T17:30:44Z</time>
      </trkpt>
      <trkpt lat="43.7224" lon="3.47281">
        <ele>410</ele>
        <time>2015-04-30T17:30:48Z</time>
      </trkpt>
      <trkpt lat="43.72246" lon="3.47329">
        <ele>404</ele>
        <time>2015-04-30T17:30:54Z</time>
      </trkpt>
      <trkpt lat="43.7226" lon="3.4736">
        <ele>394</ele>
        <time>2015-04-30T17:30:59Z</time>
      </trkpt>
      <trkpt lat="43.72267" lon="3.4737">
        <ele>392</ele>
        <time>2015-04-30T17:31:01Z</time>
      </trkpt>
      <trkpt lat="43.72272" lon="3.47412">
        <ele>393</ele>
        <time>2015-04-30T17:31:08Z</time>
      </trkpt>
      <trkpt lat="43.7227" lon="3.47419">
        <ele>390</ele>
        <time>2015-04-30T17:31:09Z</time>
      </trkpt>
      <trkpt lat="43.72251" lon="3.47465">
        <ele>385</ele>
        <time>2015-04-30T17:31:16Z</time>
      </trkpt>
      <trkpt lat="43.72249" lon="3.47472">
        <ele>401</ele>
        <time>2015-04-30T17:31:17Z</time>
      </trkpt>
      <trkpt lat="43.72239" lon="3.47507">
        <ele>392</ele>
        <time>2015-04-30T17:31:23Z</time>
      </trkpt>
      <trkpt lat="43.72237" lon="3.47514">
        <ele>393</ele>
        <time>2015-04-30T17:31:24Z</time>
      </trkpt>
      <trkpt lat="43.72221" lon="3.47577">
        <ele>391</ele>
        <time>2015-04-30T17:31:32Z</time>
      </trkpt>
      <trkpt lat="43.72216" lon="3.47597">
        <ele>383</ele>
        <time>2015-04-30T17:31:34Z</time>
      </trkpt>
      <trkpt lat="43.72213" lon="3.47614">
        <ele>383</ele>
        <time>2015-04-30T17:31:36Z</time>
      </trkpt>
      <trkpt lat="43.72208" lon="3.47633">
        <ele>382</ele>
        <time>2015-04-30T17:31:39Z</time>
      </trkpt>
      <trkpt lat="43.72208" lon="3.47674">
        <ele>371</ele>
        <time>2015-04-30T17:31:50Z</time>
      </trkpt>
      <trkpt lat="43.72196" lon="3.47716">
        <ele>371</ele>
        <time>2015-04-30T17:32:02Z</time>
      </trkpt>
      <trkpt lat="43.72195" lon="3.47719">
        <ele>371</ele>
        <time>2015-04-30T17:32:03Z</time>
      </trkpt>
      <trkpt lat="43.72178" lon="3.47771">
        <ele>365</ele>
        <time>2015-04-30T17:32:16Z</time>
      </trkpt>
      <trkpt lat="43.72161" lon="3.4781">
        <ele>371</ele>
        <time>2015-04-30T17:32:26Z</time>
      </trkpt>
      <trkpt lat="43.7214" lon="3.47845">
        <ele>363</ele>
        <time>2015-04-30T17:32:37Z</time>
      </trkpt>
      <trkpt lat="43.7212" lon="3.47879">
        <ele>361</ele>
        <time>2015-04-30T17:32:48Z</time>
      </trkpt>
      <trkpt lat="43.72112" lon="3.47883">
        <ele>361</ele>
        <time>2015-04-30T17:32:52Z</time>
      </trkpt>
      <trkpt lat="43.72089" lon="3.47899">
        <ele>360</ele>
        <time>2015-04-30T17:33:03Z</time>
      </trkpt>
      <trkpt lat="43.72052" lon="3.47892">
        <ele>362</ele>
        <time>2015-04-30T17:33:12Z</time>
      </trkpt>
      <trkpt lat="43.72032" lon="3.47895">
        <ele>361</ele>
        <time>2015-04-30T17:33:16Z</time>
      </trkpt>
      <trkpt lat="43.72011" lon="3.47897">
        <ele>359</ele>
        <time>2015-04-30T17:33:20Z</time>
      </trkpt>
      <trkpt lat="43.71989" lon="3.47896">
        <ele>356</ele>
        <time>2015-04-30T17:33:25Z</time>
      </trkpt>
      <trkpt lat="43.71985" lon="3.47896">
        <ele>356</ele>
        <time>2015-04-30T17:33:26Z</time>
      </trkpt>
      <trkpt lat="43.71968" lon="3.47903">
        <ele>356</ele>
        <time>2015-04-30T17:33:30Z</time>
      </trkpt>
      <trkpt lat="43.71951" lon="3.47904">
        <ele>354</ele>
        <time>2015-04-30T17:33:34Z</time>
      </trkpt>
      <trkpt lat="43.71933" lon="3.47901">
        <ele>352</ele>
        <time>2015-04-30T17:33:38Z</time>
      </trkpt>
      <trkpt lat="43.71924" lon="3.47898">
        <ele>352</ele>
        <time>2015-04-30T17:33:40Z</time>
      </trkpt>
      <trkpt lat="43.71889" lon="3.47894">
        <ele>345</ele>
        <time>2015-04-30T17:33:46Z</time>
      </trkpt>
      <trkpt lat="43.71872" lon="3.47885">
        <ele>345</ele>
        <time>2015-04-30T17:33:49Z</time>
      </trkpt>
      <trkpt lat="43.71847" lon="3.47866">
        <ele>345</ele>
        <time>2015-04-30T17:33:54Z</time>
      </trkpt>
      <trkpt lat="43.71826" lon="3.47858">
        <ele>337</ele>
        <time>2015-04-30T17:33:58Z</time>
      </trkpt>
      <trkpt lat="43.71765" lon="3.47815">
        <ele>345</ele>
        <time>2015-04-30T17:34:09Z</time>
      </trkpt>
      <trkpt lat="43.71751" lon="3.47802">
        <ele>346</ele>
        <time>2015-04-30T17:34:12Z</time>
      </trkpt>
      <trkpt lat="43.71712" lon="3.47792">
        <ele>337</ele>
        <time>2015-04-30T17:34:18Z</time>
      </trkpt>
      <trkpt lat="43.71691" lon="3.47783">
        <ele>336</ele>
        <time>2015-04-30T17:34:21Z</time>
      </trkpt>
      <trkpt lat="43.71677" lon="3.47778">
        <ele>335</ele>
        <time>2015-04-30T17:34:23Z</time>
      </trkpt>
      <trkpt lat="43.71672" lon="3.47775">
        <ele>336</ele>
        <time>2015-04-30T17:34:24Z</time>
      </trkpt>
      <trkpt lat="43.7163" lon="3.47757">
        <ele>327</ele>
        <time>2015-04-30T17:34:34Z</time>
      </trkpt>
      <trkpt lat="43.7161" lon="3.47749">
        <ele>328</ele>
        <time>2015-04-30T17:34:39Z</time>
      </trkpt>
      <trkpt lat="43.71597" lon="3.47748">
        <ele>327</ele>
        <time>2015-04-30T17:34:42Z</time>
      </trkpt>
      <trkpt lat="43.71561" lon="3.47738">
        <ele>321</ele>
        <time>2015-04-30T17:34:52Z</time>
      </trkpt>
      <trkpt lat="43.71548" lon="3.47735">
        <ele>320</ele>
        <time>2015-04-30T17:34:55Z</time>
      </trkpt>
      <trkpt lat="43.71505" lon="3.47728">
        <ele>319</ele>
        <time>2015-04-30T17:35:04Z</time>
      </trkpt>
      <trkpt lat="43.71483" lon="3.47729">
        <ele>314</ele>
        <time>2015-04-30T17:35:09Z</time>
      </trkpt>
      <trkpt lat="43.71464" lon="3.47738">
        <ele>313</ele>
        <time>2015-04-30T17:35:16Z</time>
      </trkpt>
      <trkpt lat="43.71467" lon="3.47748">
        <ele>313</ele>
        <time>2015-04-30T17:35:21Z</time>
      </trkpt>
      <trkpt lat="43.71512" lon="3.47757">
        <ele>321</ele>
        <time>2015-04-30T17:35:35Z</time>
      </trkpt>
      <trkpt lat="43.71515" lon="3.47757">
        <ele>321</ele>
        <time>2015-04-30T17:35:36Z</time>
      </trkpt>
      <trkpt lat="43.71527" lon="3.47786">
        <ele>320</ele>
        <time>2015-04-30T17:35:42Z</time>
      </trkpt>
      <trkpt lat="43.71519" lon="3.47821">
        <ele>320</ele>
        <time>2015-04-30T17:35:47Z</time>
      </trkpt>
      <trkpt lat="43.71527" lon="3.47851">
        <ele>316</ele>
        <time>2015-04-30T17:35:53Z</time>
      </trkpt>
      <trkpt lat="43.71543" lon="3.47856">
        <ele>316</ele>
        <time>2015-04-30T17:35:57Z</time>
      </trkpt>
      <trkpt lat="43.71566" lon="3.47902">
        <ele>314</ele>
        <time>2015-04-30T17:36:06Z</time>
      </trkpt>
      <trkpt lat="43.71544" lon="3.47929">
        <ele>312</ele>
        <time>2015-04-30T17:36:11Z</time>
      </trkpt>
      <trkpt lat="43.71487" lon="3.47971">
        <ele>314</ele>
        <time>2015-04-30T17:36:21Z</time>
      </trkpt>
      <trkpt lat="43.71469" lon="3.47977">
        <ele>315</ele>
        <time>2015-04-30T17:36:25Z</time>
      </trkpt>
      <trkpt lat="43.71421" lon="3.47973">
        <ele>316</ele>
        <time>2015-04-30T17:36:38Z</time>
      </trkpt>
      <trkpt lat="43.71379" lon="3.47971">
        <ele>318</ele>
        <time>2015-04-30T17:36:51Z</time>
      </trkpt>
      <trkpt lat="43.71379" lon="3.47974">
        <ele>318</ele>
        <time>2015-04-30T17:37:09Z</time>
      </trkpt>
      <trkpt lat="43.71369" lon="3.48013">
        <ele>318</ele>
        <time>2015-04-30T17:37:23Z</time>
      </trkpt>
      <trkpt lat="43.71358" lon="3.48067">
        <ele>318</ele>
        <time>2015-04-30T17:37:37Z</time>
      </trkpt>
      <trkpt lat="43.71367" lon="3.48093">
        <ele>316</ele>
        <time>2015-04-30T17:37:44Z</time>
      </trkpt>
      <trkpt lat="43.71361" lon="3.48107">
        <ele>315</ele>
        <time>2015-04-30T17:37:49Z</time>
      </trkpt>
      <trkpt lat="43.71322" lon="3.48139">
        <ele>315</ele>
        <time>2015-04-30T17:37:59Z</time>
      </trkpt>
      <trkpt lat="43.71308" lon="3.4816">
        <ele>314</ele>
        <time>2015-04-30T17:38:03Z</time>
      </trkpt>
      <trkpt lat="43.71305" lon="3.48166">
        <ele>314</ele>
        <time>2015-04-30T17:38:04Z</time>
      </trkpt>
      <trkpt lat="43.71297" lon="3.48178">
        <ele>311</ele>
        <time>2015-04-30T17:38:06Z</time>
      </trkpt>
      <trkpt lat="43.71276" lon="3.48219">
        <ele>309</ele>
        <time>2015-04-30T17:38:12Z</time>
      </trkpt>
      <trkpt lat="43.71272" lon="3.48225">
        <ele>308</ele>
        <time>2015-04-30T17:38:13Z</time>
      </trkpt>
      <trkpt lat="43.71258" lon="3.48249">
        <ele>306</ele>
        <time>2015-04-30T17:38:17Z</time>
      </trkpt>
      <trkpt lat="43.71242" lon="3.48283">
        <ele>297</ele>
        <time>2015-04-30T17:38:23Z</time>
      </trkpt>
      <trkpt lat="43.7124" lon="3.48289">
        <ele>296</ele>
        <time>2015-04-30T17:38:24Z</time>
      </trkpt>
      <trkpt lat="43.71233" lon="3.48305">
        <ele>296</ele>
        <time>2015-04-30T17:38:27Z</time>
      </trkpt>
      <trkpt lat="43.71228" lon="3.48315">
        <ele>296</ele>
        <time>2015-04-30T17:38:29Z</time>
      </trkpt>
      <trkpt lat="43.71219" lon="3.48337">
        <ele>293</ele>
        <time>2015-04-30T17:38:33Z</time>
      </trkpt>
      <trkpt lat="43.71206" lon="3.48376">
        <ele>290</ele>
        <time>2015-04-30T17:38:41Z</time>
      </trkpt>
      <trkpt lat="43.71203" lon="3.48385">
        <ele>290</ele>
        <time>2015-04-30T17:38:43Z</time>
      </trkpt>
      <trkpt lat="43.71196" lon="3.48401">
        <ele>288</ele>
        <time>2015-04-30T17:38:50Z</time>
      </trkpt>
      <trkpt lat="43.71195" lon="3.48402">
        <ele>288</ele>
        <time>2015-04-30T17:38:51Z</time>
      </trkpt>
      <trkpt lat="43.71184" lon="3.48413">
        <ele>286</ele>
        <time>2015-04-30T17:39:00Z</time>
      </trkpt>
      <trkpt lat="43.71182" lon="3.48415">
        <ele>285</ele>
        <time>2015-04-30T17:39:02Z</time>
      </trkpt>
      <trkpt lat="43.71171" lon="3.48409">
        <ele>284</ele>
        <time>2015-04-30T17:39:10Z</time>
      </trkpt>
      <trkpt lat="43.71173" lon="3.48408">
        <ele>284</ele>
        <time>2015-04-30T17:39:22Z</time>
      </trkpt>
      <trkpt lat="43.71172" lon="3.48406">
        <ele>284</ele>
        <time>2015-04-30T17:39:43Z</time>
      </trkpt>
      <trkpt lat="43.71171" lon="3.48407">
        <ele>284</ele>
        <time>2015-04-30T17:39:53Z</time>
      </trkpt>
      <trkpt lat="43.71177" lon="3.48411">
        <ele>284</ele>
        <time>2015-04-30T17:40:04Z</time>
      </trkpt>
      <trkpt lat="43.71184" lon="3.4841">
        <ele>286</ele>
        <time>2015-04-30T17:40:17Z</time>
      </trkpt>
      <trkpt lat="43.71187" lon="3.48405">
        <ele>287</ele>
        <time>2015-04-30T17:40:23Z</time>
      </trkpt>
      <trkpt lat="43.71194" lon="3.48396">
        <ele>288</ele>
        <time>2015-04-30T17:40:40Z</time>
      </trkpt>
      <trkpt lat="43.71198" lon="3.48403">
        <ele>289</ele>
        <time>2015-04-30T17:40:54Z</time>
      </trkpt>
      <trkpt lat="43.71196" lon="3.48411">
        <ele>288</ele>
        <time>2015-04-30T17:41:11Z</time>
      </trkpt>
      <trkpt lat="43.71192" lon="3.48426">
        <ele>285</ele>
        <time>2015-04-30T17:41:26Z</time>
      </trkpt>
      <trkpt lat="43.71189" lon="3.48438">
        <ele>285</ele>
        <time>2015-04-30T17:41:39Z</time>
      </trkpt>
      <trkpt lat="43.71186" lon="3.48443">
        <ele>285</ele>
        <time>2015-04-30T17:41:53Z</time>
      </trkpt>
      <trkpt lat="43.71186" lon="3.48443">
        <ele>285</ele>
        <time>2015-04-30T17:41:55Z</time>
      </trkpt>
      <trkpt lat="43.71183" lon="3.4846">
        <ele>284</ele>
        <time>2015-04-30T17:42:02Z</time>
      </trkpt>
      <trkpt lat="43.71176" lon="3.48493">
        <ele>281</ele>
        <time>2015-04-30T17:42:10Z</time>
      </trkpt>
      <trkpt lat="43.7117" lon="3.48502">
        <ele>279</ele>
        <time>2015-04-30T17:42:23Z</time>
      </trkpt>
      <trkpt lat="43.71165" lon="3.4851">
        <ele>273</ele>
        <time>2015-04-30T17:42:35Z</time>
      </trkpt>
      <trkpt lat="43.71162" lon="3.48514">
        <ele>271</ele>
        <time>2015-04-30T17:42:48Z</time>
      </trkpt>
      <trkpt lat="43.71157" lon="3.48526">
        <ele>267</ele>
        <time>2015-04-30T17:43:04Z</time>
      </trkpt>
      <trkpt lat="43.71155" lon="3.48536">
        <ele>265</ele>
        <time>2015-04-30T17:43:14Z</time>
      </trkpt>
      <trkpt lat="43.71148" lon="3.48563">
        <ele>264</ele>
        <time>2015-04-30T17:43:23Z</time>
      </trkpt>
      <trkpt lat="43.71148" lon="3.48566">
        <ele>264</ele>
        <time>2015-04-30T17:43:24Z</time>
      </trkpt>
      <trkpt lat="43.71147" lon="3.48599">
        <ele>258</ele>
        <time>2015-04-30T17:43:33Z</time>
      </trkpt>
      <trkpt lat="43.71151" lon="3.48607">
        <ele>257</ele>
        <time>2015-04-30T17:43:37Z</time>
      </trkpt>
      <trkpt lat="43.71147" lon="3.48617">
        <ele>255</ele>
        <time>2015-04-30T17:43:48Z</time>
      </trkpt>
      <trkpt lat="43.71146" lon="3.48617">
        <ele>255</ele>
        <time>2015-04-30T17:44:16Z</time>
      </trkpt>
      <trkpt lat="43.71145" lon="3.48618">
        <ele>254</ele>
        <time>2015-04-30T17:44:22Z</time>
      </trkpt>
      <trkpt lat="43.71138" lon="3.48635">
        <ele>252</ele>
        <time>2015-04-30T17:44:30Z</time>
      </trkpt>
      <trkpt lat="43.71137" lon="3.48637">
        <ele>252</ele>
        <time>2015-04-30T17:44:32Z</time>
      </trkpt>
      <trkpt lat="43.71136" lon="3.48645">
        <ele>251</ele>
        <time>2015-04-30T17:44:44Z</time>
      </trkpt>
      <trkpt lat="43.71136" lon="3.4865">
        <ele>251</ele>
        <time>2015-04-30T17:44:52Z</time>
      </trkpt>
      <trkpt lat="43.71134" lon="3.48664">
        <ele>250</ele>
        <time>2015-04-30T17:45:06Z</time>
      </trkpt>
      <trkpt lat="43.71134" lon="3.48665">
        <ele>250</ele>
        <time>2015-04-30T17:45:07Z</time>
      </trkpt>
      <trkpt lat="43.71127" lon="3.48669">
        <ele>243</ele>
        <time>2015-04-30T17:45:21Z</time>
      </trkpt>
      <trkpt lat="43.7112" lon="3.48674">
        <ele>243</ele>
        <time>2015-04-30T17:45:39Z</time>
      </trkpt>
      <trkpt lat="43.71113" lon="3.48671">
        <ele>242</ele>
        <time>2015-04-30T17:45:52Z</time>
      </trkpt>
      <trkpt lat="43.7111" lon="3.48673">
        <ele>242</ele>
        <time>2015-04-30T17:46:10Z</time>
      </trkpt>
      <trkpt lat="43.71109" lon="3.4867">
        <ele>242</ele>
        <time>2015-04-30T17:46:14Z</time>
      </trkpt>
      <trkpt lat="43.71108" lon="3.48666">
        <ele>248</ele>
        <time>2015-04-30T17:46:17Z</time>
      </trkpt>
      <trkpt lat="43.71107" lon="3.48656">
        <ele>248</ele>
        <time>2015-04-30T17:46:26Z</time>
      </trkpt>
      <trkpt lat="43.71103" lon="3.48633">
        <ele>249</ele>
        <time>2015-04-30T17:46:39Z</time>
      </trkpt>
      <trkpt lat="43.71103" lon="3.48623">
        <ele>250</ele>
        <time>2015-04-30T17:46:52Z</time>
      </trkpt>
      <trkpt lat="43.71094" lon="3.48615">
        <ele>250</ele>
        <time>2015-04-30T17:47:08Z</time>
      </trkpt>
      <trkpt lat="43.71091" lon="3.48619">
        <ele>249</ele>
        <time>2015-04-30T17:47:26Z</time>
      </trkpt>
    </trkseg>
  </trk>
</gpx>